[[{"header":{"parameterUnit":"m.s-1","parameterCategory":1,"la1":31.0,"la2":29.5877,"lo1":-88.7671,"lo2":-86.6584,"dy":0.0162,"dx":0.0185,"nx":115,"ny":88,"refTime":"2024-08-21T06:00:00:Z","depth":0,"parameterNumber":2,"parameterNumberName":"U-component_of_WINDS"},"data":[0.0,0.0,0.0,0.0,0.0,0.0,0.0,0.0,0.0,0.0,0.0,0.0,0.0,0.0,0.0,0.0,0.0,0.0,0.0,0.0,0.0,0.0,0.0,0.0,0.0,0.0,0.0,0.0,0.0,0.0,0.0,0.0,0.0,0.0,0.0,0.0,0.0,0.0,0.0,0.0,0.0,0.0,0.0,0.0,0.0,0.0,0.0,0.0,0.0,0.0,0.0,0.0,0.0,0.0,0.0,0.0,0.0,0.0,0.0,0.0,0.0,0.0,0.0,0.0,0.0,0.0,0.0,0.0,0.0,0.0,0.0,0.0,0.0,0.0,0.0,0.0,0.0,0.0,0.0,0.0,0.0,0.0,0.0,0.0,0.0,0.0,0.0,0.0,0.0,0.0,0.0,0.0,0.0,0.0,0.0,0.0,0.0,0.0,0.0,0.0,0.0,0.0,0.0,0.0,0.0,0.0,0.0,0.0,0.0,0.0,0.0,0.0,0.0,0.0,0.0,0.0,0.0,0.0,0.0,0.0,0.0,0.0,0.0,0.0,0.0,0.0,0.0,0.0,0.0,0.0,0.0,0.0,0.0,0.0,0.0,0.0,0.0,0.0,0.0,0.0,0.0,0.0,0.0,0.0,0.0,0.0,0.0,0.0,0.0,0.0,0.0,0.0,0.0,0.0,0.0,0.0,0.0,0.0,0.0,0.0,0.0,0.0,0.0,0.0,0.0,0.0,0.0,0.0,0.0,0.0,0.0,0.0,0.0,0.0,0.0,0.0,0.0,0.0,0.0,0.0,0.0,0.0,0.0,0.0,0.0,0.0,0.0,0.0,0.0,0.0,0.0,0.0,0.0,0.0,0.0,0.0,0.0,0.0,0.0,0.0,0.0,0.0,0.0,0.0,0.0,0.0,0.0,0.0,0.0,0.0,0.0,0.0,0.0,0.0,0.0,0.0,0.0,0.0,0.0,0.0,0.0,0.0,0.0,0.0,0.0,0.0,0.0,0.0,0.0,0.0,0.0,0.0,0.0,0.0,0.0,0.0,0.0,0.0,0.0,0.0,0.0,0.0,0.0,0.0,0.0,0.0,0.0,0.0,0.0,0.0,0.0,0.0,0.0,0.0,0.0,0.0,0.0,0.0,0.0,0.0,0.0,0.0,0.0,0.0,0.0,0.0,0.0,0.0,0.0,0.0,0.0,0.0,0.0,0.0,0.0,0.0,0.0,0.0,0.0,0.0,0.0,0.0,0.0,0.0,0.0,0.0,0.0,0.0,0.0,0.0,0.0,0.0,0.0,0.0,0.0,0.0,0.0,0.0,0.0,0.0,0.0,0.0,0.0,0.0,0.0,0.0,0.0,0.0,0.0,0.0,0.0,0.0,0.0,0.0,0.0,0.0,0.0,0.0,0.0,0.0,0.0,0.0,0.0,0.0,0.0,0.0,0.0,0.0,0.0,0.0,0.0,0.0,0.0,0.0,0.0,0.0,0.0,0.0,0.0,0.0,0.0,0.0,0.0,0.0,0.0,0.0,0.0,0.0,0.0,0.0,0.0,0.0,0.0,0.0,0.0,0.0,0.0,0.0,0.0,0.0,0.0,0.0,0.0,0.0,0.0,0.0,0.0,0.0,0.0,0.0,0.0,0.0,0.0,0.0,0.0,0.0,0.0,0.0,0.0,0.0,0.0,0.0,0.0,0.0,0.0,0.0,0.0,0.0,0.0,0.0,0.0,0.0,0.0,0.0,0.0,0.0,0.0,0.0,0.0,0.0,0.0,0.0,0.0,0.0,0.0,0.0,0.0,0.0,0.0,0.0,0.0,0.0,0.0,0.0,0.0,0.0,0.0,0.0,0.0,0.0,0.0,0.0,0.0,0.0,0.0,0.0,0.0,0.0,0.0,0.0,0.0,0.0,0.0,0.0,0.0,0.0,0.0,0.0,0.0,0.0,0.0,0.0,0.0,0.0,0.0,0.0,0.0,0.0,0.0,0.0,0.0,0.0,0.0,0.0,0.0,0.0,0.0,0.0,0.0,0.0,0.0,0.0,0.0,0.0,0.0,0.0,0.0,0.0,0.0,0.0,0.0,0.0,0.0,0.0,0.0,0.0,0.0,0.0,0.0,0.0,0.0,0.0,0.0,0.0,0.0,0.0,0.0,0.0,0.0,0.0,0.0,0.0,0.0,0.0,0.0,0.0,0.0,0.0,0.0,0.0,0.0,0.0,0.0,0.0,0.0,0.0,0.0,0.0,0.0,0.0,0.0,0.0,0.0,0.0,0.0,0.0,0.0,0.0,0.0,0.0,0.0,0.0,0.0,0.0,0.0,0.0,0.0,0.0,0.0,0.0,0.0,0.0,0.0,0.0,0.0,0.0,0.0,0.0,0.0,0.0,0.0,0.0,0.0,0.0,0.0,0.0,0.0,0.0,0.0,0.0,0.0,0.0,0.0,0.0,0.0,0.0,0.0,0.0,0.0,0.0,0.0,0.0,0.0,0.0,0.0,0.0,0.0,0.0,0.0,0.0,0.0,0.0,0.0,0.0,0.0,0.0,0.0,0.0,0.0,0.0,0.0,0.0,0.0,0.0,0.0,0.0,0.0,0.0,0.0,0.0,0.0,0.0,0.0,0.0,0.0,0.0,0.0,0.0,0.0,0.0,0.0,0.0,0.0,0.0,0.0,0.0,0.0,0.0,0.0,0.0,0.0,0.0,0.0,0.0,0.0,0.0,0.0,0.0,0.0,0.0,0.0,0.0,0.0,0.0,0.0,0.0,0.0,0.0,0.0,0.0,0.0,0.0,0.0,0.0,0.0,0.0,0.0,0.0,0.0,0.0,0.0,0.0,0.0,0.0,0.0,0.0,0.0,0.0,0.0,0.0,0.0,0.0,0.0,0.0,0.0,0.0,0.0,0.0,0.0,0.0,0.0,0.0,0.0,0.0,0.0,0.0,0.0,0.0,0.0,0.0,0.0,0.0,0.0,0.0,0.0,0.0,0.0,0.0,0.0,0.0,0.0,0.0,0.0,0.0,0.0,0.0,0.0,0.0,0.0,0.0,0.0,0.0,0.0,0.0,0.0,0.0,0.0,0.0,0.0,0.0,0.0,0.0,0.0,0.0,0.0,0.0,0.0,0.0,0.0,0.0,0.0,0.0,0.0,0.0,0.0,0.0,0.0,0.0,0.0,0.0,0.0,0.0,0.0,0.0,0.0,0.0,0.0,0.0,0.0,0.0,0.0,0.0,0.0,0.0,0.0,0.0,0.0,0.0,0.0,0.0,0.0,0.0,0.0,0.0,0.0,0.0,0.0,0.0,0.0,0.0,0.0,0.0,0.0,0.0,0.0,0.0,0.0,0.0,0.0,0.0,0.0,0.0,0.0,0.0,0.0,0.0,0.0,0.0,0.0,0.0,0.0,0.0,0.0,0.0,0.0,0.0,0.0,0.0,0.0,0.0,0.0,0.0,0.0,0.0,0.0,0.0,0.0,0.0,0.0,0.0,0.0,0.0,0.0,0.0,0.0,0.0,0.0,0.0,0.0,0.0,0.0,0.0,0.0,0.0,0.0,0.0,0.0,0.0,0.0,0.0,0.0,0.0,0.0,0.0,0.0,0.0,0.0,0.0,0.0,0.0,0.0,0.0,0.0,0.0,0.0,0.0,0.0,0.0,0.0,0.0,0.0,0.0,0.0,0.0,0.0,0.0,0.0,0.0,0.0,0.0,0.0,0.0,0.0,0.0,0.0,0.0,0.0,0.0,0.0,0.0,0.0,0.0,0.0,0.0,0.0,0.0,0.0,0.0,0.0,0.0,0.0,0.0,0.0,0.0,0.0,0.0,0.0,0.0,0.0,0.0,0.0,0.0,0.0,0.0,0.0,0.0,0.0,0.0,0.0,0.0,0.0,0.0,0.0,0.0,0.0,0.0,0.0,0.0,0.0,0.0,0.0,0.0,0.0,0.0,0.0,0.0,0.0,0.0,0.0,0.0,0.0,0.0,0.0,0.0,0.0,0.0,0.0,0.0,0.0,0.0,0.0,0.0,0.0,0.0,0.0,0.0,0.0,0.0,0.0,0.0,0.0,0.0,0.0,0.0,0.0,0.0,0.0,0.0,0.0,0.0,0.0,0.0,0.0,0.0,0.0,0.0,0.0,0.0,0.0,0.0,0.0,0.0,0.0,0.0,0.0,0.0,0.0,0.0,0.0,0.0,0.0,0.0,0.0,0.0,0.0,0.0,0.0,0.0,0.0,0.0,0.0,0.0,0.0,0.0,0.0,0.0,0.6715,0.0,0.0,0.0,0.0,0.0,0.0,0.0,0.0,0.0,0.0,0.0,0.0,0.0,0.0,0.0,0.0,0.0,0.0,0.0,0.0,0.0,0.0,0.0,0.0,0.0,0.0,0.0,0.0,0.0,0.0,0.0,0.0,0.0,0.0,0.0,0.0,0.0,0.0,0.0,0.0,0.0,0.0,0.0,0.0,0.0,0.0,0.0,0.0,0.0,0.0,0.0,0.0,0.0,0.0,0.0,0.0,0.0,0.0,0.0,0.0,0.0,0.0,0.0,0.0,0.0,0.0,0.0,0.0,0.0,0.0,0.0,0.0,0.0,0.0,0.0,0.0,0.0,0.0,0.0,0.0,0.0,0.0,0.0,0.0,0.0,0.0,0.0,0.0,0.0,0.0,0.0,0.0,0.0,0.0,0.0,0.0,0.0,0.0,0.0,0.0,0.0,0.0,0.0,0.0,0.0,0.0,0.0,0.0,0.0,0.0,0.7121,0.7121,0.7121,0.6957,0.6715,0.0,0.0,0.0,0.0,0.0,0.0,0.0,0.0,0.0,0.0,0.0,0.0,0.0,0.0,0.0,0.0,0.0,0.0,0.0,0.0,0.0,0.0,0.0,0.0,0.0,0.0,0.0,0.0,0.0,0.0,0.0,0.0,0.0,0.0,0.0,0.0,0.0,0.0,0.0,0.0,0.0,0.0,0.0,0.0,0.0,0.0,0.0,0.0,0.0,0.0,0.0,0.0,0.0,0.0,0.0,0.0,0.0,0.0,0.0,0.0,0.0,0.0,0.0,0.0,0.0,0.0,0.0,0.0,0.0,0.0,0.0,0.0,0.0,0.0,0.0,0.0,0.0,0.0,0.0,0.0,0.0,0.0,0.0,0.0,0.0,0.0,0.0,0.0,0.0,0.0,0.0,0.0,0.0,0.0,0.0,0.0,0.0,0.0,0.0,0.0,0.0,0.0,0.0,0.0,0.0,0.0,0.0,0.0,0.0,0.0,0.0,0.0,0.7121,0.6979,0.6709,0.0,0.0,0.0,0.0,0.0,0.0,0.0,0.0,0.0,0.0,0.0,0.0,0.0,0.0,0.0,0.0,0.0,0.0,0.0,0.0,0.0,0.0,0.0,0.0,0.0,0.0,0.0,0.0,0.0,0.0,0.0,0.0,0.0,0.0,0.0,0.0,0.0,0.0,0.0,0.0,0.0,0.0,0.0,0.0,0.0,0.0,0.0,0.0,0.0,0.0,0.0,0.0,0.0,0.0,0.0,0.0,0.0,0.0,0.0,0.0,0.0,0.0,0.0,0.0,0.0,0.0,0.0,0.0,0.0,0.0,0.0,0.0,0.0,0.0,0.0,0.0,0.0,0.0,0.0,0.0,0.0,0.0,0.0,0.0,0.0,0.0,0.0,0.0,0.0,0.0,0.0,0.0,0.0,0.0,0.0,0.0,0.0,0.0,0.0,0.0,0.0,0.0,0.0,0.0,0.0,0.0,0.0,0.0,0.0,0.0,0.7121,0.7121,0.7114,0.0,0.6709,0.0,0.0,0.0,0.0,0.0,0.0,0.0,0.0,0.0,0.0,0.0,0.0,0.0,0.0,0.0,0.0,0.0,0.0,0.0,0.0,0.0,0.0,0.0,0.0,0.0,0.0,0.0,0.0,0.0,0.0,0.0,0.0,0.0,0.0,0.0,0.0,0.0,0.0,0.0,0.0,0.0,0.0,0.0,0.0,0.0,0.0,0.0,0.0,0.0,0.0,0.0,0.0,0.0,0.0,0.0,0.0,0.0,0.0,0.0,0.0,0.0,0.0,0.0,0.0,0.0,0.0,0.0,0.0,0.0,0.0,0.0,0.0,0.0,0.0,0.0,0.0,0.0,0.0,0.0,0.0,0.0,0.0,0.0,0.0,0.0,0.0,0.0,0.0,0.0,0.0,0.0,0.0,0.0,0.0,0.0,0.0,0.0,0.0,0.0,0.0,0.0,0.0,0.0,0.0,0.0,0.0,0.0,0.0,0.0,0.0,0.0,0.7121,0.6951,0.6824,0.0,0.0,0.0,0.0,0.0,0.0,0.0,0.0,0.0,0.0,0.0,0.0,0.0,0.0,0.0,0.0,0.0,0.0,0.0,0.0,0.0,0.0,0.0,0.0,0.0,0.0,0.0,0.0,0.0,0.0,0.0,0.0,0.0,0.0,0.0,0.0,0.0,0.0,0.0,0.0,0.0,0.0,0.0,0.0,0.0,0.0,0.0,0.0,0.0,0.0,0.0,0.0,0.0,0.0,0.0,0.0,0.0,0.0,0.0,0.0,0.0,0.0,0.0,0.0,0.0,0.0,0.0,0.0,0.0,0.0,0.0,0.0,0.0,0.0,0.0,0.0,0.0,0.0,0.0,0.0,0.0,0.0,0.0,0.0,0.0,0.0,0.0,0.0,0.0,0.0,0.0,0.0,0.0,0.0,0.0,0.0,0.0,0.0,0.0,0.0,0.0,0.0,0.0,0.0,0.0,0.0,0.0,0.0,0.0,0.0,0.7024,0.0,0.7085,0.683,0.6722,0.6702,0.0,0.0,0.0,0.0,0.0,0.0,0.0,0.0,0.0,0.0,0.0,0.0,0.0,0.0,0.0,0.0,0.0,0.0,0.0,0.0,0.0,0.0,0.0,0.0,0.0,0.0,0.0,0.0,0.0,0.0,0.0,0.0,0.0,0.0,0.0,0.0,0.0,0.0,0.0,0.0,0.0,0.0,0.0,0.0,0.0,0.0,0.0,0.0,0.0,0.0,0.0,0.0,0.0,0.0,0.0,0.0,0.0,0.0,0.0,0.0,0.0,0.0,0.0,0.0,0.0,0.0,0.0,0.0,0.0,0.0,0.0,0.0,0.0,0.0,0.0,0.0,0.0,0.0,0.0,0.0,0.0,0.0,0.0,0.0,0.0,0.0,0.0,0.0,0.0,0.0,0.0,0.0,0.0,0.0,0.0,0.0,0.0,0.0,0.0,0.0,0.0,0.0,0.0,0.0,0.0,0.0,0.0,0.0,0.0,0.7024,0.7121,0.7092,0.6837,0.6722,0.0,0.0,0.0,0.0,0.0,0.0,0.0,0.0,0.0,0.0,0.0,0.0,0.0,0.0,0.0,0.0,0.0,0.0,0.0,0.0,0.0,0.0,0.0,0.0,0.0,0.0,0.0,0.0,0.0,0.0,0.0,0.0,0.0,0.0,0.0,0.0,0.0,0.0,0.0,0.0,0.0,0.0,0.0,0.0,0.0,0.0,0.0,0.0,0.0,0.0,0.0,0.0,0.0,0.0,0.0,0.0,0.0,0.0,0.0,0.0,0.0,0.0,0.0,0.0,0.0,0.0,0.0,0.0,0.0,0.0,0.0,0.0,0.0,0.0,0.0,0.0,0.0,0.0,0.0,0.0,0.0,0.0,0.0,0.0,0.0,0.0,0.0,0.0,0.0,0.0,0.0,0.0,0.0,0.0,0.0,0.0,0.0,0.0,0.0,0.0,0.0,0.0,0.0,0.0,0.0,0.0,0.0,0.0,0.0,0.7033,0.7071,0.7121,0.7085,0.683,0.6722,0.0,0.0,0.0,0.0,0.0,0.0,0.0,0.0,0.0,0.0,0.0,0.0,0.0,0.0,0.0,0.0,0.0,0.0,0.0,0.0,0.0,0.0,0.0,0.0,0.0,0.0,0.0,0.0,0.0,0.0,0.0,0.0,0.0,0.0,0.0,0.0,0.0,0.0,0.0,0.0,0.0,0.0,0.0,0.0,0.0,0.0,0.0,0.0,0.0,0.0,0.0,0.0,0.0,0.0,0.0,0.0,0.0,0.0,0.0,0.0,0.0,0.0,0.0,0.0,0.0,0.0,0.0,0.0,0.0,0.0,0.0,0.0,0.0,0.0,0.0,0.0,0.0,0.0,0.0,0.0,0.0,0.0,0.0,0.0,0.0,0.0,0.0,0.0,0.0,0.0,0.0,0.0,0.0,0.0,0.0,0.0,0.0,0.0,0.0,0.0,0.0,0.0,0.0,0.0,0.0,0.0,0.0,0.0,0.0,0.7048,0.0,0.7106,0.0,0.6973,0.6797,0.0,0.0,0.0,0.0,0.0,0.0,0.0,0.0,0.0,0.0,0.0,0.0,0.0,0.0,0.0,0.0,0.0,0.0,0.0,0.0,0.0,0.0,0.0,0.0,0.0,0.0,0.0,0.0,0.0,0.0,0.0,0.0,0.0,0.0,0.0,0.0,0.0,0.0,0.0,0.0,0.0,0.0,0.0,0.0,0.0,0.0,0.0,0.0,0.0,0.0,0.0,0.0,0.0,0.0,0.0,0.0,0.0,0.0,0.0,0.0,0.0,0.0,0.0,0.0,0.0,0.0,0.0,0.0,0.0,0.0,0.0,0.0,0.0,0.0,0.0,0.0,0.0,0.0,0.0,0.0,0.0,0.0,0.0,0.0,0.0,0.0,0.0,0.0,0.0,0.0,0.0,0.0,0.0,0.0,0.0,0.0,0.0,0.0,0.0,0.0,0.0,0.0,0.0,0.0,0.0,0.0,0.0,0.0,0.6303,0.6966,0.6985,0.7122,0.7366,0.7188,0.695,0.0,0.0,0.0,0.0,0.0,0.0,0.0,0.0,0.0,0.0,0.0,0.0,0.0,0.0,0.0,0.0,0.0,0.0,0.0,0.0,0.0,0.0,0.0,0.0,0.0,0.0,0.0,0.0,0.0,0.0,0.0,0.0,0.0,0.0,0.0,0.0,0.0,0.0,0.0,0.0,0.0,0.0,0.0,0.0,0.0,0.0,0.0,0.0,0.0,0.0,0.0,0.0,0.0,0.0,0.0,0.0,0.0,0.0,0.0,0.0,0.0,0.0,0.0,0.0,0.0,0.0,0.0,0.0,0.0,0.0,0.0,0.0,0.0,0.0,0.0,0.0,0.0,0.0,0.0,0.0,0.0,0.0,0.0,0.0,0.0,0.0,0.0,0.0,0.0,0.0,0.0,0.0,0.0,0.0,0.0,0.0,0.0,0.0,0.0,0.0,0.0,0.0,0.0,0.0,0.0,0.0,0.0,0.0,0.0,0.6705,0.7006,0.7173,0.726,0.7159,0.7033,0.0,0.0,0.0,0.0,0.0,0.0,0.0,0.0,0.0,0.0,0.0,0.0,0.0,0.0,0.0,0.0,0.0,0.0,0.0,0.0,0.0,0.0,0.0,0.0,0.0,0.0,0.0,0.0,0.0,0.0,0.0,0.0,0.0,0.0,0.0,0.0,0.0,0.0,0.0,0.0,0.0,0.0,0.0,0.0,0.0,0.0,0.0,0.0,0.0,0.0,0.0,0.0,0.0,0.0,0.0,0.0,0.0,0.0,0.0,0.0,0.0,0.0,0.0,0.0,0.0,0.0,0.0,0.0,0.0,0.0,0.0,0.0,0.0,0.0,0.0,0.0,0.0,0.0,0.0,0.0,0.0,0.0,0.0,0.0,0.0,0.0,0.0,0.0,0.0,0.0,0.0,0.0,0.0,0.0,0.0,0.0,0.0,0.0,0.0,0.0,0.0,0.0,0.0,0.0,0.0,0.0,0.0,0.0,0.0,0.5408,0.6511,0.7257,0.7599,0.7456,0.7249,0.697,0.0,0.0,0.0,0.0,0.0,0.0,0.0,0.0,0.0,0.0,0.0,0.0,0.0,0.0,0.0,0.0,0.0,0.0,0.0,0.0,0.0,0.0,0.0,0.0,0.0,0.0,0.0,0.0,0.0,0.0,0.0,0.0,0.0,0.0,0.0,0.0,0.0,0.0,0.0,0.0,0.0,0.0,0.0,0.0,0.0,0.0,0.0,0.0,0.0,0.0,0.0,0.0,0.0,0.0,0.0,0.0,0.0,0.0,0.0,0.0,0.0,0.0,0.0,0.0,0.0,0.0,0.0,0.0,0.0,0.0,0.0,0.0,0.0,0.0,0.0,0.0,0.0,0.0,0.0,0.0,0.0,0.0,0.0,0.0,0.0,0.0,0.0,0.0,0.0,0.0,0.0,0.0,0.0,0.0,0.0,0.0,0.0,0.0,0.0,0.0,0.0,0.0,0.0,0.0,0.0,0.0,0.0,0.0,0.3442,0.556,0.7131,0.809,0.7903,0.7594,0.0,0.0,0.0,0.0,0.0,0.0,0.0,0.0,0.0,0.0,0.0,0.0,0.0,0.0,0.0,0.0,0.0,0.0,0.0,0.0,0.0,0.0,0.0,0.0,0.0,0.0,0.0,0.0,0.0,0.0,0.0,0.0,0.0,0.0,0.0,0.0,0.0,0.0,0.0,0.0,0.0,0.0,0.0,0.0,0.0,0.0,0.0,0.0,0.0,0.0,0.0,0.0,0.0,0.0,0.0,0.0,0.0,0.0,0.0,0.0,0.0,0.0,0.0,0.0,0.0,0.0,0.0,0.0,0.0,0.0,0.0,0.0,0.0,0.0,0.0,0.0,0.0,0.0,0.0,0.0,0.0,0.0,0.0,0.0,0.0,0.0,0.0,0.0,0.0,0.0,0.0,0.0,0.0,0.0,0.0,0.0,0.0,0.0,0.0,0.0,0.0,0.0,0.0,0.0,0.0,0.0,0.0,0.0,0.0,0.389,0.4193,0.5024,0.6479,0.7447,0.77,0.0,0.0,0.0,0.0,0.0,0.0,0.0,0.0,0.0,0.0,0.0,0.0,0.0,0.0,0.0,0.0,0.0,0.0,0.0,0.0,0.0,0.0,0.0,0.0,0.0,0.0,0.0,0.0,0.0,0.0,0.0,0.0,0.0,0.0,0.0,0.0,0.0,0.0,0.0,0.0,0.0,0.0,0.0,0.0,0.0,0.0,0.0,0.0,0.0,0.0,0.0,0.0,0.0,0.0,0.0,0.0,0.0,0.0,0.0,0.0,0.0,0.0,0.0,0.0,0.0,0.0,0.0,0.0,0.0,0.0,0.0,0.0,0.0,0.0,0.0,0.0,0.0,0.0,0.0,0.0,0.0,0.0,0.0,0.0,0.0,0.0,0.0,0.0,0.0,0.0,0.0,0.0,0.0,0.0,0.0,0.0,0.0,0.0,0.0,0.0,0.0,0.0,0.0,0.0,0.0,0.0,0.0,0.0,0.2144,0.2537,0.2772,0.337,0.431,0.5956,0.6994,0.0,0.0,0.0,0.0,0.0,0.0,0.0,0.0,0.0,0.0,0.0,0.0,0.0,0.0,0.0,0.0,0.0,0.0,0.0,0.0,0.0,0.0,0.0,0.0,0.0,0.0,0.0,0.0,0.0,0.0,0.0,0.0,0.0,0.0,0.0,0.0,0.0,0.0,0.0,0.0,0.0,0.0,0.0,0.0,0.0,0.0,0.0,0.0,0.0,0.0,0.0,0.0,0.0,0.0,0.0,0.0,0.0,0.0,0.0,0.0,0.0,0.0,0.0,0.0,0.0,0.0,0.0,0.0,0.0,0.0,0.0,0.0,0.0,0.0,0.0,0.0,0.0,0.0,0.0,0.0,0.0,0.0,0.0,0.0,0.0,0.0,0.0,0.0,0.0,0.0,0.0,0.0,0.0,0.0,0.0,0.0,0.0,0.0,0.0,0.0,0.0,0.0,0.0,0.0,0.0,0.0,0.0,0.0,0.0845,0.0438,0.1443,0.2068,0.226,0.4153,0.5835,0.0,0.0,0.0,0.0,0.0,0.0,0.0,0.0,0.0,0.0,0.0,0.0,0.0,0.0,0.0,0.0,0.0,0.0,0.0,0.0,0.0,0.0,0.0,0.0,0.0,0.0,0.0,0.0,0.0,0.0,0.0,0.0,0.0,0.0,0.0,0.0,0.0,0.0,0.0,0.0,0.0,0.0,0.0,0.0,0.0,0.0,0.0,0.0,0.0,0.0,0.0,0.0,0.0,0.0,0.0,0.0,0.0,0.0,0.0,0.0,0.0,0.0,0.0,0.0,0.0,0.0,0.0,0.0,0.0,0.0,0.0,0.0,0.0,0.0,0.0,0.0,0.0,0.0,0.0,0.0,0.0,0.0,0.0,0.0,0.0,0.0,0.0,0.0,0.0,0.0,0.0,0.0,0.0,0.0,0.0,0.0,0.0,0.0,0.0,0.0,0.0,0.0,0.0,0.0,0.0,0.0,0.0,0.0,0.0502,0.041,0.0445,0.1036,0.218,0.4122,0.5188,0.0,0.0,0.0,0.0,0.0,0.0,0.0,0.0,0.0,0.0,0.0,0.0,0.0,0.0,0.0,0.0,0.0,0.0,0.0,0.0,0.0,0.0,0.0,0.0,0.0,0.0,0.0,0.0,0.0,0.0,0.0,0.0,0.0,0.0,0.0,0.0,0.0,0.0,0.0,0.0,0.0,0.0,0.0,0.0,0.0,0.0,0.0,0.0,0.8384,0.0,0.0,0.0,0.0,0.0,0.0,0.0,0.0,0.0,0.0,0.0,0.0,0.0,0.0,0.0,0.0,0.0,0.0,0.0,0.0,0.0,0.0,0.0,0.0,0.0,0.0,0.0,0.0,0.0,0.0,0.0,0.0,0.0,0.0,0.0,0.0,0.0,0.0,0.0,0.0,0.0,0.0,0.0,0.0,0.0,0.0,0.0,0.0,0.0,0.0,0.0,0.0,0.0,0.0,0.0,0.0,0.0,0.0,0.0,0.0321,0.0221,0.0084,0.0364,0.1174,0.2426,0.3572,0.0,0.0,0.0,0.0,0.0,0.0,0.0,0.0,0.0,0.0,0.0,0.0,0.0,0.0,0.0,0.0,0.0,0.0,0.0,0.0,0.0,0.0,0.0,0.0,0.0,0.0,0.0,0.0,0.0,0.0,0.0,0.0,0.0,0.0,0.0,0.0,0.0,0.0,0.0,0.0,0.0,0.0,0.0,0.0,0.0,0.0,0.0,0.0,0.0,0.0,0.0,0.0,0.0,0.0,0.0,0.0,0.0,0.0,0.0,0.0,0.0,0.0,0.0,0.0,0.0,0.0,0.0,0.0,0.0,0.0,0.0,0.0,0.0,0.0,0.0,0.0,0.0,0.0,0.0,0.0,0.0,0.0,0.0,0.0,0.0,0.0,0.0,0.0,0.0,0.0,0.0,0.0,0.0,0.0,0.0,0.0,0.0,0.0,0.0,0.0,0.0,0.0,0.0,0.0,0.0,0.0,0.0,0.034,0.0217,0.0,0.0,0.0,0.0,0.0441,0.1719,0.3885,0.0,0.0,0.0,0.0,0.0,0.0,0.0,0.0,0.0,0.0,0.0,0.0,0.0,0.0,0.0,0.0,0.0,0.0,0.0,0.0,0.0,0.0,0.0,0.0,0.0,0.0,0.0,0.0,0.0,0.0,0.0,0.0,0.0,0.0,0.0,0.0,0.0,0.0,0.7902,0.8296,0.0,0.0,0.0,0.0,0.0,0.0,0.0,0.0,0.9065,0.0,0.0,0.0,0.0,0.0,0.0,0.0,0.0,0.0,0.0,0.0,0.0,0.0,0.0,0.0,0.0,0.0,0.0,0.0,0.0,0.0,0.0,0.0,0.0,0.0,0.0,0.0,0.0,0.0,0.0,0.0,0.0,0.0,0.0,0.0,0.0,0.0,0.0,0.0,0.0,0.0,0.0,0.0,0.0,0.0,0.0,0.0,0.0,0.0,0.0,0.0,0.0,0.0,0.0,0.0,0.0,0.005,0.0079,0.0054,0.0,0.0,0.0,0.0,0.0083,0.0646,0.1686,0.0,0.0,0.0,0.0,0.0,0.0,0.0,0.0,0.0,0.0,0.0,0.0,0.0,0.0,0.0,0.0,0.0,0.0,0.0,0.0,0.0,0.0,0.0,0.0,0.0,0.0,0.0,0.0,0.0,0.0,0.0,0.0,0.0,0.0,0.0,0.0,0.0,0.0,0.0,0.871,0.894,0.0,0.0,0.0,0.0,0.0,0.0,0.0,0.0,0.9809,0.0,0.0,0.0,0.0,0.0,0.0,0.0,0.0,0.0,0.0,0.0,0.0,0.0,0.0,0.0,0.0,0.0,0.0,0.0,0.0,0.0,0.0,0.0,0.0,0.0,0.0,0.0,0.0,0.0,0.0,0.0,0.0,0.0,0.0,0.0,0.0,0.0,0.0,0.0,0.0,0.0,0.0,0.0,0.0,0.0,0.0,0.0,0.0,0.0,0.0,0.0,0.0,0.0,0.0,0.0,0.0,0.0,0.0,0.0,0.0,0.0,0.0,0.0,0.0268,0.0,0.0,0.0,0.0,0.0,0.0,0.0,0.0,0.0,0.0,0.0,0.0,0.0,0.0,0.0,0.0,0.0,0.0,0.0,0.0,0.0,0.0,0.0,0.0,0.0,0.0,0.0,0.0,0.0,0.0,0.0,0.0,0.0,0.0,0.0,0.0,0.0,0.0,0.0,0.0,0.9,0.9273,0.9564,0.0,0.0,0.0,0.0,0.0,0.0,0.9602,0.9927,0.0,0.0,0.0,0.0,0.0,0.0,0.0,0.0,0.0,0.0,0.0,0.0,0.0,0.0,0.0,0.0,0.0,0.0,0.0,0.0,0.0,0.0,0.0,0.0,0.0,0.0,0.0,0.0,0.0,0.0,0.0,0.0,0.0,0.0,0.0,0.0,0.0,0.0,0.0,0.0,0.0,0.0,0.0,0.0,0.0,0.0,0.0,0.0,0.0,0.0,0.0,0.0,0.0,0.0,0.0,-0.0156,-0.0054,0.0,0.0,0.0,0.0,0.0,0.0,0.0133,0.0,0.0,0.0,0.0,0.0,0.0,0.0,0.0,0.0,0.0,0.0,0.0,0.0,0.0,0.0,0.0,0.0,0.0,0.0,0.0,0.0,0.0,0.0,0.0,0.0,0.0,0.0,0.0,0.0,0.0,0.0,0.0,0.0,0.0,0.0,0.0,0.0,0.0,0.0,0.0,0.0,0.9537,0.9792,0.9795,0.0,0.0,0.0,0.0,0.9517,0.9697,0.0,0.0,0.0,0.0,0.0,0.0,0.0,0.0,0.0,0.0,0.0,0.0,0.0,0.0,0.0,0.0,0.0,0.0,0.0,0.0,0.0,0.0,0.0,0.0,0.0,0.0,0.0,0.0,0.0,0.0,0.0,0.0,0.0,0.0,0.0,0.0,0.0,0.0,0.0,0.0,0.0,0.0,0.0,0.0,0.0,0.0,0.0,0.0,0.0,0.0,0.0,0.0,0.0,0.0,0.0,0.0,-0.0675,-0.0242,0.0,0.0,0.0,0.0,0.0,0.0,0.013,0.0,0.0,0.0,0.0,0.0,0.0,0.0,0.0,0.0,0.0,0.0,0.0,0.0,0.0,0.0,0.0,0.0,0.0,0.0,0.0,0.0,0.0,0.0,0.0,0.0,0.0,0.0,0.0,0.0,0.0,0.0,0.0,0.0,0.0,0.0,0.0,0.0,0.0,0.0,0.0,0.0,0.9686,0.9916,1.0127,1.0202,0.0,0.0,0.994,0.994,0.9958,0.0,0.0,0.0,0.0,0.0,0.0,0.0,0.0,0.0,0.0,0.0,0.0,0.0,0.0,0.0,0.0,0.0,0.0,0.0,0.0,0.0,0.0,0.0,0.0,0.0,0.0,0.0,0.0,0.0,0.0,0.0,0.0,0.0,0.0,0.0,0.0,0.0,0.0,0.0,0.0,0.0,0.0,0.0,0.0,0.0,0.0,0.0,0.0,0.0,0.0,0.0,0.0,0.0,0.0,0.0,-0.2131,-0.2234,-0.1605,-0.125,-0.1231,-0.0448,0.0,0.0,0.0,0.0052,0.0,0.0,0.0,0.0,0.0,0.0,0.0,0.0,0.0,0.0,0.0,0.0,0.0,0.0,0.0,0.0,0.0,0.0,0.0,0.0,0.0,0.0,0.0,0.0,0.0,0.0,0.0,0.0,0.0,0.0,0.0,0.0,0.0,0.0,0.0,0.0,0.0,0.0,0.0,0.0,0.0,0.0,1.0116,1.0304,0.0,0.0,0.0,1.0116,1.0004,0.0,0.0,0.0,0.0,0.0,0.0,0.0,0.0,0.0,0.0,0.0,0.0,0.0,0.0,0.0,0.0,0.0,0.0,0.0,0.0,0.0,0.0,0.0,0.0,0.0,0.0,0.0,0.0,0.0,0.0,0.0,0.0,0.0,0.0,0.0,0.0,0.0,0.0,0.0,0.0,0.0,0.0,0.0,0.0,0.0,0.0,0.0,0.0,0.0,0.0,0.0,0.0,0.0,0.0,0.0,0.0,0.0,-0.3689,-0.3104,-0.2766,-0.2738,-0.1316,-0.0553,-0.0537,-0.0187,0.0,0.0,0.0,0.0,0.0,0.0,0.0,0.0,0.0,0.0,0.0,0.0,0.0,0.0,0.0,0.0,0.0,0.0,0.0,0.0,0.0,0.0,0.0,0.0,0.0,0.0,0.0,0.2778,0.0,0.0,0.0,0.0,0.0,0.0,0.0,0.0,0.0,0.0,0.0,0.0,0.0,0.0,1.012,1.0304,1.0453,1.0548,0.0,0.0,1.0276,1.0103,0.9913,0.9794,0.0,0.0,0.0,0.0,0.0,0.0,0.0,0.0,0.0,0.0,0.0,0.0,0.0,0.0,0.0,0.0,0.0,0.0,0.0,0.0,0.0,0.0,0.0,0.0,0.0,0.0,0.0,0.0,0.0,0.0,0.0,0.0,0.0,0.0,0.0,0.0,0.0,0.0,0.0,0.0,0.0,0.0,0.0,0.0,0.0,0.0,0.0,0.0,0.0,0.0,0.0,0.0,0.0,0.0,0.0,-0.4563,-0.445,-0.4359,-0.4303,-0.285,-0.2051,-0.2017,-0.0698,0.0,0.0,0.0,0.0,0.0,0.0,0.0,0.0,0.0,0.0,0.0,0.0,0.0,0.0,0.0,0.0,0.0,0.0,0.0,0.0,0.0,0.0,0.0,0.0,0.0,0.0,0.0,0.0,0.0,0.0,0.0,0.0,0.0,0.0,0.0,0.0,0.0,0.0,0.0,0.0,0.0,0.0,1.0193,1.0439,1.0609,1.0704,0.0,0.0,1.0426,1.029,1.0012,0.9768,0.9648,0.0,0.0,0.0,0.0,0.0,0.0,0.0,0.0,0.0,0.0,0.0,0.0,0.0,0.0,0.0,0.0,0.0,0.0,0.0,0.0,0.0,0.0,0.0,0.0,0.0,0.0,0.0,0.0,0.0,0.0,0.0,0.0,0.0,0.0,0.0,0.0,0.0,0.0,0.0,0.0,0.0,0.0,0.0,0.0,0.0,0.0,0.0,0.0,0.0,0.0,0.0,0.0,0.0,-0.5736,-0.6289,-0.6014,-0.5862,-0.5806,-0.4383,-0.3163,-0.2212,-0.1655,-0.0927,0.0,0.0,0.0,0.0,0.0,0.0,0.0,0.0,0.0,0.0,0.0,0.0,0.0,0.0,0.0,0.0,0.0,0.0,0.0,0.0,0.0,0.0,0.0,0.0,0.0,0.0,0.0,0.0,0.0858,0.0905,0.1098,0.0,0.0,0.0,0.0,0.0,0.0,0.0,0.0,0.0,0.0,1.0365,1.0506,1.0541,0.0,0.0,1.0588,1.0446,1.0304,1.01,0.9852,0.9646,0.9523,0.0,0.0,0.0,0.0,0.0,0.0,0.0,0.0,0.0,0.0,0.0,0.0,0.0,0.0,0.0,0.0,0.0,0.0,0.0,0.0,0.0,0.0,0.0,0.0,0.0,0.0,0.0,0.0,0.0,0.0,0.0,0.0,0.0,0.0,0.0,0.0,0.0,0.0,0.0,0.0,0.0,0.0,0.0,0.0,0.0,0.0,0.0,0.0,0.0,0.0,0.0,0.0,-0.7029,-0.7539,-0.7411,-0.7343,-0.7343,-0.5922,-0.464,-0.3573,-0.268,-0.1718,0.0,0.0,0.0,0.0,0.0,0.0,0.0,0.0,0.0,0.0,0.0,0.0,0.0,0.0,0.0,0.0,0.0,0.0,0.0,0.0,0.0,0.0,0.0,0.0,0.0,0.0,0.0,0.0,0.0325,0.0442,0.086,0.0,0.0,0.0,0.0,0.0,0.0,0.0,0.0,0.0,0.0,1.0561,1.0561,1.0561,1.0602,1.0671,1.0588,1.046,1.039,1.0109,0.9893,0.9768,0.0,0.0,0.0,0.0,0.0,0.0,0.0,0.0,0.0,0.0,0.0,0.0,0.0,0.0,0.0,0.0,0.0,0.0,0.0,0.0,0.0,0.0,0.0,0.0,0.0,0.0,0.0,-0.7611,0.0,0.0,-0.7416,0.0,0.0,0.0,0.0,0.0,0.0,0.0,0.0,0.0,0.0,0.0,0.0,0.0,0.0,0.0,0.0,0.0,0.0,0.0,0.0,0.0,0.0,-0.7478,-0.8065,-0.8539,-0.883,-0.8802,-0.7399,-0.6589,-0.6412,-0.374,-0.2183,-0.2096,0.0,0.0,0.0,0.0,0.0,0.0,0.0,0.0,0.0,0.0,0.0,0.0,0.0,0.0,0.0,0.0,0.0,0.0,0.0,0.0,0.0,0.0,0.0,0.0,0.0,0.0,0.0355,0.0167,0.0254,0.0,0.0,0.0,0.0,0.0,0.0,0.0,0.0,0.0,0.0,1.0188,1.0684,1.0684,1.0677,1.0671,1.0717,1.0595,1.0487,1.0487,1.012,0.9846,0.0,0.0,0.0,0.0,0.0,0.0,0.0,0.0,0.0,0.0,0.0,0.0,0.0,0.0,0.0,0.0,0.0,0.0,0.0,0.0,0.0,0.0,0.0,0.0,0.0,0.0,0.0,-0.8201,-0.833,0.0,0.0,0.0,0.0,0.0,0.0,0.0,0.0,0.0,0.0,0.0,-0.8478,-0.8455,0.0,0.0,0.0,0.0,0.0,0.0,0.0,0.0,0.0,0.0,0.0,0.0,-0.7579,-0.7987,-0.8586,-0.8912,-0.8878,-0.7454,-0.6228,-0.525,-0.3279,-0.1739,-0.0765,0.0,0.0,0.0,0.0,0.0,0.0,0.0,0.0,0.0,0.0,0.0,0.0,0.0,0.0,0.0,0.0,0.0,0.0,0.0,0.0,0.0,0.0,0.0,0.0,0.0,0.0027,0.0,0.0,0.0,0.0,0.0,0.0,0.0,0.0,0.0,0.0,0.0,0.9547,1.0098,1.0538,1.084,1.084,1.0697,1.0602,0.0,0.0,0.0,0.0,0.0,0.0,0.0,0.0,0.0,0.0,0.0,0.0,0.0,0.0,1.0459,1.0546,1.0547,1.0576,1.0576,0.0,0.0,0.0,0.0,0.0,0.0,0.0,0.0,0.0,0.0,0.0,0.0,0.0,0.0,-0.8764,0.0,-0.8784,0.0,0.0,0.0,0.0,0.0,0.0,0.0,0.0,-0.9293,-0.9328,-0.9163,-0.91,-0.8967,0.0,-0.8478,-0.7884,0.0,0.0,0.0,0.0,0.0,0.0,0.0,0.0,-0.7775,-0.8062,-0.8612,-0.8912,-0.8857,-0.7454,-0.6228,-0.5254,-0.3268,-0.1499,0.0,0.0,0.0,0.0,0.0,0.0,0.0,0.0,0.0,0.0,0.0,0.0,0.0,0.0,0.0,0.0,0.0,0.0,0.0,0.0,0.0,0.0,0.0,0.0,0.0,0.0,0.0,0.0,0.0,0.0,0.0,0.0,0.0,0.0,0.0,0.0,0.7804,0.9154,1.0192,1.0491,1.0818,1.0968,1.0921,0.0,0.0,0.0,0.0,0.0,0.0,0.0,1.046,1.0403,1.0351,1.0403,1.0426,1.0555,1.0622,1.0527,0.0,0.0,1.0578,1.0571,1.0571,1.054,1.0583,1.0621,1.0514,1.0542,1.0564,0.0,0.0,0.0,0.0,0.0,0.0,0.0,0.0,-0.9356,-0.9335,0.0,-0.9234,0.0,0.0,0.0,0.0,0.0,-0.9252,0.0,0.0,-0.9673,-0.9747,-0.9589,-0.9582,-0.9582,-0.9598,-0.9342,-0.9051,-0.8763,-0.789,0.0,0.0,0.0,0.0,0.0,0.0,-0.7954,-0.8189,-0.8502,-0.874,-0.8657,-0.7288,-0.6478,-0.6311,-0.3603,-0.1416,0.0,0.0,0.0,0.0,0.0,0.0,0.0,0.0,0.0,0.0,0.0,0.0,0.0,0.0,0.0,0.0,0.0,0.0,0.0,0.0,0.0,0.0,0.0,0.0,0.0,0.0,0.0,0.0,0.0,0.0,0.0,0.0,0.0,0.0,0.0,0.0,0.8043,0.9627,1.0688,1.066,0.0,0.0,0.0,0.0,1.0724,1.0698,1.0724,1.0717,1.0717,1.0595,1.05,1.05,0.0,0.0,1.0657,1.0813,1.0914,1.0914,1.105,1.1023,1.0451,1.0388,1.0356,1.0356,1.049,1.054,1.0514,1.0608,1.0676,-0.9808,0.0,0.0,0.0,0.0,-0.9279,-0.9456,-0.9788,-0.969,-0.9673,-0.9632,-0.9632,0.0,0.0,0.0,0.0,0.0,0.0,-0.9544,-0.9551,-0.9734,-0.9771,-0.9731,-0.9731,-0.9761,-0.9754,-0.9564,-0.9453,-0.9293,-0.7812,-0.6935,-0.6669,0.0,0.0,0.0,0.0,-0.6027,-0.6786,-0.6158,-0.5755,-0.575,-0.4272,-0.2961,-0.193,-0.1092,-0.0419,0.0,0.0,0.0,0.0,0.0,0.0,0.0,0.0,0.0,0.0,0.0,0.0,0.0,0.0,0.0,0.0,0.0,0.0,0.0,0.0,0.0,0.0,0.0,0.0,0.0,0.0,0.0,0.0,0.0,0.0,0.0,0.0,0.0,0.0,0.0,0.0,0.8692,0.9975,1.0905,0.0,0.0,1.1314,1.1267,1.1009,1.0846,1.0846,1.0759,0.0,1.0717,1.0683,1.0623,1.0656,1.0623,1.067,1.0711,1.0928,1.1063,1.0934,1.1158,1.1233,1.1016,1.0941,1.0941,1.0948,1.0975,1.0934,1.0813,1.0826,1.084,-1.0575,-1.009,-0.9774,-0.9734,-0.9863,-0.9774,-0.9924,-1.0184,-1.0096,-1.0055,-1.0055,-1.0032,-0.9839,-0.9646,-0.9646,0.0,0.0,0.0,-0.9842,-0.9758,-0.9839,-0.9846,-0.9792,-0.9792,-0.9792,-0.9785,-0.9734,-0.9357,-0.872,-0.7331,-0.6183,-0.5362,0.0,0.0,-0.5343,-0.4735,-0.4726,-0.5329,-0.4804,-0.4498,-0.447,-0.2989,-0.1482,0.0,0.0,0.0,0.0,0.0,0.0,0.0,0.0,0.0,0.0,0.0,0.0,0.0,0.0,0.0,0.0,0.0,0.0,0.0,0.0,0.0,0.0,0.0,0.0,0.0,0.0,0.0,0.0,0.0,0.0,0.0,0.0,0.0,0.0,0.0,0.0,0.4137,0.5402,0.6998,0.9396,1.0411,1.1048,1.1534,1.1491,1.1431,1.1431,0.0,1.088,1.088,1.0786,1.0717,1.0717,1.0717,1.0717,1.0717,1.0717,1.0711,1.0779,1.1009,1.1179,1.1158,1.1321,1.145,1.1362,1.1341,1.1329,1.1227,1.1247,1.1254,1.1138,1.1137,1.1151,-1.1234,-1.1172,-1.0414,-1.0197,-1.0363,-1.0331,-1.0399,-1.0507,-1.0507,-1.05,-1.0512,-1.039,-1.0209,-1.0035,-1.0035,0.0,-1.0042,-1.0215,-1.0195,-1.0004,-1.0021,-0.994,-0.9842,-0.9798,-0.9792,-0.9792,-0.9663,-0.8867,-0.7413,-0.6443,-0.508,-0.3367,-0.3561,-0.3649,-0.3591,-0.3692,-0.3801,-0.3854,-0.4024,-0.4108,-0.4108,-0.2766,-0.1371,0.0,0.0,0.0,0.0,0.0,0.0,0.0,0.0,0.0,0.0,0.0,0.0,0.0,0.0,0.0,0.0,0.0,0.0,0.0,0.0,0.0,0.0,0.0,0.0,0.0,0.0,0.0,0.0,0.0,0.0,0.0,0.0,0.0102,0.0413,0.0593,0.1833,0.4813,0.0,0.0,1.0113,1.0786,1.1152,1.1548,1.1497,1.1409,1.1409,1.1158,1.0928,1.0941,1.0792,1.0724,1.0717,1.0717,1.0731,1.0744,1.0731,1.0738,1.088,1.1063,1.1247,1.1348,1.1511,1.1577,1.1577,1.1563,1.1531,1.126,1.1314,1.1409,1.1402,1.1491,1.1497,-1.1511,-1.1484,-1.1192,-1.0962,-1.0759,-1.0752,-1.0711,-1.0663,-1.067,-1.0602,-1.0493,-1.0453,-1.0365,-1.0222,-1.0222,-1.0222,-1.0229,-1.0295,-1.0263,-1.0215,-1.0076,-0.997,-0.9961,-0.9846,-0.9792,-0.9724,-0.8556,-0.7789,-0.7266,-0.4682,-0.3165,-0.2678,-0.1523,-0.1703,-0.3139,-0.217,-0.1958,-0.2626,-0.1595,-0.1064,-0.1064,-0.07,-0.0336,0.0,0.0,0.0,0.0,0.0,0.0,0.0,0.0,0.0,0.0,0.0,0.0,0.0,0.0,0.0,0.0,0.0,0.0,0.0,0.0,0.0,0.0,0.0,0.0,0.0,0.0,0.0,0.0,0.0,0.0,0.0,0.0,0.0035,0.0106,0.1419,0.2961,0.4621,0.6433,0.8282,1.0233,1.0786,1.1152,1.1548,1.155,1.1565,1.1552,1.1307,1.1111,1.1118,1.0894,1.0724,1.0724,1.0717,1.0758,1.084,1.0765,1.0745,1.0887,1.1063,1.1247,1.1369,1.1518,1.1606,1.1584,1.1584,1.1599,1.1531,1.1509,1.1529,1.1565,1.1556,1.1565,-1.1584,-1.1613,-1.1531,-1.1362,-1.1103,-1.0968,-1.0867,-1.0786,-1.0718,-1.0637,-1.0562,-0.9762,-0.9353,-0.9228,-0.8475,-0.8112,-0.8117,-0.8112,-0.8053,-0.7969,-0.7854,-0.7802,-0.7744,-0.7634,-0.7612,-0.7581,-0.6721,-0.5923,-0.5158,-0.3382,-0.2115,-0.1399,-0.0453,-0.0568,-0.1643,-0.0896,-0.0745,-0.1202,-0.0427,0.0,0.0,0.0,0.0,0.0,0.0,0.0,0.0,0.0,0.0,0.0,0.0,0.0,0.0,0.0,0.0,0.0,0.0,0.0,0.0,0.0,0.0,0.0,0.0,0.0,0.0,0.0,0.0,0.0,0.0,0.0,0.0,0.0,0.0,0.0,0.0,0.032,0.1187,0.2231,0.3819,0.6199,0.7584,0.9033,1.0743,1.1145,1.1332,1.1584,1.1584,1.1584,1.1556,1.1397,1.12,1.1186,1.0968,1.0792,1.0786,1.0732,1.0744,1.0786,1.0745,1.0792,1.1002,1.1104,1.1268,1.1443,1.1565,1.1584,1.1584,1.1584,1.1584,1.1584,1.1584,1.1584,1.1584,1.1565,1.1484,-1.1584,-1.1584,-1.1584,-1.1545,-1.1402,-1.109,-1.0948,-1.0873,-1.0538,-1.0266,-0.9915,-0.8368,-0.7664,-0.7564,-0.6064,-0.5399,-0.5399,-0.5399,-0.5295,-0.5162,-0.512,-0.5046,-0.4941,-0.4902,-0.4926,-0.4889,-0.4702,-0.3873,-0.2524,-0.231,-0.1449,0.0,0.0,0.0,0.0,0.0,0.0,0.0,0.0,0.0,0.0,0.0,0.0,0.0,0.0,0.0,0.0,0.0,0.0,0.0,0.0,0.0,0.0,0.0,0.0,0.0,0.0,0.0,0.0,0.0,0.0,0.0,0.0,0.0,0.0,0.0,0.0,0.0,0.0,0.0,0.0,0.0,0.0106,0.0,0.0359,0.1115,0.3012,0.3488,0.4936,0.8338,0.892,0.9754,1.1289,1.1584,1.1584,1.1584,1.1584,1.1584,1.1556,1.1362,1.12,1.1193,1.1043,1.088,1.0955,1.0853,1.0806,1.0779,1.0812,1.0873,1.1186,1.1227,1.1322,1.1538,1.1613,1.1584,1.1584,1.1584,1.1584,1.1584,1.1563,1.1543,1.1572,1.1518,1.1416,-1.1584,-1.1584,-1.1584,-1.1563,-1.1558,-1.1382,-1.1137,-1.0812,-0.9374,-0.7853,-0.6402,-0.6064,-0.5897,-0.5863,-0.5563,-0.5399,-0.5399,-0.5399,-0.5355,-0.5338,-0.5198,-0.5091,-0.505,-0.4941,-0.4909,-0.4828,-0.3597,-0.28,-0.2462,-0.1141,-0.0308,0.0,0.0,0.0,0.0,0.0,0.0,0.0,0.0,0.0,0.0,0.0,0.0,0.0,0.0,0.0,0.0,0.0,0.0,0.0,0.0,0.0,0.0,0.0,0.0,0.0,0.0,0.0,0.0,0.0,0.0,0.0,0.0,0.0,0.0,0.0,0.0,0.0,0.0,0.0,0.0,0.0,0.0652,0.2138,0.2355,0.3117,0.5011,0.6604,0.7941,0.8559,1.0089,1.1145,1.1512,1.1584,1.1584,1.1584,1.1584,1.1584,1.159,1.1369,1.1206,1.1186,1.1056,1.1016,1.1274,1.12,1.1125,1.1247,1.1186,1.1151,1.1294,1.1341,1.1396,1.1586,1.1584,1.1584,1.1584,1.1584,1.1577,1.1584,1.1525,1.1436,1.1436,1.1511,1.1504,-1.1584,0.0,-1.1584,-1.1584,0.0,-1.0483,-0.9941,-0.9648,-0.8733,-0.7193,-0.5366,-0.4459,-0.4057,-0.4024,-0.3121,-0.2752,-0.2752,-0.2719,-0.2719,-0.2749,-0.2613,-0.2586,-0.2566,-0.2499,-0.2494,-0.2429,-0.1652,-0.1242,-0.1233,-0.0432,0.0,0.0,0.0,0.0,0.0,0.0,0.0,0.0,0.0,0.0,0.0,0.0,0.0,0.0,0.0,0.0,0.0,0.0,0.0,0.0,0.0,0.0,0.0,0.0,0.0,0.0,0.0,0.0,0.0,0.0,0.0,0.0,0.0,0.0,0.0,0.0,0.0,0.0,0.0,0.0398,0.131,0.142,0.2219,0.4032,0.4322,0.5084,0.693,0.8085,0.9069,1.0047,1.1002,1.1584,1.1584,1.1651,1.1651,1.1604,1.1748,1.1803,1.1685,1.1531,1.1389,1.1375,1.1185,1.1131,1.1321,1.1302,1.122,1.1281,1.1247,1.1268,1.1369,1.1431,1.1443,1.1543,1.1584,1.1584,1.1584,1.1584,1.1556,1.1525,1.145,1.1328,1.1185,1.1198,1.1266,-1.1584,-1.1584,-1.1584,-1.1404,-1.0959,-0.9357,-0.8239,-0.7522,0.0,0.0,0.0,-0.2887,-0.2216,-0.2116,-0.0639,0.0,0.0,0.0,0.0,0.0,0.0,0.0,0.0,0.0,0.0,0.0,0.0,0.0,0.0,0.0,0.0,0.0,0.0,0.0,0.0,0.0,0.0,0.0,0.0,0.0,0.0,0.0,0.0,0.0,0.0,0.0,0.0,0.0,0.0,0.0,0.0,0.0,0.0,0.0,0.0,0.0,0.0,0.0,0.0,0.0,0.0,0.0,0.0,0.0,0.0,0.0,0.0,0.0,0.0,0.0656,0.2219,0.2727,0.3669,0.5591,0.6098,0.7074,0.8884,0.9213,0.9903,1.1289,1.1548,1.1597,1.1624,1.1692,1.1746,1.1742,1.187,1.2013,1.1904,1.1698,1.1592,1.1565,1.1362,1.1295,1.1375,1.1348,1.1281,1.1315,1.1302,1.1287,1.1389,1.143,1.1484,1.1592,1.1584,1.1584,1.1584,1.1584,1.1579,1.1457,1.1417,1.128,1.1022,1.0934,1.1016,-1.1584,-1.1584,-1.1584,-1.0635,-0.9069,-0.8812,-0.6805,-0.3732,-0.3568,-0.2449,-0.074,-0.0505,-0.037,-0.037,-0.0135,0.0,0.0,0.0,0.0,0.0,0.0,0.0,0.0,0.0,0.0,0.0,0.0,0.0,0.0,0.0,0.0,0.0,0.0,0.0,0.0,0.0,0.0,0.0,0.0,0.0,0.0,0.0,0.0,0.0,0.0,0.0,0.0,0.0,0.0,0.0,0.0,0.0,0.0,0.0,0.0,0.0,0.0,0.0,0.0,0.0,0.0,0.0,0.0,0.0,0.0,0.0,0.0,0.0,0.0,0.0073,0.051,0.211,0.3923,0.5736,0.7368,0.9069,1.0851,1.1074,1.1181,1.1548,1.1584,1.1631,1.1726,1.1728,1.1769,1.1918,1.1952,1.1959,1.2101,1.187,1.1647,1.1599,1.147,1.1436,1.1525,1.1572,1.1531,1.1558,1.1531,1.1525,1.1558,1.1565,1.1579,1.1577,1.1584,1.1584,1.1584,1.1584,1.1563,1.1545,1.1382,1.1234,1.1159,1.1043,1.0988,-1.0995,-1.0083,-1.0011,-0.8889,-0.7038,-0.5986,-0.3965,-0.1392,-0.127,-0.0798,0.0,0.0,0.0,0.0,0.0,0.0,0.0,0.0,0.0,0.0,0.0,0.0,0.0,0.0,0.0,0.0,0.0,0.0,0.0,0.0,0.0,0.0,0.0,0.0,0.0,0.0,0.0,0.0,0.0,0.0,0.0,0.0,0.0,0.0,0.0,0.0,0.0,0.0,0.0,0.0,0.0,0.0,0.0,0.0,0.0,0.0,0.0,0.0,0.0,0.1003,0.2026,0.3018,0.3165,0.3128,0.3128,0.2183,0.2002,0.3019,0.3163,0.3599,0.4576,0.5515,0.6821,0.8745,0.9795,1.0629,1.1361,1.1584,1.1584,1.1584,1.1584,1.1638,1.178,1.1843,1.1891,1.2084,1.2054,1.2162,1.2366,1.2169,1.1945,1.1864,1.1728,1.1626,1.159,1.1584,1.1584,1.1584,1.1584,1.1584,1.1584,1.1584,1.1584,1.1584,1.1584,1.1584,1.1584,1.1584,1.155,1.1491,1.1402,1.1308,1.1227,1.1165,1.1219,-0.9858,-0.8051,-0.8059,-0.693,-0.5011,-0.309,-0.1375,0.0,0.0,0.0,0.0,0.0,0.0,0.0,0.0,0.0,0.0,0.0,0.0,0.0,0.0,0.0,0.0,0.0,0.0,0.0,0.0,0.0,0.0,0.0,0.0,0.0,0.0,0.0,0.0,0.0,0.0,0.0,0.0,0.0,0.0,0.0,0.0,0.0,0.0,0.0,0.0,0.0,0.0,0.0,0.0,0.0,0.0,0.0,0.0204,0.0551,0.0657,0.084,0.1324,0.2676,0.4213,0.5627,0.5812,0.5989,0.6279,0.5117,0.4576,0.5627,0.5627,0.6279,0.7436,0.8338,0.9332,1.0817,1.1381,1.1581,1.1708,1.1658,1.1651,1.1708,1.1721,1.1782,1.1911,1.2006,1.2104,1.2159,1.2244,1.2379,1.2467,1.24,1.2284,1.2166,1.1959,1.1796,1.1644,1.1633,1.1584,1.1584,1.1584,1.1584,1.1584,1.1584,1.1584,1.1584,1.1584,1.1584,1.1584,1.1584,1.1579,1.1491,1.1416,1.1383,1.1295,1.1336,1.1402,-0.809,-0.6201,-0.6061,-0.4939,-0.3018,-0.1129,0.0,0.0,0.0,0.0,0.0,0.0,0.0,0.0,0.0,0.0,0.0,0.0,0.0,0.0,0.0,0.0,0.0,0.0,0.0,0.0,0.0,0.0,0.0,0.0,0.0,0.0,0.0,0.0,0.0,0.0,0.0,0.0,0.0,0.0,0.0,0.0,0.0,0.0,0.0,0.0,0.0,0.0,0.0,0.0,0.0,0.0,0.0,0.0,0.0827,0.2479,0.2612,0.3359,0.503,0.5443,0.5663,0.5772,0.5989,0.6713,0.8234,0.8234,0.7436,0.646,0.5917,0.6242,0.617,0.7797,0.9034,0.9604,1.0782,1.1721,1.1968,1.1898,1.1827,1.205,1.2023,1.2074,1.2169,1.2186,1.2173,1.2257,1.2372,1.2467,1.2488,1.2481,1.242,1.2264,1.2033,1.182,1.1759,1.1658,1.1611,1.159,1.1584,1.1584,1.1584,1.1584,1.1584,1.1584,1.1584,1.1584,1.1584,1.1584,1.1577,1.1572,1.1484,1.1396,1.1375,1.1389,1.145,-0.5974,-0.4118,-0.4096,-0.2963,-0.1179,-0.0329,0.0,0.0,0.0,0.0,0.0,0.0,0.0,0.0,0.0,0.0,0.0,0.0,0.0,0.0,0.0,0.0,0.0,0.0,0.0,0.0,0.0,0.0,0.0,0.0,0.0,0.0,0.0,0.0,0.0,0.0,0.0,0.0,0.0,0.0,0.0,0.0,0.0,0.0,0.0,0.0,0.0,0.0,0.0,0.0,0.1086,0.1712,0.1735,0.2774,0.3799,0.4556,0.4613,0.545,0.7363,0.7508,0.8018,0.9147,0.9219,0.9615,1.0305,1.0413,1.0053,0.9399,0.9219,0.9219,0.9219,0.9945,1.0468,1.0687,1.1338,1.183,1.2064,1.205,1.2036,1.2091,1.2098,1.2159,1.2295,1.2349,1.2345,1.2406,1.2474,1.2501,1.2501,1.2501,1.2481,1.2406,1.223,1.2033,1.1847,1.1753,1.1678,1.1611,1.1584,1.1584,1.1626,1.1584,1.1584,1.1584,1.1584,1.1584,1.1584,1.1584,1.1584,1.1563,1.1563,1.1525,1.1525,1.1525,1.1558,-0.3968,-0.2251,-0.2123,-0.1277,0.0,0.0,0.0,0.0,0.0,0.0,0.0,0.0,0.0,0.0,0.0,0.0,0.0,0.0,0.0,0.0,0.0,0.0,0.0,0.0,0.0,0.0,0.0,0.0,0.0,0.0,0.0,0.0,0.0471,0.0775,0.0844,0.1237,0.154,0.0,0.158,0.1581,0.0,0.1599,0.1085,0.0164,0.0524,0.0792,0.0799,0.1303,0.1587,0.0,0.2963,0.3709,0.3757,0.5054,0.6035,0.6614,0.717,0.8024,0.9479,0.9579,1.0208,1.1464,1.1681,1.1624,1.159,1.1584,1.1584,1.1476,1.1584,1.1476,1.1584,1.1617,1.1685,1.178,1.1793,1.1904,1.2094,1.2166,1.2179,1.2213,1.2247,1.2216,1.2332,1.2427,1.2488,1.2494,1.2494,1.2501,1.2501,1.2501,1.2501,1.2501,1.2406,1.225,1.1969,1.1881,1.1843,1.1775,1.1735,1.1687,1.1667,1.1617,1.1584,1.1584,1.1584,1.1584,1.1584,1.1584,1.1584,1.1584,1.1613,1.1613,1.1563,1.1613,1.1613,-0.2176,-0.0274,0.0,0.0,0.0,0.0,0.0,0.0,0.0,0.0,0.0,0.0,0.0,0.0,0.0,0.0,0.0,0.0,0.0,0.0,0.0,0.0,0.0,0.0,0.0,0.0,0.0,0.0,0.0,0.0,0.0,0.0,0.1819,0.2672,0.294,0.4271,0.5327,0.5106,0.514,0.5358,0.5396,0.539,0.36,0.0877,0.1834,0.2765,0.2943,0.4529,0.5431,0.5472,0.5583,0.5687,0.5721,0.5873,0.6844,0.8513,1.0341,1.1414,1.1544,1.163,1.1767,1.18,1.1753,1.1726,1.1617,1.1604,1.1604,1.159,1.1624,1.1631,1.1633,1.1671,1.1753,1.1786,1.1793,1.1965,1.2244,1.2257,1.2345,1.2427,1.244,1.244,1.2474,1.2494,1.2501,1.2501,1.2501,1.2501,1.2501,1.2501,1.2501,1.2501,1.2481,1.2433,1.2284,1.2135,1.2091,1.2002,1.1857,1.1766,1.1732,1.1692,1.1631,1.1584,1.1584,1.1584,1.1584,1.1584,1.1584,1.1584,1.1584,1.1584,1.1584,1.1584,1.1584,-0.0767,0.0,0.0,0.0,0.0,0.0,0.0,0.0,0.0,0.0,0.0,0.0,0.0,0.0,0.0,0.0,0.0,0.0,0.0,0.0,0.0,0.0,0.0,0.0,0.0748,0.1719,0.1861,0.2514,0.362,0.3719,0.3719,0.3753,0.4335,0.4727,0.4892,0.5486,0.5877,0.5937,0.5937,0.5997,0.6176,0.5915,0.5143,0.4163,0.4498,0.475,0.4747,0.5431,0.5813,0.5796,0.7052,0.7773,0.7906,0.9076,1.0095,1.0847,1.1575,1.1979,1.1972,1.1938,1.1891,1.18,1.1712,1.1698,1.1712,1.1719,1.1719,1.1746,1.1952,1.1938,1.1651,1.1631,1.1735,1.1773,1.18,1.1915,1.2203,1.2291,1.2345,1.2467,1.2501,1.2501,1.2501,1.2501,1.2501,1.2501,1.2501,1.2501,1.2501,1.2501,1.2501,1.2501,1.2501,1.2481,1.2447,1.2305,1.2182,1.2054,1.1945,1.1827,1.178,1.1678,1.1633,1.164,1.164,1.1584,1.1584,1.1584,1.1584,1.1584,1.1584,1.1584,1.1584,1.1584,1.1584,0.0,0.0,0.0,0.0,0.0,0.0,0.0,0.0,0.0,0.0,0.0,0.0,0.0,0.0,0.0,0.044,0.0843,0.0,0.0,0.0965,0.0998,0.1364,0.199,0.2027,0.2702,0.3808,0.3937,0.4616,0.5667,0.5852,0.5852,0.5757,0.6372,0.6737,0.6819,0.7367,0.778,0.7835,0.7854,0.7977,0.8115,0.7944,0.7935,0.8106,0.794,0.7496,0.6973,0.7496,0.7831,0.8008,0.9211,0.9919,1.0079,1.1293,1.2098,1.2104,1.2145,1.2173,1.2173,1.2081,1.2033,1.1986,1.1898,1.1834,1.1911,1.1904,1.1904,1.1952,1.2067,1.2067,1.1843,1.1721,1.1678,1.1732,1.1766,1.1932,1.2176,1.2257,1.2352,1.2467,1.2501,1.2501,1.2501,1.2501,1.2501,1.2501,1.2501,1.2501,1.2501,1.2501,1.2501,1.2501,1.2501,1.2501,1.2481,1.24,1.2352,1.2244,1.2047,1.1952,1.1847,1.1755,1.166,1.1667,1.1653,1.1626,1.1584,1.1584,1.1584,1.1584,1.1584,1.1584,1.1584,1.1584,1.1584,0.0,0.0,0.0,0.0,0.0,0.0,0.0,0.0,0.0,0.0,0.0,0.0,0.0,0.0,0.0,0.1225,0.2596,0.145,0.16,0.3016,0.3117,0.4108,0.5685,0.5616,0.5835,0.6291,0.6202,0.6134,0.6372,0.6575,0.654,0.6469,0.803,0.8794,0.8763,1.0179,1.1256,1.1295,1.1244,1.1536,1.1996,1.1635,1.1517,1.1718,1.1648,1.0829,0.9323,1.0829,1.1534,1.1678,1.181,1.206,1.185,1.2101,1.2125,1.2159,1.2216,1.2284,1.2305,1.2379,1.2345,1.2257,1.225,1.2149,1.2111,1.2098,1.2098,1.2104,1.2132,1.2111,1.207,1.1932,1.1816,1.1638,1.1775,1.1904,1.2074,1.221,1.2345,1.2467,1.2501,1.2501,1.2501,1.2501,1.2501,1.2501,1.2501,1.2501,1.2501,1.2501,1.2501,1.2501,1.2501,1.2501,1.2501,1.2494,1.2494,1.2447,1.2223,1.2067,1.204,1.1945,1.1732,1.1698,1.166,1.1597,1.1584,1.1584,1.1584,1.1584,1.1584,1.1584,1.1584,1.1584,1.1584,0.0,0.0,0.0,0.0,0.0,0.0,0.0,0.0,0.0,0.0,0.0,0.0,0.0791,0.1918,0.2142,0.3304,0.5138,0.4613,0.4709,0.5243,0.5299,0.5651,0.627,0.6354,0.7003,0.8341,0.9643,1.016,1.0023,1.0083,1.0193,1.0322,1.0669,1.103,1.0981,1.1693,1.2074,1.2135,1.2149,1.2216,1.2325,1.22,1.2193,1.2332,1.2309,1.1927,1.1555,1.1879,1.2067,1.2111,1.22,1.2264,1.2338,1.2366,1.2359,1.2372,1.2406,1.2433,1.2427,1.2379,1.2352,1.2322,1.2241,1.2213,1.2247,1.2216,1.2261,1.223,1.2298,1.2298,1.2159,1.2128,1.2067,1.1975,1.187,1.1945,1.2176,1.2338,1.244,1.2488,1.2501,1.2501,1.2501,1.2501,1.2501,1.2501,1.2501,1.2501,1.2501,1.2501,1.2501,1.2501,1.2501,1.2501,1.2501,1.2501,1.2501,1.2474,1.2311,1.2247,1.2182,1.206,1.1861,1.1732,1.1658,1.1611,1.159,1.1584,1.1584,1.1584,1.1584,1.1584,1.1584,1.1584,1.1584,0.0,0.0,0.0,0.0,0.0,0.0,0.0,0.0,0.0853,0.1157,0.0,0.0,0.3005,0.4103,0.4295,0.5505,0.733,0.7455,0.7881,0.8304,0.7684,0.7842,0.8462,0.8596,0.9084,1.0292,1.1579,1.2152,1.2104,1.2152,1.2115,1.2074,1.2152,1.2108,1.2111,1.2193,1.2223,1.2277,1.2284,1.2359,1.2433,1.2318,1.2349,1.2461,1.2413,1.242,1.2481,1.2311,1.223,1.2281,1.2325,1.2413,1.2494,1.2494,1.2501,1.2501,1.2501,1.2501,1.2494,1.242,1.2372,1.2345,1.2277,1.2302,1.2352,1.2372,1.2372,1.2386,1.244,1.2427,1.2277,1.2281,1.2264,1.2275,1.204,1.2047,1.2257,1.2413,1.2488,1.2501,1.2501,1.2501,1.2501,1.2501,1.2501,1.2501,1.2501,1.2501,1.2501,1.2501,1.2501,1.2501,1.2501,1.2501,1.2501,1.2501,1.2501,1.2454,1.2372,1.2345,1.2332,1.2121,1.1932,1.18,1.1719,1.1651,1.1624,1.159,1.1584,1.1584,1.1584,1.1584,1.1584,1.1584,1.1584,0.0,0.0,0.0,0.0,0.0,0.0,0.0,0.0,0.2426,0.3281,0.3661,0.494,0.611,0.6379,0.6455,0.7604,0.931,0.958,1.0369,1.1115,1.0529,1.0369,1.1624,1.1747,1.1811,1.2065,1.2228,1.223,1.2186,1.2244,1.223,1.2186,1.2281,1.2275,1.2193,1.2139,1.2203,1.2305,1.2318,1.2386,1.2494,1.2488,1.2481,1.2501,1.2494,1.2488,1.2494,1.2494,1.2501,1.2508,1.2494,1.2494,1.2515,1.2508,1.2501,1.2501,1.2501,1.2501,1.2501,1.2488,1.2481,1.2474,1.2467,1.2501,1.2481,1.2474,1.2474,1.2474,1.2494,1.2494,1.2447,1.2413,1.2406,1.2474,1.2322,1.2203,1.2291,1.2427,1.2488,1.2501,1.2501,1.2501,1.2501,1.2501,1.2501,1.2501,1.2501,1.2501,1.2501,1.2501,1.2501,1.2501,1.2501,1.2501,1.2501,1.2501,1.2501,1.2481,1.2427,1.2427,1.2413,1.2216,1.2064,1.1925,1.182,1.1739,1.1671,1.1651,1.1611,1.1584,1.1584,1.1584,1.1584,1.1584,1.1584,0.0,0.0,0.0,0.0869,0.2153,0.2264,0.3231,0.4583,0.5125,0.5438,0.5663,0.6043,0.7344,0.8514,0.863,0.9717,1.1162,1.1579,1.1837,1.234,1.203,1.1914,1.2424,1.2501,1.2481,1.244,1.2433,1.2427,1.2393,1.2413,1.2451,1.2393,1.2406,1.2427,1.2393,1.2372,1.24,1.244,1.2447,1.2467,1.2494,1.2508,1.2501,1.2501,1.2501,1.2501,1.2515,1.261,1.2632,1.2625,1.2556,1.2562,1.2611,1.2576,1.2522,1.2515,1.2508,1.2501,1.2501,1.2501,1.2501,1.2501,1.2501,1.2501,1.2501,1.2501,1.2501,1.2501,1.2501,1.2501,1.2515,1.2569,1.2671,1.2773,1.2601,1.2445,1.2447,1.2474,1.2501,1.2501,1.2508,1.2501,1.2501,1.2501,1.2501,1.2501,1.2501,1.2501,1.2501,1.2501,1.2501,1.2501,1.2501,1.2501,1.2501,1.2501,1.2501,1.2501,1.2481,1.2474,1.244,1.2332,1.2176,1.2047,1.202,1.1952,1.182,1.1753,1.1692,1.1638,1.1611,1.1617,1.159,1.1584,1.1584,0.0,0.0,0.1011,0.2079,0.327,0.4205,0.5313,0.6437,0.7323,0.7655,0.7786,0.8594,0.9571,1.0624,1.0701,1.1327,1.2424,1.2501,1.2501,1.2501,1.2463,1.2463,1.2501,1.2501,1.2501,1.2501,1.2501,1.2494,1.2494,1.2501,1.2501,1.2488,1.2501,1.2501,1.2494,1.2576,1.2596,1.261,1.2651,1.2671,1.2603,1.2596,1.2556,1.2522,1.2501,1.2522,1.2557,1.2645,1.2693,1.2686,1.2705,1.2739,1.2807,1.2745,1.2664,1.261,1.2596,1.2576,1.2515,1.2501,1.2501,1.2501,1.2501,1.2501,1.2501,1.2501,1.2501,1.2501,1.2501,1.2535,1.261,1.2739,1.2854,1.2948,1.2839,1.2737,1.2691,1.2637,1.2603,1.2583,1.2542,1.2501,1.2501,1.2501,1.2501,1.2501,1.2501,1.2501,1.2501,1.2501,1.2501,1.2501,1.2501,1.2501,1.2501,1.2501,1.2501,1.2501,1.2501,1.2501,1.2474,1.2413,1.2318,1.2203,1.2213,1.2159,1.2006,1.1911,1.1857,1.1803,1.1742,1.1651,1.1631,1.1611,1.1611,0.0,0.0513,0.2701,0.3751,0.4413,0.6133,0.7232,0.7668,0.9243,0.9908,1.0157,1.1733,1.2083,1.2549,1.2213,1.253,1.2569,1.2596,1.2576,1.2583,1.2562,1.2549,1.2549,1.2515,1.2501,1.2501,1.2501,1.2501,1.2501,1.2501,1.2501,1.2501,1.2501,1.2522,1.2562,1.2657,1.2732,1.2773,1.2894,1.2894,1.2773,1.2752,1.2705,1.2623,1.2603,1.2651,1.2732,1.2786,1.276,1.274,1.2941,1.2982,1.3003,1.3009,1.2928,1.2786,1.2745,1.2691,1.2569,1.2569,1.2556,1.2556,1.2562,1.2549,1.2583,1.2603,1.2603,1.261,1.2556,1.2657,1.2779,1.2915,1.3037,1.3077,1.3057,1.305,1.2976,1.2861,1.2713,1.2693,1.261,1.2562,1.2508,1.2515,1.2528,1.2501,1.2501,1.2501,1.2501,1.2501,1.2501,1.2501,1.2501,1.2501,1.2501,1.2501,1.2501,1.2501,1.2501,1.2501,1.2501,1.2461,1.2413,1.2366,1.2325,1.2244,1.2128,1.2054,1.2006,1.1932,1.187,1.1789,1.1728,1.1678,1.1665,0.2625,0.2772,0.5011,0.6905,0.8319,0.8966,1.0043,1.1496,1.1983,1.2077,1.2297,1.2735,1.2847,1.2887,1.2873,1.2901,1.2873,1.2873,1.2901,1.2847,1.2725,1.2645,1.2657,1.2583,1.2515,1.2501,1.2501,1.2501,1.2501,1.2501,1.2501,1.2501,1.2522,1.2562,1.2671,1.2725,1.28,1.2895,1.2996,1.3003,1.2969,1.2948,1.2928,1.288,1.288,1.2907,1.2922,1.3057,1.3071,1.3057,1.3057,1.3077,1.3132,1.3077,1.3003,1.2929,1.2908,1.284,1.2739,1.2766,1.28,1.2705,1.2766,1.2861,1.2901,1.288,1.2887,1.2901,1.2907,1.2935,1.3064,1.3132,1.3166,1.3241,1.3275,1.3281,1.3261,1.3105,1.2881,1.2793,1.2807,1.2812,1.2556,1.2644,1.2623,1.2535,1.2508,1.2501,1.2501,1.2501,1.2501,1.2501,1.2501,1.2501,1.2501,1.2501,1.2501,1.2501,1.2501,1.2501,1.2501,1.2501,1.2454,1.2454,1.2467,1.2366,1.225,1.223,1.2189,1.2101,1.2006,1.1959,1.1898,1.1843,1.1753,0.5028,0.5234,0.7462,0.8971,1.0004,1.1029,1.2118,1.2956,1.3105,1.3064,1.3009,1.3003,1.3003,1.3003,1.3003,1.2996,1.3003,1.3003,1.2996,1.2975,1.2868,1.284,1.2834,1.2745,1.2664,1.2542,1.2501,1.2501,1.2501,1.2508,1.2501,1.2515,1.253,1.2611,1.2759,1.2861,1.2983,1.3098,1.3173,1.318,1.3111,1.3098,1.305,1.3016,1.3003,1.3023,1.3105,1.3166,1.3248,1.3241,1.3207,1.3234,1.3254,1.3207,1.3139,1.3111,1.3098,1.303,1.2955,1.2941,1.2962,1.2847,1.2962,1.2982,1.3003,1.3003,1.3003,1.3003,1.3003,1.3057,1.3193,1.3254,1.3322,1.337,1.3397,1.3397,1.3363,1.32,1.3077,1.2949,1.2989,1.2921,1.2813,1.28,1.2706,1.2664,1.2623,1.261,1.2501,1.2501,1.2501,1.2501,1.2501,1.2501,1.2501,1.2501,1.2501,1.2501,1.2501,1.2501,1.2501,1.2501,1.2494,1.2494,1.2494,1.2481,1.2393,1.2386,1.2338,1.2237,1.2155,1.2166,1.2111,1.2023,1.1945,0.7563,0.7623,0.9881,1.0709,1.0873,1.2519,1.324,1.322,1.3248,1.3193,1.3091,1.3064,1.3111,1.3084,1.3091,1.3071,1.3077,1.3084,1.3118,1.3071,1.3057,1.3037,1.3023,1.2962,1.286,1.2589,1.2603,1.2596,1.2569,1.2556,1.2583,1.2549,1.2691,1.2773,1.2834,1.3017,1.3207,1.3254,1.3302,1.3315,1.3227,1.3248,1.3193,1.3132,1.3111,1.3159,1.3234,1.3275,1.3268,1.339,1.3397,1.3397,1.3397,1.339,1.3356,1.3214,1.3207,1.3132,1.3077,1.3064,1.3084,1.3043,1.3071,1.3077,1.3091,1.3105,1.3111,1.3105,1.3118,1.3112,1.3241,1.3302,1.3376,1.3397,1.3397,1.3397,1.3376,1.3281,1.3248,1.3186,1.3112,1.3057,1.3023,1.2942,1.2868,1.276,1.2726,1.2665,1.2596,1.2508,1.2508,1.2501,1.2501,1.2501,1.2501,1.2501,1.2501,1.2501,1.2501,1.2501,1.2501,1.2501,1.2501,1.2501,1.2494,1.2488,1.2488,1.2461,1.2406,1.2338,1.2318,1.2291,1.2254,1.2159,1.2139,0.9918,1.0107,1.2149,1.3017,1.302,1.3326,1.3383,1.3363,1.3356,1.3349,1.3322,1.3322,1.3302,1.3308,1.3322,1.3322,1.3288,1.3275,1.3288,1.3268,1.3241,1.318,1.3166,1.3098,1.2989,1.2948,1.2914,1.2827,1.2752,1.2807,1.2725,1.2617,1.2786,1.2955,1.3003,1.3132,1.3288,1.3322,1.3376,1.337,1.3349,1.3336,1.3329,1.3281,1.3275,1.3302,1.3336,1.3356,1.3376,1.3397,1.3397,1.3397,1.3397,1.3397,1.3376,1.3356,1.3336,1.3275,1.3214,1.3241,1.3282,1.3248,1.3227,1.3302,1.3308,1.3308,1.3275,1.3288,1.3295,1.3322,1.3356,1.3383,1.3397,1.3397,1.3397,1.3397,1.339,1.3363,1.3295,1.322,1.3234,1.3247,1.3159,1.3125,1.3037,1.2956,1.2874,1.282,1.2725,1.261,1.2528,1.2515,1.2501,1.2501,1.2501,1.2501,1.2501,1.2501,1.2501,1.2501,1.2501,1.2501,1.2501,1.2501,1.2501,1.2494,1.2494,1.2501,1.2481,1.242,1.2433,1.2447,1.2366,1.2315,1.2295,1.241,1.2463,1.3353,1.3693,1.366,1.3492,1.3451,1.3463,1.3437,1.3397,1.3397,1.3397,1.3397,1.3397,1.3397,1.3397,1.3397,1.3397,1.3397,1.3376,1.3329,1.3329,1.3281,1.3207,1.32,1.3186,1.318,1.3098,1.2874,1.2955,1.2914,1.284,1.3009,1.3111,1.3146,1.322,1.3315,1.3397,1.3397,1.3397,1.3397,1.3397,1.3397,1.3397,1.3397,1.3397,1.3397,1.3397,1.3397,1.3397,1.3397,1.3397,1.3403,1.3397,1.3397,1.3397,1.3397,1.3376,1.3302,1.3363,1.3356,1.3315,1.3363,1.3397,1.3397,1.339,1.3397,1.3397,1.3397,1.3397,1.339,1.3397,1.3397,1.3397,1.3397,1.3397,1.3397,1.3397,1.3349,1.3288,1.3315,1.3315,1.3281,1.3227,1.3234,1.3112,1.3003,1.2929,1.2854,1.2718,1.2589,1.2549,1.2535,1.2501,1.2501,1.2501,1.2501,1.2501,1.2501,1.2501,1.2501,1.2501,1.2501,1.2501,1.2501,1.2501,1.2501,1.2501,1.2501,1.2501,1.2488,1.2474,1.2474,1.2454,1.24,1.4231,1.4102,1.3953,1.3822,1.3754,1.3559,1.3498,1.3504,1.3451,1.3397,1.3397,1.3397,1.3397,1.3397,1.3397,1.3397,1.3397,1.3397,1.3397,1.3397,1.339,1.339,1.3397,1.3397,1.337,1.3342,1.3356,1.3261,1.3098,1.3105,1.3071,1.3037,1.3152,1.3234,1.3241,1.3302,1.3376,1.3397,1.3397,1.3397,1.3397,1.3397,1.3397,1.3397,1.3397,1.3397,1.3397,1.3397,1.3431,1.3437,1.3431,1.3417,1.3437,1.3417,1.3403,1.3397,1.3397,1.3397,1.3397,1.339,1.3397,1.3376,1.339,1.3397,1.3397,1.3397,1.3397,1.3397,1.3397,1.3397,1.3397,1.3397,1.3397,1.3397,1.3397,1.3397,1.3397,1.3397,1.3397,1.3376,1.3397,1.3376,1.3336,1.3336,1.3295,1.3282,1.3132,1.3111,1.2983,1.2793,1.2632,1.2578,1.2569,1.2515,1.2501,1.2501,1.2501,1.2501,1.2501,1.2501,1.2501,1.2501,1.2501,1.2501,1.2501,1.2501,1.2501,1.2501,1.2501,1.2501,1.2501,1.2501,1.2494,1.2488,1.2461,1.4292,1.4258,1.4153,1.3966,1.3795,1.3626,1.349,1.3451,1.3424,1.3397,1.3403,1.341,1.3417,1.341,1.3403,1.3403,1.3397,1.3397,1.3397,1.3397,1.3397,1.341,1.341,1.3397,1.3417,1.3417,1.341,1.3308,1.3207,1.3261,1.32,1.3132,1.3261,1.3356,1.3227,1.3336,1.3397,1.3397,1.3403,1.341,1.3424,1.3424,1.3417,1.341,1.3417,1.3424,1.3437,1.3451,1.3492,1.358,1.3478,1.3485,1.3511,1.3464,1.3417,1.3397,1.3397,1.3397,1.3403,1.3417,1.341,1.341,1.3397,1.3397,1.3431,1.3444,1.3451,1.3397,1.341,1.3424,1.3424,1.3403,1.3403,1.3397,1.3397,1.3397,1.3397,1.3397,1.3397,1.3397,1.3397,1.3397,1.3376,1.339,1.3383,1.3329,1.3309,1.3241,1.3139,1.2915,1.2686,1.2618,1.2576,1.2515,1.2501,1.2501,1.2501,1.2501,1.2501,1.2501,1.2501,1.2501,1.2501,1.2501,1.2501,1.2501,1.2501,1.2501,1.2501,1.2501,1.2501,1.2501,1.2501,1.2501,1.2501,1.4299,1.4285,1.418,1.4089,1.4055,1.377,1.3599,1.3572,1.3471,1.3397,1.3424,1.3498,1.3532,1.3498,1.3451,1.3397,1.3397,1.3397,1.3397,1.3397,1.3403,1.3444,1.3492,1.3458,1.3431,1.3492,1.3444,1.3383,1.3336,1.3342,1.3308,1.3254,1.3322,1.3376,1.3288,1.3363,1.339,1.3424,1.3485,1.3531,1.3607,1.3573,1.3526,1.3526,1.3484,1.3526,1.3546,1.362,1.3668,1.3693,1.3626,1.3675,1.368,1.3646,1.3612,1.3612,1.3612,1.3538,1.3444,1.3492,1.3485,1.3424,1.3417,1.3437,1.3512,1.3593,1.3641,1.3612,1.3531,1.3616,1.363,1.3444,1.341,1.3403,1.3576,1.3397,1.3397,1.3397,1.3397,1.3397,1.3397,1.3397,1.3397,1.3397,1.3397,1.3376,1.3342,1.3343,1.3241,1.3084,1.2854,1.2645,1.2589,1.2501,1.2501,1.2501,1.2501,1.2501,1.2501,1.2501,1.2501,1.2501,1.2501,1.2501,1.2501,1.2501,1.2501,1.2501,1.2501,1.2501,1.2501,1.2501,1.2501,1.2501,1.2501,1.4299,1.4285,1.4177,1.4221,1.4211,1.3838,1.3673,1.37,1.3512,1.3397,1.3431,1.3512,1.3559,1.3553,1.3451,1.3397,1.3397,1.3397,1.3397,1.3397,1.3417,1.3485,1.3526,1.3492,1.3478,1.3627,1.3464,1.3397,1.339,1.3397,1.3397,1.3397,1.3383,1.339,1.3397,1.3403,1.3417,1.3485,1.3524,1.3612,1.3673,1.3626,1.3634,1.362,1.3592,1.3599,1.3653,1.372,1.3781,1.3892,1.3795,1.3781,1.3835,1.3795,1.3761,1.3768,1.3788,1.3734,1.3605,1.3572,1.3607,1.3553,1.3637,1.3881,1.4625,1.4337,1.4892,1.5817,1.4118,1.4443,1.4863,1.4627,1.4027,1.3991,1.3922,1.3618,1.3438,1.3604,1.3562,1.3397,1.3397,1.3397,1.3397,1.3397,1.3397,1.3397,1.3397,1.3383,1.3316,1.3166,1.303,1.2807,1.2678,1.2596,1.2576,1.2556,1.2542,1.2501,1.2501,1.2501,1.2501,1.2501,1.2501,1.2501,1.2501,1.2501,1.2501,1.2501,1.2501,1.2501,1.2501,1.2501,1.2501,1.2501,1.2501,1.4299,1.4299,1.4285,1.4211,1.4139,1.3905,1.372,1.3632,1.3492,1.3417,1.3424,1.3424,1.3444,1.3431,1.3431,1.3397,1.3397,1.3397,1.3397,1.3397,1.3417,1.3505,1.3553,1.3546,1.3492,1.3607,1.3532,1.3458,1.341,1.3437,1.3417,1.3397,1.3397,1.3397,1.341,1.3431,1.3532,1.3607,1.3688,1.3653,1.368,1.3653,1.3675,1.3619,1.3654,1.3688,1.3817,1.3914,1.4571,1.4728,1.46,1.4844,1.5168,1.5109,1.5108,1.5123,1.5196,1.5188,1.5006,1.4188,1.3768,1.3768,1.3882,1.4422,1.5558,1.455,1.5794,1.8062,1.5682,1.6153,1.6851,1.7003,1.5818,1.5838,1.5849,1.5249,1.4829,1.4093,1.3969,1.3562,1.3397,1.3397,1.3397,1.3397,1.3397,1.3397,1.3397,1.339,1.3295,1.3214,1.3132,1.2956,1.2807,1.2725,1.2691,1.2651,1.2576,1.2522,1.2501,1.2501,1.2501,1.2501,1.2501,1.2501,1.2501,1.2501,1.2501,1.2501,1.2501,1.2501,1.2501,1.2501,1.2501,1.2501,1.2501,1.4299,1.4299,1.4299,1.4265,1.4204,1.4048,1.3899,1.3707,1.3565,1.3539,1.3484,1.3451,1.3451,1.3492,1.3431,1.3397,1.3397,1.3397,1.3397,1.3397,1.3417,1.3546,1.362,1.3641,1.3614,1.3666,1.3632,1.3546,1.3417,1.3485,1.3458,1.3437,1.3417,1.3397,1.3417,1.3498,1.3661,1.3838,1.3905,1.3933,1.4014,1.3939,1.3899,1.3899,1.3905,1.4772,1.5613,1.4684,1.5997,1.7178,1.6833,1.7118,1.775,1.7889,1.7906,1.7897,1.7949,1.7966,1.7302,1.5808,1.3989,1.3835,1.3955,1.4578,1.5906,1.4612,1.4799,1.5821,1.6712,1.734,1.7528,1.813,1.8321,1.8523,1.8055,1.702,1.6599,1.5883,1.544,1.5522,1.4259,1.3397,1.3397,1.3397,1.3397,1.3397,1.3397,1.3376,1.3302,1.3241,1.3214,1.3139,1.2963,1.282,1.2773,1.2691,1.2564,1.2549,1.2501,1.2501,1.2501,1.2501,1.2501,1.2501,1.2501,1.2501,1.2501,1.2501,1.2501,1.2501,1.2501,1.2501,1.2501,1.2501,1.2501,1.4299,1.4299,1.4299,1.4299,1.4278,1.4136,1.3987,1.3788,1.3646,1.3558,1.3518,1.3492,1.3492,1.3526,1.3477,1.3431,1.3417,1.3397,1.3397,1.3397,1.3431,1.3559,1.3605,1.3619,1.3593,1.3707,1.372,1.3592,1.3498,1.3587,1.3559,1.3505,1.3464,1.3458,1.3437,1.3566,1.3777,1.4,1.4125,1.4116,1.419,1.4116,1.4098,1.4308,1.4772,1.5884,1.705,1.7061,1.8192,1.9417,1.9798,1.973,2.0519,2.1221,2.1221,2.1264,2.1264,2.1307,2.0264,1.8633,1.5841,1.5579,1.6345,1.6104,1.5504,1.5798,1.7364,1.7075,1.7585,1.7819,1.8061,1.8166,1.889,1.8787,1.8297,1.7574,1.8417,1.8256,1.7896,1.7606,1.6377,1.5481,1.4093,1.4093,1.3397,1.3397,1.3397,1.3397,1.337,1.3315,1.3275,1.3207,1.3119,1.2969,1.2834,1.2739,1.2605,1.2535,1.2501,1.2501,1.2501,1.2501,1.2501,1.2501,1.2501,1.2501,1.2501,1.2501,1.2501,1.2501,1.2501,1.2501,1.2501,1.2501,1.2501,1.4299,1.4299,1.4299,1.4299,1.4285,1.4187,1.3994,1.3808,1.3653,1.3553,1.3458,1.3484,1.3519,1.3471,1.3477,1.3492,1.3417,1.3397,1.3397,1.3397,1.3403,1.3505,1.3511,1.3518,1.358,1.3578,1.3702,1.3765,1.3957,1.4274,1.4119,1.4406,1.4831,1.4146,1.3604,1.3601,1.3826,1.4078,1.4212,1.4843,1.4639,1.4894,1.5271,1.5655,1.6687,1.7949,1.899,1.9504,2.0616,2.1998,2.1696,2.1653,2.2213,2.2256,2.217,2.2084,2.1911,2.1739,2.134,2.1115,1.9995,1.8183,1.8712,1.9077,1.8514,1.9237,2.0139,1.9315,1.9113,1.9234,1.866,1.8001,1.8898,1.9627,1.9287,1.9727,2.0735,2.06,2.0191,1.9377,1.9246,1.8729,1.6492,1.4863,1.3769,1.3397,1.3397,1.3397,1.3397,1.3376,1.3336,1.3281,1.3241,1.3057,1.2908,1.2753,1.2645,1.2569,1.2501,1.2501,1.2501,1.2501,1.2501,1.2501,1.2501,1.2501,1.2501,1.2501,1.2501,1.2501,1.2501,1.2501,1.2501,1.2501,1.2501,1.4299,1.4299,1.4299,1.4299,1.4292,1.4245,1.4136,1.3966,1.3743,1.3546,1.3431,1.3464,1.3458,1.3431,1.3451,1.3464,1.3417,1.3397,1.3397,1.3397,1.3397,1.3498,1.3559,1.3531,1.3565,1.372,1.388,1.492,1.6159,1.6103,1.7231,1.7938,1.7338,1.6389,1.5118,1.4936,1.5788,1.5184,1.6641,1.8278,1.6974,1.7792,1.8564,1.8564,1.942,2.0537,2.1696,2.1998,2.2858,2.4625,2.4368,2.4069,2.502,2.5361,2.5501,2.5629,2.5714,2.5841,2.5841,2.5574,2.3898,2.1954,2.0875,2.1307,2.0313,2.0616,2.1135,2.1264,2.0659,2.0659,2.0264,1.9895,2.0665,2.2349,2.2741,2.3561,2.4132,2.3096,2.2267,2.1079,2.0578,1.7992,1.5687,1.511,1.4259,1.348,1.3397,1.3397,1.3397,1.3397,1.3376,1.3329,1.3295,1.3159,1.2983,1.2854,1.2691,1.2542,1.2501,1.2501,1.2501,1.2515,1.2515,1.2528,1.2515,1.2501,1.2501,1.2501,1.2501,1.2501,1.2501,1.2501,1.2501,1.2501,1.2501,1.4346,1.4299,1.4299,1.4299,1.4299,1.4299,1.4211,1.4034,1.3763,1.3524,1.3498,1.3485,1.3451,1.3437,1.3458,1.3431,1.341,1.3397,1.3397,1.3397,1.3397,1.3458,1.3519,1.3643,1.3553,1.3941,1.4936,1.6085,1.7121,1.8237,1.9269,2.0118,2.0669,1.9048,1.7742,1.7863,1.8172,1.7914,1.947,2.0163,1.9643,2.0086,2.0952,2.1168,2.1901,2.3041,2.3995,2.4551,2.485,2.6885,2.7194,2.6546,2.7799,2.8192,2.8192,2.8192,2.8179,2.8052,2.7926,2.7883,2.6054,2.4326,2.3684,2.2772,2.2299,2.2944,2.2299,2.2127,2.2041,2.1696,2.1449,2.1233,2.1852,2.3506,2.4483,2.5229,2.6115,2.5063,2.458,2.333,2.2204,1.8985,1.5669,1.5036,1.4706,1.4011,1.3397,1.3397,1.3397,1.3397,1.3397,1.3363,1.3302,1.3173,1.3044,1.2908,1.2732,1.2535,1.2522,1.2549,1.2549,1.2576,1.2562,1.2549,1.2528,1.2515,1.2501,1.2501,1.2501,1.2501,1.2501,1.2501,1.2501,1.2501,1.2501,1.4421,1.4306,1.4299,1.4299,1.4299,1.4299,1.4211,1.4041,1.3763,1.3592,1.3565,1.3538,1.3512,1.3444,1.3546,1.3519,1.3417,1.3403,1.3397,1.3604,1.3845,1.379,1.3991,1.4212,1.495,1.5177,1.6129,1.7894,1.801,2.072,2.1906,2.1747,2.2316,2.1715,2.1534,2.1397,2.0993,2.0614,2.1739,2.2127,2.1825,2.1954,2.2643,2.3115,2.4026,2.4807,2.5683,2.6448,2.7321,2.8094,2.8052,2.8052,2.8192,2.8192,2.8192,2.8192,2.8192,2.8192,2.8192,2.8192,2.8094,2.6927,2.7363,2.5318,2.4326,2.5148,2.4935,2.3898,2.347,2.2654,2.2063,2.2052,2.2128,2.3371,2.4492,2.5687,2.714,2.7122,2.6871,2.6184,2.5585,2.2871,1.8695,1.7087,1.5461,1.4026,1.3444,1.3397,1.3397,1.3397,1.3397,1.339,1.3322,1.3234,1.3105,1.2969,1.2901,1.2724,1.2637,1.2651,1.2644,1.2644,1.263,1.2603,1.2556,1.2522,1.2508,1.2501,1.2501,1.2501,1.2501,1.2501,1.2501,1.2501,1.2501,1.4333,1.4299,1.4299,1.4299,1.4299,1.4299,1.415,1.3862,1.3754,1.3639,1.3464,1.3471,1.3444,1.341,1.3451,1.3437,1.3417,1.3397,1.3397,1.3804,1.4822,1.5391,1.6123,1.6919,1.7831,1.8468,1.929,2.0455,2.2575,2.475,2.5642,2.5891,2.5142,2.5341,2.5401,2.5607,2.3744,2.2942,2.4368,2.4465,2.4508,2.4892,2.5318,2.6011,2.6236,2.6842,2.7279,2.7617,2.8192,2.8192,2.8192,2.8192,2.8192,2.8192,2.8192,2.8192,2.8192,2.8192,2.8192,2.8192,2.8192,2.8192,2.8192,2.7926,2.6969,2.6842,2.7321,2.6151,2.499,2.4252,2.3641,2.347,2.3641,2.4465,2.5385,2.6216,2.7478,2.7789,2.7575,2.7237,2.6671,2.4248,2.0302,1.8183,1.6502,1.4597,1.345,1.3431,1.3397,1.3397,1.3397,1.339,1.3342,1.3254,1.32,1.3071,1.2989,1.2901,1.2846,1.2819,1.282,1.2807,1.2732,1.2625,1.2564,1.2549,1.2501,1.2501,1.2501,1.2501,1.2501,1.2501,1.2501,1.2501,1.2501,1.4346,1.4299,1.4299,1.4299,1.4299,1.4299,1.4122,1.3835,1.3795,1.3687,1.3573,1.3458,1.3397,1.3403,1.3403,1.3403,1.3403,1.348,1.3804,1.5226,1.6164,1.7016,1.8159,1.9237,1.9608,2.058,2.1565,2.2483,2.4801,2.6638,2.7704,2.746,2.7709,2.7696,2.7488,2.7072,2.6268,2.5828,2.6193,2.6927,2.7236,2.7405,2.7926,2.8192,2.8192,2.8192,2.8192,2.8192,2.8192,2.8192,2.8192,2.8192,2.8192,2.8192,2.8192,2.8192,2.8192,2.8192,2.8192,2.8192,2.8192,2.8192,2.8192,2.8094,2.8052,2.7883,2.801,2.7532,2.6758,2.5981,2.5501,2.5105,2.5543,2.5981,2.6418,2.68,2.7369,2.7879,2.7732,2.749,2.6039,2.3939,2.1585,1.9544,1.7616,1.5836,1.4284,1.3424,1.3397,1.3397,1.3397,1.3397,1.3342,1.3275,1.3227,1.3152,1.3084,1.3016,1.2955,1.2948,1.3016,1.2942,1.2834,1.2745,1.2618,1.261,1.2569,1.2515,1.2501,1.2508,1.2515,1.2501,1.2501,1.2501,1.2501,1.4414,1.4299,1.4299,1.4299,1.4299,1.4299,1.4136,1.3871,1.4144,1.4067,1.4104,1.3846,1.4093,1.4788,1.4912,1.4788,1.4953,1.5028,1.5761,1.6934,1.7865,1.8861,1.9957,2.0545,2.1863,2.2014,2.2658,2.4297,2.4914,2.6514,2.7762,2.7696,2.7642,2.7669,2.7789,2.7722,2.7286,2.7438,2.749,2.7883,2.801,2.8136,2.8192,2.8192,2.8192,2.8192,2.8192,2.8192,2.8192,2.8192,2.8192,2.8192,2.8192,2.8192,2.8192,2.8232,2.8245,2.8232,2.8245,2.8259,2.8232,2.8219,2.8192,2.8192,2.8192,2.8192,2.8192,2.8192,2.7405,2.7236,2.6842,2.6715,2.7012,2.7152,2.7363,2.7575,2.7759,2.8085,2.7976,2.7759,2.7223,2.5092,2.3018,2.0993,1.8528,1.6918,1.5033,1.3666,1.3397,1.3397,1.3397,1.3397,1.3363,1.3315,1.3275,1.3248,1.3193,1.3125,1.3084,1.3111,1.3159,1.3071,1.2929,1.2847,1.2773,1.2698,1.2644,1.261,1.2576,1.2556,1.2549,1.2515,1.2501,1.2501,1.2501,1.4333,1.4306,1.4299,1.4299,1.4299,1.4299,1.4234,1.418,1.5713,1.6229,1.598,1.6007,1.6697,1.7719,1.776,1.776,1.7883,1.7433,1.8526,1.9532,2.0301,2.1224,2.2803,2.3624,2.4582,2.5479,2.6027,2.5923,2.629,2.7152,2.7682,2.7655,2.7549,2.759,2.7965,2.7816,2.7843,2.8165,2.8192,2.8192,2.8192,2.8192,2.8192,2.8192,2.8192,2.8192,2.8192,2.8192,2.8192,2.8192,2.8192,2.8192,2.8192,2.8192,2.8192,2.8219,2.8406,2.8419,2.8379,2.8419,2.8446,2.8286,2.8232,2.8205,2.8192,2.8192,2.8192,2.8192,2.8192,2.8192,2.8192,2.8192,2.8192,2.8192,2.8192,2.8192,2.8192,2.8165,2.8138,2.8072,2.7978,2.654,2.4478,2.2215,1.9725,1.7309,1.4886,1.3445,1.3403,1.3397,1.3397,1.3397,1.3397,1.3363,1.3329,1.3308,1.3254,1.3261,1.3247,1.3288,1.3329,1.3214,1.3078,1.2983,1.2895,1.2834,1.2779,1.2739,1.2665,1.2611,1.2589,1.2556,1.2508,1.2501,1.2501,1.4299,1.4299,1.4299,1.4299,1.4476,1.5381,1.5768,1.5983,1.7757,1.9084,1.9395,1.8777,1.8811,1.9907,1.9866,2.015,2.0109,1.9826,2.0393,2.1482,2.2522,2.3584,2.4861,2.5884,2.6107,2.6867,2.6867,2.6813,2.7094,2.7188,2.7295,2.7455,2.7389,2.751,2.7924,2.7802,2.7843,2.8165,2.8179,2.8192,2.8192,2.8192,2.8192,2.8192,2.8192,2.8192,2.8192,2.8192,2.8192,2.8192,2.8192,2.8192,2.8232,2.8339,2.8393,2.8444,2.8591,2.8724,2.8644,2.8644,2.8698,2.8551,2.8524,2.8604,2.839,2.8377,2.8299,2.8286,2.8205,2.8192,2.8192,2.8192,2.8192,2.8192,2.8192,2.8192,2.8192,2.8179,2.8165,2.8138,2.8058,2.7645,2.5674,2.4063,2.1544,1.9094,1.6444,1.3942,1.3728,1.3397,1.3397,1.3397,1.3397,1.3397,1.3376,1.337,1.3363,1.3383,1.3397,1.3383,1.3356,1.3315,1.3234,1.3166,1.3084,1.3037,1.2942,1.2888,1.2747,1.2672,1.2651,1.2596,1.2556,1.2515,1.2501,1.4299,1.4299,1.4299,1.4299,1.4646,1.6765,1.7575,1.7863,1.9981,2.1884,2.2952,2.1448,2.0807,2.0716,2.0716,2.0716,2.106,2.1933,2.2608,2.3164,2.368,2.4894,2.5775,2.644,2.66,2.672,2.6747,2.676,2.6774,2.6894,2.7041,2.7188,2.7281,2.7375,2.7602,2.7736,2.7843,2.8112,2.8192,2.8192,2.8192,2.8192,2.8192,2.8192,2.8192,2.8192,2.8192,2.8192,2.8192,2.8192,2.8192,2.8192,2.8286,2.8419,2.8511,2.8617,2.8911,2.8948,2.8948,2.9018,2.8988,2.8961,2.9001,2.8895,2.8698,2.8591,2.847,2.8353,2.8259,2.8192,2.8192,2.8192,2.8192,2.8192,2.8192,2.8192,2.8192,2.8192,2.8192,2.8192,2.8083,2.7948,2.6877,2.5297,2.3109,2.0673,1.8293,1.5949,1.4176,1.3687,1.3397,1.3397,1.3397,1.3397,1.3397,1.3397,1.3397,1.3397,1.3397,1.3397,1.339,1.3356,1.3308,1.3295,1.322,1.3152,1.3091,1.3037,1.2922,1.2813,1.2712,1.2651,1.2603,1.2562,1.2515,1.4299,1.4299,1.4299,1.4343,1.4734,1.6852,1.7705,1.8197,2.1631,2.3393,2.3882,2.4992,2.5171,2.5092,2.5171,2.4866,2.4209,2.46,2.5059,2.5779,2.5587,2.637,2.6746,2.6613,2.6466,2.6533,2.6653,2.6627,2.6613,2.672,2.6814,2.6961,2.6961,2.7188,2.7655,2.7762,2.7911,2.8112,2.8192,2.8192,2.8192,2.8192,2.8192,2.8192,2.8192,2.8192,2.8192,2.8192,2.8192,2.8192,2.8192,2.8192,2.8312,2.8457,2.8617,2.8804,2.9068,2.9202,2.9228,2.9285,2.9272,2.9135,2.9108,2.9015,2.8881,2.8855,2.8711,2.8444,2.8366,2.8219,2.8192,2.8192,2.8192,2.8192,2.8192,2.8192,2.8192,2.8192,2.8192,2.8192,2.8165,2.7963,2.7514,2.567,2.3521,2.1084,1.8689,1.6361,1.4424,1.3887,1.3486,1.3397,1.3397,1.3397,1.3397,1.3397,1.3397,1.3397,1.3397,1.3397,1.3397,1.3397,1.3356,1.3315,1.3322,1.3315,1.3254,1.3173,1.3132,1.2983,1.2807,1.2712,1.2651,1.2589,1.2528]},{"header":{"parameterUnit":"m.s-1","parameterCategory":1,"la1":31.0,"la2":29.5877,"lo1":-88.7671,"lo2":-86.6584,"dy":0.0162,"dx":0.0185,"nx":115,"ny":88,"refTime":"2024-08-21T06:00:00:Z","depth":0,"parameterNumber":3,"parameterNumberName":"V-component_of_WINDS"},"data":[0.0,0.0,0.0,0.0,0.0,0.0,0.0,0.0,0.0,0.0,0.0,0.0,0.0,0.0,0.0,0.0,0.0,0.0,0.0,0.0,0.0,0.0,0.0,0.0,0.0,0.0,0.0,0.0,0.0,0.0,0.0,0.0,0.0,0.0,0.0,0.0,0.0,0.0,0.0,0.0,0.0,0.0,0.0,0.0,0.0,0.0,0.0,0.0,0.0,0.0,0.0,0.0,0.0,0.0,0.0,0.0,0.0,0.0,0.0,0.0,0.0,0.0,0.0,0.0,0.0,0.0,0.0,0.0,0.0,0.0,0.0,0.0,0.0,0.0,0.0,0.0,0.0,0.0,0.0,0.0,0.0,0.0,0.0,0.0,0.0,0.0,0.0,0.0,0.0,0.0,0.0,0.0,0.0,0.0,0.0,0.0,0.0,0.0,0.0,0.0,0.0,0.0,0.0,0.0,0.0,0.0,0.0,0.0,0.0,0.0,0.0,0.0,0.0,0.0,0.0,0.0,0.0,0.0,0.0,0.0,0.0,0.0,0.0,0.0,0.0,0.0,0.0,0.0,0.0,0.0,0.0,0.0,0.0,0.0,0.0,0.0,0.0,0.0,0.0,0.0,0.0,0.0,0.0,0.0,0.0,0.0,0.0,0.0,0.0,0.0,0.0,0.0,0.0,0.0,0.0,0.0,0.0,0.0,0.0,0.0,0.0,0.0,0.0,0.0,0.0,0.0,0.0,0.0,0.0,0.0,0.0,0.0,0.0,0.0,0.0,0.0,0.0,0.0,0.0,0.0,0.0,0.0,0.0,0.0,0.0,0.0,0.0,0.0,0.0,0.0,0.0,0.0,0.0,0.0,0.0,0.0,0.0,0.0,0.0,0.0,0.0,0.0,0.0,0.0,0.0,0.0,0.0,0.0,0.0,0.0,0.0,0.0,0.0,0.0,0.0,0.0,0.0,0.0,0.0,0.0,0.0,0.0,0.0,0.0,0.0,0.0,0.0,0.0,0.0,0.0,0.0,0.0,0.0,0.0,0.0,0.0,0.0,0.0,0.0,0.0,0.0,0.0,0.0,0.0,0.0,0.0,0.0,0.0,0.0,0.0,0.0,0.0,0.0,0.0,0.0,0.0,0.0,0.0,0.0,0.0,0.0,0.0,0.0,0.0,0.0,0.0,0.0,0.0,0.0,0.0,0.0,0.0,0.0,0.0,0.0,0.0,0.0,0.0,0.0,0.0,0.0,0.0,0.0,0.0,0.0,0.0,0.0,0.0,0.0,0.0,0.0,0.0,0.0,0.0,0.0,0.0,0.0,0.0,0.0,0.0,0.0,0.0,0.0,0.0,0.0,0.0,0.0,0.0,0.0,0.0,0.0,0.0,0.0,0.0,0.0,0.0,0.0,0.0,0.0,0.0,0.0,0.0,0.0,0.0,0.0,0.0,0.0,0.0,0.0,0.0,0.0,0.0,0.0,0.0,0.0,0.0,0.0,0.0,0.0,0.0,0.0,0.0,0.0,0.0,0.0,0.0,0.0,0.0,0.0,0.0,0.0,0.0,0.0,0.0,0.0,0.0,0.0,0.0,0.0,0.0,0.0,0.0,0.0,0.0,0.0,0.0,0.0,0.0,0.0,0.0,0.0,0.0,0.0,0.0,0.0,0.0,0.0,0.0,0.0,0.0,0.0,0.0,0.0,0.0,0.0,0.0,0.0,0.0,0.0,0.0,0.0,0.0,0.0,0.0,0.0,0.0,0.0,0.0,0.0,0.0,0.0,0.0,0.0,0.0,0.0,0.0,0.0,0.0,0.0,0.0,0.0,0.0,0.0,0.0,0.0,0.0,0.0,0.0,0.0,0.0,0.0,0.0,0.0,0.0,0.0,0.0,0.0,0.0,0.0,0.0,0.0,0.0,0.0,0.0,0.0,0.0,0.0,0.0,0.0,0.0,0.0,0.0,0.0,0.0,0.0,0.0,0.0,0.0,0.0,0.0,0.0,0.0,0.0,0.0,0.0,0.0,0.0,0.0,0.0,0.0,0.0,0.0,0.0,0.0,0.0,0.0,0.0,0.0,0.0,0.0,0.0,0.0,0.0,0.0,0.0,0.0,0.0,0.0,0.0,0.0,0.0,0.0,0.0,0.0,0.0,0.0,0.0,0.0,0.0,0.0,0.0,0.0,0.0,0.0,0.0,0.0,0.0,0.0,0.0,0.0,0.0,0.0,0.0,0.0,0.0,0.0,0.0,0.0,0.0,0.0,0.0,0.0,0.0,0.0,0.0,0.0,0.0,0.0,0.0,0.0,0.0,0.0,0.0,0.0,0.0,0.0,0.0,0.0,0.0,0.0,0.0,0.0,0.0,0.0,0.0,0.0,0.0,0.0,0.0,0.0,0.0,0.0,0.0,0.0,0.0,0.0,0.0,0.0,0.0,0.0,0.0,0.0,0.0,0.0,0.0,0.0,0.0,0.0,0.0,0.0,0.0,0.0,0.0,0.0,0.0,0.0,0.0,0.0,0.0,0.0,0.0,0.0,0.0,0.0,0.0,0.0,0.0,0.0,0.0,0.0,0.0,0.0,0.0,0.0,0.0,0.0,0.0,0.0,0.0,0.0,0.0,0.0,0.0,0.0,0.0,0.0,0.0,0.0,0.0,0.0,0.0,0.0,0.0,0.0,0.0,0.0,0.0,0.0,0.0,0.0,0.0,0.0,0.0,0.0,0.0,0.0,0.0,0.0,0.0,0.0,0.0,0.0,0.0,0.0,0.0,0.0,0.0,0.0,0.0,0.0,0.0,0.0,0.0,0.0,0.0,0.0,0.0,0.0,0.0,0.0,0.0,0.0,0.0,0.0,0.0,0.0,0.0,0.0,0.0,0.0,0.0,0.0,0.0,0.0,0.0,0.0,0.0,0.0,0.0,0.0,0.0,0.0,0.0,0.0,0.0,0.0,0.0,0.0,0.0,0.0,0.0,0.0,0.0,0.0,0.0,0.0,0.0,0.0,0.0,0.0,0.0,0.0,0.0,0.0,0.0,0.0,0.0,0.0,0.0,0.0,0.0,0.0,0.0,0.0,0.0,0.0,0.0,0.0,0.0,0.0,0.0,0.0,0.0,0.0,0.0,0.0,0.0,0.0,0.0,0.0,0.0,0.0,0.0,0.0,0.0,0.0,0.0,0.0,0.0,0.0,0.0,0.0,0.0,0.0,0.0,0.0,0.0,0.0,0.0,0.0,0.0,0.0,0.0,0.0,0.0,0.0,0.0,0.0,0.0,0.0,0.0,0.0,0.0,0.0,0.0,0.0,0.0,0.0,0.0,0.0,0.0,0.0,0.0,0.0,0.0,0.0,0.0,0.0,0.0,0.0,0.0,0.0,0.0,0.0,0.0,0.0,0.0,0.0,0.0,0.0,0.0,0.0,0.0,0.0,0.0,0.0,0.0,0.0,0.0,0.0,0.0,0.0,0.0,0.0,0.0,0.0,0.0,0.0,0.0,0.0,0.0,0.0,0.0,0.0,0.0,0.0,0.0,0.0,0.0,0.0,0.0,0.0,0.0,0.0,0.0,0.0,0.0,0.0,0.0,0.0,0.0,0.0,0.0,0.0,0.0,0.0,0.0,0.0,0.0,0.0,0.0,0.0,0.0,0.0,0.0,0.0,0.0,0.0,0.0,0.0,0.0,0.0,0.0,0.0,0.0,0.0,0.0,0.0,0.0,0.0,0.0,0.0,0.0,0.0,0.0,0.0,0.0,0.0,0.0,0.0,0.0,0.0,0.0,0.0,0.0,0.0,0.0,0.0,0.0,0.0,0.0,0.0,0.0,0.0,0.0,0.0,0.0,0.0,0.0,0.0,0.0,0.0,0.0,0.0,0.0,0.0,0.0,0.0,0.0,0.0,0.0,0.0,0.0,0.0,0.0,0.0,0.0,0.0,0.0,0.0,0.0,0.0,0.0,0.0,0.0,0.0,0.0,0.0,0.0,0.0,0.0,0.0,0.0,0.0,0.0,0.0,0.0,0.0,0.0,0.0,0.0,0.0,0.0,0.0,0.0,0.0,0.0,0.0,0.0,0.0,0.0,0.0,0.0,0.0,0.0,0.0,0.0,0.0,0.0,0.0,0.0,0.0,0.0,0.0,0.0,0.0,0.0,0.0,0.0,0.0,0.0,0.0,0.0,0.0,0.0,0.0,0.0,0.0,0.0,0.0,0.0,0.0,0.0,0.0,0.0,0.0,0.0,0.0,0.0,0.0,0.0,0.0,0.0,0.0,0.0,0.0,3.8084,0.0,0.0,0.0,0.0,0.0,0.0,0.0,0.0,0.0,0.0,0.0,0.0,0.0,0.0,0.0,0.0,0.0,0.0,0.0,0.0,0.0,0.0,0.0,0.0,0.0,0.0,0.0,0.0,0.0,0.0,0.0,0.0,0.0,0.0,0.0,0.0,0.0,0.0,0.0,0.0,0.0,0.0,0.0,0.0,0.0,0.0,0.0,0.0,0.0,0.0,0.0,0.0,0.0,0.0,0.0,0.0,0.0,0.0,0.0,0.0,0.0,0.0,0.0,0.0,0.0,0.0,0.0,0.0,0.0,0.0,0.0,0.0,0.0,0.0,0.0,0.0,0.0,0.0,0.0,0.0,0.0,0.0,0.0,0.0,0.0,0.0,0.0,0.0,0.0,0.0,0.0,0.0,0.0,0.0,0.0,0.0,0.0,0.0,0.0,0.0,0.0,0.0,0.0,0.0,0.0,0.0,0.0,0.0,0.0,0.0,4.0512,4.0512,4.0512,3.9708,3.8084,0.0,0.0,0.0,0.0,0.0,0.0,0.0,0.0,0.0,0.0,0.0,0.0,0.0,0.0,0.0,0.0,0.0,0.0,0.0,0.0,0.0,0.0,0.0,0.0,0.0,0.0,0.0,0.0,0.0,0.0,0.0,0.0,0.0,0.0,0.0,0.0,0.0,0.0,0.0,0.0,0.0,0.0,0.0,0.0,0.0,0.0,0.0,0.0,0.0,0.0,0.0,0.0,0.0,0.0,0.0,0.0,0.0,0.0,0.0,0.0,0.0,0.0,0.0,0.0,0.0,0.0,0.0,0.0,0.0,0.0,0.0,0.0,0.0,0.0,0.0,0.0,0.0,0.0,0.0,0.0,0.0,0.0,0.0,0.0,0.0,0.0,0.0,0.0,0.0,0.0,0.0,0.0,0.0,0.0,0.0,0.0,0.0,0.0,0.0,0.0,0.0,0.0,0.0,0.0,0.0,0.0,0.0,0.0,0.0,0.0,0.0,0.0,4.0512,3.9704,3.8046,0.0,0.0,0.0,0.0,0.0,0.0,0.0,0.0,0.0,0.0,0.0,0.0,0.0,0.0,0.0,0.0,0.0,0.0,0.0,0.0,0.0,0.0,0.0,0.0,0.0,0.0,0.0,0.0,0.0,0.0,0.0,0.0,0.0,0.0,0.0,0.0,0.0,0.0,0.0,0.0,0.0,0.0,0.0,0.0,0.0,0.0,0.0,0.0,0.0,0.0,0.0,0.0,0.0,0.0,0.0,0.0,0.0,0.0,0.0,0.0,0.0,0.0,0.0,0.0,0.0,0.0,0.0,0.0,0.0,0.0,0.0,0.0,0.0,0.0,0.0,0.0,0.0,0.0,0.0,0.0,0.0,0.0,0.0,0.0,0.0,0.0,0.0,0.0,0.0,0.0,0.0,0.0,0.0,0.0,0.0,0.0,0.0,0.0,0.0,0.0,0.0,0.0,0.0,0.0,0.0,0.0,0.0,0.0,0.0,0.0,4.0512,4.0512,4.0473,0.0,3.8046,0.0,0.0,0.0,0.0,0.0,0.0,0.0,0.0,0.0,0.0,0.0,0.0,0.0,0.0,0.0,0.0,0.0,0.0,0.0,0.0,0.0,0.0,0.0,0.0,0.0,0.0,0.0,0.0,0.0,0.0,0.0,0.0,0.0,0.0,0.0,0.0,0.0,0.0,0.0,0.0,0.0,0.0,0.0,0.0,0.0,0.0,0.0,0.0,0.0,0.0,0.0,0.0,0.0,0.0,0.0,0.0,0.0,0.0,0.0,0.0,0.0,0.0,0.0,0.0,0.0,0.0,0.0,0.0,0.0,0.0,0.0,0.0,0.0,0.0,0.0,0.0,0.0,0.0,0.0,0.0,0.0,0.0,0.0,0.0,0.0,0.0,0.0,0.0,0.0,0.0,0.0,0.0,0.0,0.0,0.0,0.0,0.0,0.0,0.0,0.0,0.0,0.0,0.0,0.0,0.0,0.0,0.0,0.0,0.0,0.0,0.0,4.0512,3.955,3.87,0.0,0.0,0.0,0.0,0.0,0.0,0.0,0.0,0.0,0.0,0.0,0.0,0.0,0.0,0.0,0.0,0.0,0.0,0.0,0.0,0.0,0.0,0.0,0.0,0.0,0.0,0.0,0.0,0.0,0.0,0.0,0.0,0.0,0.0,0.0,0.0,0.0,0.0,0.0,0.0,0.0,0.0,0.0,0.0,0.0,0.0,0.0,0.0,0.0,0.0,0.0,0.0,0.0,0.0,0.0,0.0,0.0,0.0,0.0,0.0,0.0,0.0,0.0,0.0,0.0,0.0,0.0,0.0,0.0,0.0,0.0,0.0,0.0,0.0,0.0,0.0,0.0,0.0,0.0,0.0,0.0,0.0,0.0,0.0,0.0,0.0,0.0,0.0,0.0,0.0,0.0,0.0,0.0,0.0,0.0,0.0,0.0,0.0,0.0,0.0,0.0,0.0,0.0,0.0,0.0,0.0,0.0,0.0,0.0,0.0,4.0092,0.0,4.0439,3.8857,3.8004,3.8007,0.0,0.0,0.0,0.0,0.0,0.0,0.0,0.0,0.0,0.0,0.0,0.0,0.0,0.0,0.0,0.0,0.0,0.0,0.0,0.0,0.0,0.0,0.0,0.0,0.0,0.0,0.0,0.0,0.0,0.0,0.0,0.0,0.0,0.0,0.0,0.0,0.0,0.0,0.0,0.0,0.0,0.0,0.0,0.0,0.0,0.0,0.0,0.0,0.0,0.0,0.0,0.0,0.0,0.0,0.0,0.0,0.0,0.0,0.0,0.0,0.0,0.0,0.0,0.0,0.0,0.0,0.0,0.0,0.0,0.0,0.0,0.0,0.0,0.0,0.0,0.0,0.0,0.0,0.0,0.0,0.0,0.0,0.0,0.0,0.0,0.0,0.0,0.0,0.0,0.0,0.0,0.0,0.0,0.0,0.0,0.0,0.0,0.0,0.0,0.0,0.0,0.0,0.0,0.0,0.0,0.0,0.0,0.0,0.0,4.0092,4.0512,4.0477,3.8896,3.8004,0.0,0.0,0.0,0.0,0.0,0.0,0.0,0.0,0.0,0.0,0.0,0.0,0.0,0.0,0.0,0.0,0.0,0.0,0.0,0.0,0.0,0.0,0.0,0.0,0.0,0.0,0.0,0.0,0.0,0.0,0.0,0.0,0.0,0.0,0.0,0.0,0.0,0.0,0.0,0.0,0.0,0.0,0.0,0.0,0.0,0.0,0.0,0.0,0.0,0.0,0.0,0.0,0.0,0.0,0.0,0.0,0.0,0.0,0.0,0.0,0.0,0.0,0.0,0.0,0.0,0.0,0.0,0.0,0.0,0.0,0.0,0.0,0.0,0.0,0.0,0.0,0.0,0.0,0.0,0.0,0.0,0.0,0.0,0.0,0.0,0.0,0.0,0.0,0.0,0.0,0.0,0.0,0.0,0.0,0.0,0.0,0.0,0.0,0.0,0.0,0.0,0.0,0.0,0.0,0.0,0.0,0.0,0.0,0.0,4.0012,4.0362,4.0512,4.0439,3.8857,3.8004,0.0,0.0,0.0,0.0,0.0,0.0,0.0,0.0,0.0,0.0,0.0,0.0,0.0,0.0,0.0,0.0,0.0,0.0,0.0,0.0,0.0,0.0,0.0,0.0,0.0,0.0,0.0,0.0,0.0,0.0,0.0,0.0,0.0,0.0,0.0,0.0,0.0,0.0,0.0,0.0,0.0,0.0,0.0,0.0,0.0,0.0,0.0,0.0,0.0,0.0,0.0,0.0,0.0,0.0,0.0,0.0,0.0,0.0,0.0,0.0,0.0,0.0,0.0,0.0,0.0,0.0,0.0,0.0,0.0,0.0,0.0,0.0,0.0,0.0,0.0,0.0,0.0,0.0,0.0,0.0,0.0,0.0,0.0,0.0,0.0,0.0,0.0,0.0,0.0,0.0,0.0,0.0,0.0,0.0,0.0,0.0,0.0,0.0,0.0,0.0,0.0,0.0,0.0,0.0,0.0,0.0,0.0,0.0,0.0,4.0881,0.0,4.0951,0.0,3.9546,3.8546,0.0,0.0,0.0,0.0,0.0,0.0,0.0,0.0,0.0,0.0,0.0,0.0,0.0,0.0,0.0,0.0,0.0,0.0,0.0,0.0,0.0,0.0,0.0,0.0,0.0,0.0,0.0,0.0,0.0,0.0,0.0,0.0,0.0,0.0,0.0,0.0,0.0,0.0,0.0,0.0,0.0,0.0,0.0,0.0,0.0,0.0,0.0,0.0,0.0,0.0,0.0,0.0,0.0,0.0,0.0,0.0,0.0,0.0,0.0,0.0,0.0,0.0,0.0,0.0,0.0,0.0,0.0,0.0,0.0,0.0,0.0,0.0,0.0,0.0,0.0,0.0,0.0,0.0,0.0,0.0,0.0,0.0,0.0,0.0,0.0,0.0,0.0,0.0,0.0,0.0,0.0,0.0,0.0,0.0,0.0,0.0,0.0,0.0,0.0,0.0,0.0,0.0,0.0,0.0,0.0,0.0,0.0,0.0,3.9381,4.1767,4.1882,4.1859,4.1777,4.0896,3.9669,0.0,0.0,0.0,0.0,0.0,0.0,0.0,0.0,0.0,0.0,0.0,0.0,0.0,0.0,0.0,0.0,0.0,0.0,0.0,0.0,0.0,0.0,0.0,0.0,0.0,0.0,0.0,0.0,0.0,0.0,0.0,0.0,0.0,0.0,0.0,0.0,0.0,0.0,0.0,0.0,0.0,0.0,0.0,0.0,0.0,0.0,0.0,0.0,0.0,0.0,0.0,0.0,0.0,0.0,0.0,0.0,0.0,0.0,0.0,0.0,0.0,0.0,0.0,0.0,0.0,0.0,0.0,0.0,0.0,0.0,0.0,0.0,0.0,0.0,0.0,0.0,0.0,0.0,0.0,0.0,0.0,0.0,0.0,0.0,0.0,0.0,0.0,0.0,0.0,0.0,0.0,0.0,0.0,0.0,0.0,0.0,0.0,0.0,0.0,0.0,0.0,0.0,0.0,0.0,0.0,0.0,0.0,0.0,0.0,4.1889,4.2433,4.2722,4.2668,4.1258,4.0012,0.0,0.0,0.0,0.0,0.0,0.0,0.0,0.0,0.0,0.0,0.0,0.0,0.0,0.0,0.0,0.0,0.0,0.0,0.0,0.0,0.0,0.0,0.0,0.0,0.0,0.0,0.0,0.0,0.0,0.0,0.0,0.0,0.0,0.0,0.0,0.0,0.0,0.0,0.0,0.0,0.0,0.0,0.0,0.0,0.0,0.0,0.0,0.0,0.0,0.0,0.0,0.0,0.0,0.0,0.0,0.0,0.0,0.0,0.0,0.0,0.0,0.0,0.0,0.0,0.0,0.0,0.0,0.0,0.0,0.0,0.0,0.0,0.0,0.0,0.0,0.0,0.0,0.0,0.0,0.0,0.0,0.0,0.0,0.0,0.0,0.0,0.0,0.0,0.0,0.0,0.0,0.0,0.0,0.0,0.0,0.0,0.0,0.0,0.0,0.0,0.0,0.0,0.0,0.0,0.0,0.0,0.0,0.0,0.0,4.3454,4.3895,4.4253,4.4512,4.2832,4.1243,3.9785,0.0,0.0,0.0,0.0,0.0,0.0,0.0,0.0,0.0,0.0,0.0,0.0,0.0,0.0,0.0,0.0,0.0,0.0,0.0,0.0,0.0,0.0,0.0,0.0,0.0,0.0,0.0,0.0,0.0,0.0,0.0,0.0,0.0,0.0,0.0,0.0,0.0,0.0,0.0,0.0,0.0,0.0,0.0,0.0,0.0,0.0,0.0,0.0,0.0,0.0,0.0,0.0,0.0,0.0,0.0,0.0,0.0,0.0,0.0,0.0,0.0,0.0,0.0,0.0,0.0,0.0,0.0,0.0,0.0,0.0,0.0,0.0,0.0,0.0,0.0,0.0,0.0,0.0,0.0,0.0,0.0,0.0,0.0,0.0,0.0,0.0,0.0,0.0,0.0,0.0,0.0,0.0,0.0,0.0,0.0,0.0,0.0,0.0,0.0,0.0,0.0,0.0,0.0,0.0,0.0,0.0,0.0,0.0,4.6317,4.6111,4.6329,4.6925,4.5252,4.3205,0.0,0.0,0.0,0.0,0.0,0.0,0.0,0.0,0.0,0.0,0.0,0.0,0.0,0.0,0.0,0.0,0.0,0.0,0.0,0.0,0.0,0.0,0.0,0.0,0.0,0.0,0.0,0.0,0.0,0.0,0.0,0.0,0.0,0.0,0.0,0.0,0.0,0.0,0.0,0.0,0.0,0.0,0.0,0.0,0.0,0.0,0.0,0.0,0.0,0.0,0.0,0.0,0.0,0.0,0.0,0.0,0.0,0.0,0.0,0.0,0.0,0.0,0.0,0.0,0.0,0.0,0.0,0.0,0.0,0.0,0.0,0.0,0.0,0.0,0.0,0.0,0.0,0.0,0.0,0.0,0.0,0.0,0.0,0.0,0.0,0.0,0.0,0.0,0.0,0.0,0.0,0.0,0.0,0.0,0.0,0.0,0.0,0.0,0.0,0.0,0.0,0.0,0.0,0.0,0.0,0.0,0.0,0.0,0.0,4.8751,4.8844,4.8569,4.8002,4.62,4.4376,0.0,0.0,0.0,0.0,0.0,0.0,0.0,0.0,0.0,0.0,0.0,0.0,0.0,0.0,0.0,0.0,0.0,0.0,0.0,0.0,0.0,0.0,0.0,0.0,0.0,0.0,0.0,0.0,0.0,0.0,0.0,0.0,0.0,0.0,0.0,0.0,0.0,0.0,0.0,0.0,0.0,0.0,0.0,0.0,0.0,0.0,0.0,0.0,0.0,0.0,0.0,0.0,0.0,0.0,0.0,0.0,0.0,0.0,0.0,0.0,0.0,0.0,0.0,0.0,0.0,0.0,0.0,0.0,0.0,0.0,0.0,0.0,0.0,0.0,0.0,0.0,0.0,0.0,0.0,0.0,0.0,0.0,0.0,0.0,0.0,0.0,0.0,0.0,0.0,0.0,0.0,0.0,0.0,0.0,0.0,0.0,0.0,0.0,0.0,0.0,0.0,0.0,0.0,0.0,0.0,0.0,0.0,0.0,4.7334,4.9975,5.0275,5.016,4.9578,4.744,4.5441,0.0,0.0,0.0,0.0,0.0,0.0,0.0,0.0,0.0,0.0,0.0,0.0,0.0,0.0,0.0,0.0,0.0,0.0,0.0,0.0,0.0,0.0,0.0,0.0,0.0,0.0,0.0,0.0,0.0,0.0,0.0,0.0,0.0,0.0,0.0,0.0,0.0,0.0,0.0,0.0,0.0,0.0,0.0,0.0,0.0,0.0,0.0,0.0,0.0,0.0,0.0,0.0,0.0,0.0,0.0,0.0,0.0,0.0,0.0,0.0,0.0,0.0,0.0,0.0,0.0,0.0,0.0,0.0,0.0,0.0,0.0,0.0,0.0,0.0,0.0,0.0,0.0,0.0,0.0,0.0,0.0,0.0,0.0,0.0,0.0,0.0,0.0,0.0,0.0,0.0,0.0,0.0,0.0,0.0,0.0,0.0,0.0,0.0,0.0,0.0,0.0,0.0,0.0,0.0,0.0,0.0,0.0,0.0,4.843,5.0154,5.0878,5.1208,5.1122,4.869,4.6471,0.0,0.0,0.0,0.0,0.0,0.0,0.0,0.0,0.0,0.0,0.0,0.0,0.0,0.0,0.0,0.0,0.0,0.0,0.0,0.0,0.0,0.0,0.0,0.0,0.0,0.0,0.0,0.0,0.0,0.0,0.0,0.0,0.0,0.0,0.0,0.0,0.0,0.0,0.0,0.0,0.0,0.0,0.0,0.0,0.0,0.0,0.0,0.0,0.0,0.0,0.0,0.0,0.0,0.0,0.0,0.0,0.0,0.0,0.0,0.0,0.0,0.0,0.0,0.0,0.0,0.0,0.0,0.0,0.0,0.0,0.0,0.0,0.0,0.0,0.0,0.0,0.0,0.0,0.0,0.0,0.0,0.0,0.0,0.0,0.0,0.0,0.0,0.0,0.0,0.0,0.0,0.0,0.0,0.0,0.0,0.0,0.0,0.0,0.0,0.0,0.0,0.0,0.0,0.0,0.0,0.0,0.0,0.0,4.8435,5.0154,5.0975,5.1318,5.1204,4.9281,4.7373,0.0,0.0,0.0,0.0,0.0,0.0,0.0,0.0,0.0,0.0,0.0,0.0,0.0,0.0,0.0,0.0,0.0,0.0,0.0,0.0,0.0,0.0,0.0,0.0,0.0,0.0,0.0,0.0,0.0,0.0,0.0,0.0,0.0,0.0,0.0,0.0,0.0,0.0,0.0,0.0,0.0,0.0,0.0,0.0,0.0,0.0,0.0,0.0,4.7548,0.0,0.0,0.0,0.0,0.0,0.0,0.0,0.0,0.0,0.0,0.0,0.0,0.0,0.0,0.0,0.0,0.0,0.0,0.0,0.0,0.0,0.0,0.0,0.0,0.0,0.0,0.0,0.0,0.0,0.0,0.0,0.0,0.0,0.0,0.0,0.0,0.0,0.0,0.0,0.0,0.0,0.0,0.0,0.0,0.0,0.0,0.0,0.0,0.0,0.0,0.0,0.0,0.0,0.0,0.0,0.0,0.0,0.0,0.0,4.9022,5.0703,5.1211,5.1366,5.1236,4.9941,4.8423,0.0,0.0,0.0,0.0,0.0,0.0,0.0,0.0,0.0,0.0,0.0,0.0,0.0,0.0,0.0,0.0,0.0,0.0,0.0,0.0,0.0,0.0,0.0,0.0,0.0,0.0,0.0,0.0,0.0,0.0,0.0,0.0,0.0,0.0,0.0,0.0,0.0,0.0,0.0,0.0,0.0,0.0,0.0,0.0,0.0,0.0,0.0,0.0,0.0,0.0,0.0,0.0,0.0,0.0,0.0,0.0,0.0,0.0,0.0,0.0,0.0,0.0,0.0,0.0,0.0,0.0,0.0,0.0,0.0,0.0,0.0,0.0,0.0,0.0,0.0,0.0,0.0,0.0,0.0,0.0,0.0,0.0,0.0,0.0,0.0,0.0,0.0,0.0,0.0,0.0,0.0,0.0,0.0,0.0,0.0,0.0,0.0,0.0,0.0,0.0,0.0,0.0,0.0,0.0,0.0,0.0,0.0,4.8006,4.9687,5.1328,5.1406,5.1406,5.1406,5.0545,4.9228,4.738,0.0,0.0,0.0,0.0,0.0,0.0,0.0,0.0,0.0,0.0,0.0,0.0,0.0,0.0,0.0,0.0,0.0,0.0,0.0,0.0,0.0,0.0,0.0,0.0,0.0,0.0,0.0,0.0,0.0,0.0,0.0,0.0,0.0,0.0,0.0,0.0,0.0,0.0,4.4816,4.7048,0.0,0.0,0.0,0.0,0.0,0.0,0.0,0.0,4.8615,0.0,0.0,0.0,0.0,0.0,0.0,0.0,0.0,0.0,0.0,0.0,0.0,0.0,0.0,0.0,0.0,0.0,0.0,0.0,0.0,0.0,0.0,0.0,0.0,0.0,0.0,0.0,0.0,0.0,0.0,0.0,0.0,0.0,0.0,0.0,0.0,0.0,0.0,0.0,0.0,0.0,0.0,0.0,0.0,0.0,0.0,0.0,0.0,0.0,0.0,0.0,0.0,0.0,0.0,0.0,0.0,4.625,4.8008,4.9726,5.1328,5.1406,5.1406,5.1367,5.0625,4.9332,4.7548,0.0,0.0,0.0,0.0,0.0,0.0,0.0,0.0,0.0,0.0,0.0,0.0,0.0,0.0,0.0,0.0,0.0,0.0,0.0,0.0,0.0,0.0,0.0,0.0,0.0,0.0,0.0,0.0,0.0,0.0,0.0,0.0,0.0,0.0,0.0,0.0,0.0,0.0,0.0,4.9553,5.0861,0.0,0.0,0.0,0.0,0.0,0.0,0.0,0.0,5.0024,0.0,0.0,0.0,0.0,0.0,0.0,0.0,0.0,0.0,0.0,0.0,0.0,0.0,0.0,0.0,0.0,0.0,0.0,0.0,0.0,0.0,0.0,0.0,0.0,0.0,0.0,0.0,0.0,0.0,0.0,0.0,0.0,0.0,0.0,0.0,0.0,0.0,0.0,0.0,0.0,0.0,0.0,0.0,0.0,0.0,0.0,0.0,0.0,0.0,0.0,0.0,0.0,0.0,0.0,0.0,4.6914,4.8711,5.0156,5.1328,5.1406,5.1211,5.0781,5.0391,4.9179,0.0,0.0,0.0,0.0,0.0,0.0,0.0,0.0,0.0,0.0,0.0,0.0,0.0,0.0,0.0,0.0,0.0,0.0,0.0,0.0,0.0,0.0,0.0,0.0,0.0,0.0,0.0,0.0,0.0,0.0,0.0,0.0,0.0,0.0,0.0,0.0,0.0,0.0,0.0,0.0,5.1207,5.2587,5.4241,0.0,0.0,0.0,0.0,0.0,0.0,5.2448,5.1672,0.0,0.0,0.0,0.0,0.0,0.0,0.0,0.0,0.0,0.0,0.0,0.0,0.0,0.0,0.0,0.0,0.0,0.0,0.0,0.0,0.0,0.0,0.0,0.0,0.0,0.0,0.0,0.0,0.0,0.0,0.0,0.0,0.0,0.0,0.0,0.0,0.0,0.0,0.0,0.0,0.0,0.0,0.0,0.0,0.0,0.0,0.0,0.0,0.0,0.0,0.0,0.0,0.0,0.0,0.0,4.7578,4.9297,5.0586,5.1367,5.1406,5.1016,5.0234,5.0039,4.8711,0.0,0.0,0.0,0.0,0.0,0.0,0.0,0.0,0.0,0.0,0.0,0.0,0.0,0.0,0.0,0.0,0.0,0.0,0.0,0.0,0.0,0.0,0.0,0.0,0.0,0.0,0.0,0.0,0.0,0.0,0.0,0.0,0.0,0.0,0.0,0.0,0.0,0.0,0.0,0.0,0.0,5.4087,5.5708,5.5549,0.0,0.0,0.0,0.0,5.3972,5.3622,0.0,0.0,0.0,0.0,0.0,0.0,0.0,0.0,0.0,0.0,0.0,0.0,0.0,0.0,0.0,0.0,0.0,0.0,0.0,0.0,0.0,0.0,0.0,0.0,0.0,0.0,0.0,0.0,0.0,0.0,0.0,0.0,0.0,0.0,0.0,0.0,0.0,0.0,0.0,0.0,0.0,0.0,0.0,0.0,0.0,0.0,0.0,0.0,0.0,0.0,0.0,0.0,0.0,0.0,0.0,0.0,4.7573,4.9296,5.0586,5.1367,5.1406,5.1016,5.0234,4.9453,4.7812,0.0,0.0,0.0,0.0,0.0,0.0,0.0,0.0,0.0,0.0,0.0,0.0,0.0,0.0,0.0,0.0,0.0,0.0,0.0,0.0,0.0,0.0,0.0,0.0,0.0,0.0,0.0,0.0,0.0,0.0,0.0,0.0,0.0,0.0,0.0,0.0,0.0,0.0,0.0,0.0,0.0,5.4934,5.6599,5.7434,5.7857,0.0,0.0,5.6555,5.6555,5.5242,0.0,0.0,0.0,0.0,0.0,0.0,0.0,0.0,0.0,0.0,0.0,0.0,0.0,0.0,0.0,0.0,0.0,0.0,0.0,0.0,0.0,0.0,0.0,0.0,0.0,0.0,0.0,0.0,0.0,0.0,0.0,0.0,0.0,0.0,0.0,0.0,0.0,0.0,0.0,0.0,0.0,0.0,0.0,0.0,0.0,0.0,0.0,0.0,0.0,0.0,0.0,0.0,0.0,0.0,0.0,4.6475,4.8151,4.9857,5.0922,5.1274,5.1365,5.0781,4.9492,4.9101,4.7422,0.0,0.0,0.0,0.0,0.0,0.0,0.0,0.0,0.0,0.0,0.0,0.0,0.0,0.0,0.0,0.0,0.0,0.0,0.0,0.0,0.0,0.0,0.0,0.0,0.0,0.0,0.0,0.0,0.0,0.0,0.0,0.0,0.0,0.0,0.0,0.0,0.0,0.0,0.0,0.0,0.0,0.0,5.7555,5.8434,0.0,0.0,0.0,5.7555,5.7099,0.0,0.0,0.0,0.0,0.0,0.0,0.0,0.0,0.0,0.0,0.0,0.0,0.0,0.0,0.0,0.0,0.0,0.0,0.0,0.0,0.0,0.0,0.0,0.0,0.0,0.0,0.0,0.0,0.0,0.0,0.0,0.0,0.0,0.0,0.0,0.0,0.0,0.0,0.0,0.0,0.0,0.0,0.0,0.0,0.0,0.0,0.0,0.0,0.0,0.0,0.0,0.0,0.0,0.0,0.0,0.0,0.0,4.8571,5.0295,5.1175,5.1177,5.1311,5.0661,4.9216,4.8984,0.0,0.0,0.0,0.0,0.0,0.0,0.0,0.0,0.0,0.0,0.0,0.0,0.0,0.0,0.0,0.0,0.0,0.0,0.0,0.0,0.0,0.0,0.0,0.0,0.0,0.0,0.0,4.0686,0.0,0.0,0.0,0.0,0.0,0.0,0.0,0.0,0.0,0.0,0.0,0.0,0.0,0.0,5.7396,5.8434,5.9281,5.9819,0.0,0.0,5.828,5.7478,5.6401,5.5192,0.0,0.0,0.0,0.0,0.0,0.0,0.0,0.0,0.0,0.0,0.0,0.0,0.0,0.0,0.0,0.0,0.0,0.0,0.0,0.0,0.0,0.0,0.0,0.0,0.0,0.0,0.0,0.0,0.0,0.0,0.0,0.0,0.0,0.0,0.0,0.0,0.0,0.0,0.0,0.0,0.0,0.0,0.0,0.0,0.0,0.0,0.0,0.0,0.0,0.0,0.0,0.0,0.0,0.0,0.0,4.8497,5.0233,5.1103,5.1108,5.1171,5.0779,4.9959,4.9253,4.8008,0.0,0.0,0.0,0.0,0.0,0.0,0.0,0.0,0.0,0.0,0.0,0.0,0.0,0.0,0.0,0.0,0.0,0.0,0.0,0.0,0.0,0.0,0.0,0.0,0.0,0.0,0.0,0.0,0.0,0.0,0.0,0.0,0.0,0.0,0.0,0.0,0.0,0.0,0.0,0.0,0.0,5.7621,5.9204,6.0165,6.0704,0.0,0.0,5.9127,5.8357,5.678,5.5395,5.4544,0.0,0.0,0.0,0.0,0.0,0.0,0.0,0.0,0.0,0.0,0.0,0.0,0.0,0.0,0.0,0.0,0.0,0.0,0.0,0.0,0.0,0.0,0.0,0.0,0.0,0.0,0.0,0.0,0.0,0.0,0.0,0.0,0.0,0.0,0.0,0.0,0.0,0.0,0.0,0.0,0.0,0.0,0.0,0.0,0.0,0.0,0.0,0.0,0.0,0.0,0.0,0.0,0.0,4.6719,4.8382,5.0109,5.0953,5.0959,5.1062,5.08,5.0029,4.9738,4.8546,0.0,0.0,0.0,0.0,0.0,0.0,0.0,0.0,0.0,0.0,0.0,0.0,0.0,0.0,0.0,0.0,0.0,0.0,0.0,0.0,0.0,0.0,0.0,0.0,0.0,0.0,0.0,0.0,4.7648,4.8781,4.9089,0.0,0.0,0.0,0.0,0.0,0.0,0.0,0.0,0.0,0.0,5.8781,5.939,5.9781,0.0,0.0,6.005,5.9242,5.8434,5.728,5.6055,5.4703,5.3495,0.0,0.0,0.0,0.0,0.0,0.0,0.0,0.0,0.0,0.0,0.0,0.0,0.0,0.0,0.0,0.0,0.0,0.0,0.0,0.0,0.0,0.0,0.0,0.0,0.0,0.0,0.0,0.0,0.0,0.0,0.0,0.0,0.0,0.0,0.0,0.0,0.0,0.0,0.0,0.0,0.0,0.0,0.0,0.0,0.0,0.0,0.0,0.0,0.0,0.0,0.0,0.0,4.6858,4.8282,4.9961,5.084,5.084,5.0985,5.0804,5.0303,5.0085,4.9189,0.0,0.0,0.0,0.0,0.0,0.0,0.0,0.0,0.0,0.0,0.0,0.0,0.0,0.0,0.0,0.0,0.0,0.0,0.0,0.0,0.0,0.0,0.0,0.0,0.0,0.0,0.0,0.0,4.9686,5.0623,5.0852,0.0,0.0,0.0,0.0,0.0,0.0,0.0,0.0,0.0,0.0,5.9896,5.9896,5.9896,6.0127,6.071,6.005,5.9319,5.8736,5.7517,5.6285,5.5395,0.0,0.0,0.0,0.0,0.0,0.0,0.0,0.0,0.0,0.0,0.0,0.0,0.0,0.0,0.0,0.0,0.0,0.0,0.0,0.0,0.0,0.0,0.0,0.0,0.0,0.0,0.0,4.3162,0.0,0.0,4.1927,0.0,0.0,0.0,0.0,0.0,0.0,0.0,0.0,0.0,0.0,0.0,0.0,0.0,0.0,0.0,0.0,0.0,0.0,0.0,0.0,0.0,0.0,4.7382,4.8197,4.986,5.0721,5.0726,5.0831,5.0903,5.0847,5.033,4.9991,4.9878,0.0,0.0,0.0,0.0,0.0,0.0,0.0,0.0,0.0,0.0,0.0,0.0,0.0,0.0,0.0,0.0,0.0,0.0,0.0,0.0,0.0,0.0,0.0,0.0,0.0,0.0,4.9999,5.0898,5.1718,0.0,0.0,0.0,0.0,0.0,0.0,0.0,0.0,0.0,0.0,6.0278,6.0787,6.0787,6.0748,6.071,6.0781,6.0089,5.9473,5.9473,5.7396,5.6016,0.0,0.0,0.0,0.0,0.0,0.0,0.0,0.0,0.0,0.0,0.0,0.0,0.0,0.0,0.0,0.0,0.0,0.0,0.0,0.0,0.0,0.0,0.0,0.0,0.0,0.0,0.0,4.6509,4.724,0.0,0.0,0.0,0.0,0.0,0.0,0.0,0.0,0.0,0.0,0.0,5.1177,5.0864,0.0,0.0,0.0,0.0,0.0,0.0,0.0,0.0,0.0,0.0,0.0,0.0,4.7683,4.9041,5.0129,5.0707,5.0673,5.0823,5.0949,5.102,5.0871,5.0595,5.0111,0.0,0.0,0.0,0.0,0.0,0.0,0.0,0.0,0.0,0.0,0.0,0.0,0.0,0.0,0.0,0.0,0.0,0.0,0.0,0.0,0.0,0.0,0.0,0.0,0.0,5.0,0.0,0.0,0.0,0.0,0.0,0.0,0.0,0.0,0.0,0.0,0.0,6.0066,6.1164,6.1526,6.1672,6.1672,6.0666,6.0127,0.0,0.0,0.0,0.0,0.0,0.0,0.0,0.0,0.0,0.0,0.0,0.0,0.0,0.0,5.6779,5.5054,5.4735,5.4729,5.4729,0.0,0.0,0.0,0.0,0.0,0.0,0.0,0.0,0.0,0.0,0.0,0.0,0.0,0.0,4.9543,0.0,4.9659,0.0,0.0,0.0,0.0,0.0,0.0,0.0,0.0,5.2702,5.341,5.3677,5.3132,5.2878,0.0,5.1177,4.9256,0.0,0.0,0.0,0.0,0.0,0.0,0.0,0.0,4.8403,4.9504,5.0283,5.0707,5.0717,5.0823,5.0949,5.1058,5.1146,5.0876,5.0195,4.9101,4.7969,0.0,0.0,0.0,0.0,0.0,0.0,0.0,0.0,0.0,0.0,0.0,0.0,0.0,0.0,0.0,0.0,0.0,0.0,0.0,0.0,0.0,0.0,0.0,5.1484,0.0,0.0,0.0,0.0,0.0,0.0,0.0,0.0,0.0,5.953,6.0799,6.194,6.2485,6.2548,6.2403,6.2133,0.0,0.0,0.0,0.0,0.0,0.0,0.0,5.9319,5.8813,5.8704,5.8813,5.9127,5.9858,6.0242,5.9704,0.0,0.0,5.7075,5.652,5.652,5.6526,5.6756,5.6789,5.6213,5.6366,5.6481,0.0,0.0,0.0,0.0,0.0,0.0,0.0,0.0,5.289,5.2774,0.0,5.2038,0.0,0.0,0.0,0.0,0.0,5.2472,0.0,0.0,5.4857,5.528,5.4554,5.4516,5.4516,5.4434,5.2813,5.1991,5.1843,4.878,0.0,0.0,0.0,0.0,0.0,0.0,4.9521,4.9602,5.0302,5.0697,5.0712,5.0847,5.0918,5.0939,5.1123,5.0879,5.0273,5.0234,4.9453,4.7773,4.6914,0.0,0.0,0.0,0.0,0.0,0.0,0.0,0.0,0.0,0.0,0.0,0.0,0.0,0.0,0.0,0.0,0.0,0.0,0.0,0.0,5.1758,0.0,0.0,0.0,0.0,0.0,0.0,0.0,0.0,0.0,0.0,6.135,6.2545,6.3442,6.3486,0.0,0.0,0.0,0.0,6.0819,6.0864,6.0819,6.0781,6.0781,6.0089,5.955,5.955,0.0,0.0,6.0633,6.1518,6.2095,6.2095,6.2666,6.2314,5.9083,5.8538,5.8544,5.8544,5.9115,5.9583,5.9627,5.9967,6.0352,5.5626,0.0,0.0,0.0,0.0,5.2626,5.3626,5.5511,5.5131,5.4857,5.4626,5.4626,0.0,0.0,0.0,0.0,0.0,0.0,5.4126,5.4164,5.5203,5.5593,5.5362,5.5362,5.5357,5.5318,5.4241,5.3785,5.3733,5.2271,5.0542,4.8607,0.0,0.0,0.0,0.0,4.9989,5.0483,5.0839,5.1004,5.0966,5.1072,5.1164,5.1253,5.1316,5.1248,5.1055,5.1055,5.0547,4.9531,4.9219,0.0,0.0,0.0,0.0,0.0,0.0,0.0,0.0,0.0,0.0,0.0,0.0,0.0,0.0,0.0,0.0,0.0,0.0,0.0,5.1836,5.2969,5.4141,0.0,0.0,0.0,0.0,0.0,0.0,0.0,0.0,0.0,6.3864,6.4111,6.4514,0.0,0.0,6.4166,6.3897,6.2633,6.171,6.171,6.121,0.0,6.0781,6.0589,6.0441,6.0435,6.0441,6.0512,6.0742,6.1973,6.2743,6.221,6.3281,6.3705,6.2275,6.1852,6.1852,6.1891,6.2044,6.2012,6.1518,6.1595,6.1672,5.9973,5.7044,5.5434,5.5203,5.5934,5.5434,5.628,5.794,5.744,5.7209,5.7209,5.6896,5.5978,5.4703,5.4703,0.0,0.0,0.0,5.5818,5.5516,5.5978,5.6016,5.5708,5.5708,5.5708,5.567,5.5203,5.4991,5.5056,5.4312,5.3236,5.1833,0.0,0.0,5.0303,5.0324,5.0522,5.0972,5.1063,5.1091,5.1094,5.1163,5.1268,5.1406,5.1406,5.1406,5.1406,5.1406,5.1172,5.0703,5.0391,4.9492,0.0,0.0,0.0,0.0,0.0,0.0,0.0,0.0,0.0,0.0,0.0,4.9492,5.0351,0.0,0.0,0.0,5.1172,5.2266,5.3594,5.4844,0.0,0.0,0.0,0.0,0.0,0.0,0.0,6.3655,6.4579,6.5211,6.5304,6.5269,6.5362,6.5833,6.5166,6.4622,6.4622,0.0,6.2101,6.2101,6.1364,6.0781,6.0781,6.0781,6.0781,6.0781,6.0781,6.0941,6.1325,6.2435,6.3198,6.3281,6.4205,6.4936,6.4436,6.432,6.4045,6.3468,6.3583,6.3622,6.3166,6.3364,6.3441,6.3506,6.316,5.9248,5.8017,5.8583,5.8588,5.8973,5.9588,5.9588,5.955,5.9429,5.8736,5.7896,5.7093,5.7093,0.0,5.7132,5.7934,5.7819,5.7099,5.7016,5.6555,5.5818,5.5747,5.5708,5.5708,5.5691,5.5784,5.5838,5.5211,5.4961,5.5053,5.3436,5.2177,5.1359,5.1195,5.1148,5.1105,5.1131,5.1124,5.1124,5.1175,5.1271,5.1406,5.1406,5.1406,5.1406,5.1406,5.1406,5.1367,5.0703,5.0273,5.0195,0.0,0.0,0.0,0.0,0.0,0.0,0.0,0.0,0.0,0.0,0.0,0.0,0.0,0.0,0.0,5.3789,0.0,5.5625,5.7226,0.0,0.0,0.0,6.2265,6.3124,6.3903,6.4622,6.5252,0.0,0.0,6.5948,6.5999,6.5978,6.591,6.5205,6.4705,6.4705,6.3281,6.2172,6.2249,6.1402,6.0819,6.0781,6.0781,6.0858,6.0935,6.0858,6.1095,6.1903,6.2743,6.3583,6.4359,6.5282,6.5865,6.5865,6.5788,6.5397,6.3858,6.4166,6.4705,6.4666,6.5166,6.5205,6.5282,6.5128,6.3474,6.2166,6.121,6.1172,6.0941,6.0473,6.0512,6.0127,5.9511,5.9281,5.8781,5.7973,5.7973,5.7973,5.8011,5.8198,5.8204,5.7934,5.7324,5.6907,5.667,5.6016,5.5708,5.5681,5.5793,5.5866,5.5897,5.5976,5.573,5.513,5.4744,5.3801,5.2249,5.1634,5.1252,5.1183,5.1303,5.1317,5.1317,5.1323,5.1366,5.1406,5.1406,5.1406,5.1406,5.1406,5.1406,5.1406,5.1211,5.082,5.0234,5.0,0.0,0.0,0.0,0.0,0.0,0.0,0.0,0.0,0.0,5.4453,5.4687,0.0,5.664,0.0,5.6445,5.7578,5.9062,6.0156,0.0,0.0,6.3047,6.4023,6.4883,6.5023,6.5363,6.6088,6.6055,6.5966,6.6008,6.5999,6.5978,6.591,6.5711,6.559,6.5513,6.4128,6.3012,6.2852,6.1781,6.0819,6.0819,6.0781,6.1012,6.1672,6.1248,6.1133,6.1941,6.2743,6.3583,6.4474,6.532,6.582,6.5904,6.5904,6.5782,6.5397,6.548,6.5596,6.559,6.575,6.559,6.5904,6.5859,6.5397,6.4436,6.3172,6.2403,6.1826,6.1364,6.0979,6.0517,6.0094,6.015,5.9899,5.9523,5.9596,5.9607,5.9645,5.9607,5.9418,5.9035,5.8183,5.756,5.7134,5.6321,5.593,5.5934,5.6004,5.6055,5.6131,5.6305,5.6171,5.5764,5.5428,5.4763,5.3764,5.2961,5.2534,5.2447,5.2147,5.1797,5.1406,5.1406,5.1406,5.1406,5.1406,5.1406,5.1406,5.1406,5.1406,5.1406,5.1758,5.1758,5.1367,5.168,5.168,0.0,0.0,0.0,0.0,0.0,0.0,0.0,0.0,0.0,0.0,0.0,5.9375,5.8906,5.9297,6.0156,6.1445,6.2344,6.3203,6.4062,6.457,6.5194,6.5966,6.5939,6.5983,6.6273,6.6247,6.6104,6.5967,6.594,6.5947,6.5904,6.5904,6.5904,6.575,6.4429,6.3314,6.3237,6.2204,6.1402,6.1364,6.1056,6.0935,6.1364,6.1133,6.1204,6.2397,6.2974,6.3698,6.4897,6.559,6.5904,6.5904,6.5904,6.5904,6.5904,6.5904,6.5904,6.5904,6.559,6.5128,6.5904,6.5904,6.5904,6.5474,6.4666,6.3095,6.2287,6.2062,6.1328,6.0938,6.0877,6.0991,6.1044,6.1056,6.1224,6.1325,6.1325,6.1325,6.0903,6.013,5.9271,5.8415,5.7562,5.6742,5.6308,5.6233,5.621,5.6273,5.6389,5.6437,5.6505,5.6562,5.5859,5.5469,5.543,5.4726,5.418,5.3828,5.3203,5.2422,5.1601,5.168,5.1719,5.1758,5.1719,5.1719,5.1719,5.1758,5.1719,5.1758,5.2461,5.2851,5.2891,5.3711,5.418,0.0,5.4375,0.0,0.0,0.0,0.0,0.0,0.0,0.0,0.0,6.1523,6.207,6.2187,6.2187,6.2539,6.3398,6.418,6.4922,6.5625,6.5741,6.5967,6.6494,6.6549,6.6418,6.6117,6.608,6.6002,6.5915,6.5904,6.5904,6.5904,6.5904,6.5904,6.575,6.4436,6.3314,6.3275,6.2627,6.2101,6.2326,6.1749,6.1281,6.1325,6.132,6.1666,6.3237,6.3468,6.4006,6.5436,6.5859,6.5904,6.5904,6.5904,6.5904,6.5904,6.5788,6.5673,6.5628,6.532,6.4743,6.5904,6.5904,6.5904,6.5788,6.5551,6.4551,6.3364,6.2113,6.203,6.1729,6.1229,6.1224,6.124,6.1243,6.1271,6.1325,6.1325,6.1325,6.1211,6.1017,6.0166,5.9313,5.8454,5.7562,5.6819,5.6238,5.6291,5.6376,5.6391,5.6512,5.6562,5.6601,5.6445,5.6367,5.6367,0.0,0.0,0.0,5.3476,5.332,5.2539,5.3125,5.3516,5.3516,5.3516,0.0,5.3516,5.3516,5.3516,5.3516,5.3672,0.0,0.0,0.0,0.0,0.0,0.0,0.0,0.0,0.0,0.0,0.0,6.3594,6.3867,6.2656,6.332,6.4101,6.4805,6.4844,6.5234,6.6055,6.6289,6.6403,6.6411,6.6403,6.6411,6.6452,6.6312,6.6166,6.6128,6.603,6.594,6.5916,6.5904,6.5904,6.5904,6.5904,6.5904,6.5942,6.4474,6.3352,6.3237,6.2704,6.2672,6.3935,6.3314,6.2891,6.3583,6.3237,6.3243,6.4051,6.432,6.4628,6.5705,6.5904,6.5904,6.5904,6.5904,6.5865,6.5904,6.5359,6.4859,6.4859,6.5282,6.5243,6.5904,0.0,6.5904,6.5904,0.0,6.5494,6.4591,6.3371,6.2636,6.1927,6.1328,6.1361,6.1389,6.1392,6.1483,6.1501,6.1501,6.1502,6.1502,6.1423,6.0608,5.9983,5.9515,5.8697,5.7837,5.7058,5.7124,5.69,5.651,5.6561,5.6601,5.6601,5.6601,5.6601,5.6601,5.6601,5.5742,5.3984,5.4414,5.4219,5.3398,5.375,5.3984,5.3984,5.3984,0.0,0.0,0.0,0.0,0.0,0.0,0.0,0.0,0.0,0.0,5.7265,5.8047,5.9101,6.0312,6.125,6.2461,6.418,6.5508,6.5859,6.5,6.5351,6.5781,6.6211,6.625,6.6366,6.6706,6.6743,6.6682,6.6518,6.65,6.6446,6.6279,6.6148,6.6099,6.5997,6.5964,6.5904,6.5904,6.6288,6.6288,6.6019,6.6628,6.6936,6.6481,6.5397,6.4589,6.4512,6.3435,6.3128,6.4205,6.3891,6.3429,6.3775,6.3583,6.3698,6.4474,6.4622,6.4897,6.5673,6.5904,6.5904,6.5904,6.5904,6.575,6.5359,6.4936,6.4243,6.3634,6.3711,6.4095,6.5904,6.5904,6.5904,6.5935,6.5931,6.6059,6.5617,6.476,0.0,0.0,0.0,6.1495,6.1522,6.1565,6.1637,6.1719,6.1719,6.1719,6.1719,6.168,6.0976,6.0547,6.0351,5.9726,5.8945,5.8164,5.7969,5.7539,5.6836,5.668,5.6601,5.6601,5.6601,5.6601,5.6601,5.6601,5.625,5.5586,5.5547,5.5117,5.4258,5.4375,5.4453,5.4492,5.4453,5.4453,5.4453,5.4609,5.4687,5.4726,5.6211,5.707,5.7109,5.8555,5.9414,5.9414,5.9687,6.0547,6.2031,6.2305,6.3359,6.5664,6.6484,6.6914,6.6914,6.6914,6.6914,6.6914,6.6914,6.6833,6.6682,6.6624,6.6539,6.6406,6.6361,6.6264,6.6085,6.6079,6.6019,6.5915,6.591,6.5981,6.6134,6.6519,6.6827,6.659,6.7321,6.8129,6.7513,6.6558,6.5743,6.559,6.4436,6.3852,6.4512,6.4359,6.3775,6.3968,6.3891,6.4012,6.4589,6.482,6.5128,6.5743,6.5904,6.5904,6.5904,6.5904,6.5667,6.4974,6.4545,6.3974,6.271,6.221,6.2672,6.5904,6.5904,6.5904,6.5984,6.6099,6.6095,6.5782,6.5088,6.3454,6.2335,6.1636,6.1677,6.1678,6.1678,6.1679,6.1719,6.1719,6.1719,6.1719,6.168,6.1562,6.1133,6.043,6.0273,5.9805,5.9023,5.8242,5.7812,5.7656,5.6992,5.6601,5.664,5.6601,5.664,5.6601,5.6601,5.6562,5.6406,5.6406,5.5976,5.5156,5.5859,5.6211,5.625,5.6211,5.625,5.625,5.6914,5.7344,5.7383,5.832,5.8828,5.8867,5.9726,6.0234,6.0312,6.164,6.289,6.3867,6.4609,6.5547,6.6562,6.6836,6.6914,6.6914,6.6914,6.6914,6.6914,6.6875,6.6914,6.6834,6.6685,6.6525,6.6393,6.6271,6.6099,6.5949,6.5952,6.5933,6.591,6.5904,6.6173,6.6712,6.6513,6.6744,6.759,6.7782,6.7821,6.8629,6.7321,6.6051,6.5782,6.5051,6.4859,6.5359,6.5628,6.5397,6.5551,6.5397,6.5359,6.5551,6.559,6.5667,6.5865,6.5904,6.5904,6.5904,6.5904,6.5788,6.5474,6.4551,6.3506,6.3083,6.2627,6.2518,6.5925,6.5992,6.6003,6.6124,6.6268,6.6332,6.6014,6.5415,6.4675,6.3589,6.2422,6.1914,6.1719,6.1719,6.1719,6.1719,6.1719,6.1719,6.1719,6.1719,6.1719,6.1484,6.1133,6.1094,6.0664,5.9883,5.9453,5.9023,5.8594,5.8203,5.8008,5.8008,5.8008,5.8008,5.7969,5.7539,5.7539,5.7969,5.707,5.6406,5.6015,5.6367,5.6601,5.6601,5.6601,5.6836,5.7305,5.7695,5.8125,5.8594,5.9375,5.9844,5.9883,6.0625,6.1328,6.1797,6.2539,6.3594,6.4922,6.5695,6.6297,6.6611,6.6643,6.6645,6.6645,6.6683,6.6728,6.665,6.6604,6.6582,6.6483,6.6373,6.629,6.6143,6.6035,6.5946,6.5903,6.5904,6.5904,6.5904,6.5904,6.6211,6.7019,6.7167,6.7436,6.8314,6.8359,6.8975,7.0129,6.9013,6.7744,6.7282,6.6513,6.5936,6.5942,6.5904,6.5904,6.5904,6.5904,6.5904,6.5904,6.5904,6.5904,6.5904,6.5904,6.5904,6.5904,6.5904,6.5711,6.5166,6.4666,6.3929,6.3468,6.332,6.3628,6.646,6.6467,6.623,6.6279,6.6452,6.6608,6.6353,6.5898,6.5664,6.4844,6.3555,6.2656,6.2187,6.1992,6.1992,6.1875,6.1719,6.1719,6.1719,6.1719,6.1719,6.1719,6.1719,6.1719,6.1328,6.0703,6.0508,6.0078,5.9531,5.9297,5.9219,5.9219,5.9219,5.9219,5.918,5.8515,5.8555,5.9062,5.789,5.7187,5.7187,5.7187,5.7187,5.7187,5.7187,5.75,5.8164,5.8359,5.8789,5.9453,6.0273,6.0781,6.1015,6.1601,6.2382,6.3162,6.3434,6.4174,6.5611,6.6274,6.6507,6.6402,6.6426,6.6371,6.6344,6.6405,6.6483,6.6402,6.6402,6.6344,6.6224,6.6117,6.6142,6.6192,6.6018,6.6102,6.6397,6.6327,6.6288,6.6397,6.6474,6.6821,6.7552,6.809,6.843,6.8737,6.9436,7.0206,7.0706,7.0321,6.9667,6.8776,6.7821,6.6898,6.625,6.5974,6.5904,6.5904,6.5904,6.5904,6.5904,6.5904,6.5904,6.5904,6.5904,6.5904,6.5904,6.5904,6.5667,6.5166,6.4743,6.4352,6.3852,6.4083,6.4666,6.8036,6.7489,6.6757,6.6457,6.6611,6.6787,6.6797,6.664,6.5976,6.5547,6.5234,6.4453,6.3594,6.293,6.289,6.25,6.1797,6.1719,6.1758,6.1758,6.1719,6.1719,6.1758,6.1719,6.164,6.1445,6.082,6.043,6.0273,5.9609,5.9258,5.9219,5.9219,5.9258,5.9219,5.914,5.914,5.9219,5.9023,5.8945,5.8945,5.8945,5.8984,5.8984,5.8945,5.8984,5.9101,5.9765,6.0195,6.0351,6.1133,6.1953,6.2617,6.2812,6.3198,6.3975,6.4674,6.5461,6.6215,6.6379,6.6399,6.639,6.6371,6.6302,6.6169,6.6169,6.6224,6.6327,6.6377,6.6347,6.6354,6.6183,6.638,6.701,6.6435,6.6474,6.766,6.7475,6.7289,6.8122,6.7968,6.8475,6.9013,6.8891,6.8814,6.9513,7.0167,7.0706,7.0821,7.0783,7.0437,6.9552,6.8244,6.725,6.6904,6.6327,6.6058,6.5942,6.5904,6.5904,6.5904,6.5904,6.5904,6.5904,6.5904,6.5904,6.5904,6.5904,6.5865,6.5628,6.5128,6.4628,6.4512,6.4589,6.4936,6.9156,6.8548,6.8197,6.7865,6.7529,6.7108,6.6914,6.6836,6.6523,6.6367,6.6328,6.5976,6.5078,6.3789,6.3789,6.3555,6.3242,6.3242,6.3242,6.3203,6.2734,6.2461,6.2422,6.1914,6.1719,6.168,6.1328,6.1172,6.1094,6.082,6.0664,6.0664,6.0664,6.0703,6.0664,6.0156,6.0156,6.0664,6.0156,6.0156,6.0508,5.9687,5.9219,5.9219,5.9219,5.9453,5.9883,6.0234,6.0859,6.1836,6.2217,6.275,6.3609,6.3533,6.3832,6.4644,6.5462,6.6025,6.6232,6.6216,6.6196,6.6128,6.6118,6.6062,6.5997,6.598,6.6036,6.6093,6.6118,6.6118,6.6118,6.6052,6.6327,6.7004,6.6858,6.709,6.8199,6.8122,6.8045,6.8353,6.8391,6.8737,6.9507,6.9814,7.0014,7.036,7.0744,7.0898,7.0898,7.0898,7.0783,7.036,6.936,6.8244,6.7404,6.6865,6.6442,6.6058,6.5904,6.5904,6.5936,6.5904,6.5904,6.5904,6.5904,6.5904,6.5904,6.5904,6.5904,6.5788,6.5788,6.5359,6.5359,6.5359,6.5551,7.0552,6.9925,6.9499,6.8855,6.8164,6.7539,6.7109,6.6914,6.6914,6.6914,6.6914,6.6914,6.6211,6.5078,6.4765,6.4531,6.4336,6.4297,6.4297,6.4219,6.3633,6.3359,6.3281,6.2734,6.2422,6.2383,6.2187,6.1914,6.1758,6.1719,6.1719,6.1719,6.1678,6.1753,6.1908,6.1276,6.1387,6.2148,6.162,6.1659,6.2031,6.1073,6.0264,5.9961,6.0076,6.0463,6.101,6.1236,6.1894,6.3125,6.3133,6.3485,6.4304,6.4215,6.4523,6.533,6.6136,6.6549,6.6397,6.658,6.6565,6.6281,6.6244,6.6134,6.5942,6.5904,6.5904,6.5923,6.5904,6.5923,6.5904,6.6096,6.6481,6.7019,6.7096,6.7513,6.859,6.8776,6.8853,6.9045,6.9237,6.9283,6.9937,7.0475,7.0821,7.086,7.086,7.0898,7.0898,7.0898,7.0898,7.0898,7.036,6.9475,6.8097,6.7596,6.7167,6.6782,6.6551,6.6282,6.6167,6.6096,6.5904,6.5904,6.5904,6.5904,6.5904,6.5904,6.5904,6.5904,6.5859,6.5859,6.5788,6.5859,6.5859,7.2506,7.1679,7.0156,6.9101,6.8203,6.8164,6.7656,6.6992,6.6953,6.6914,6.6914,6.6914,6.6836,6.664,6.5859,6.5117,6.4414,6.4453,6.4492,6.4531,6.4375,6.4258,6.4258,6.418,6.414,6.3906,6.3359,6.2617,6.1836,6.1758,6.1719,6.1758,6.1731,6.1974,6.2626,6.255,6.286,6.3545,6.3542,6.3642,6.3678,6.36,6.2787,6.1869,6.2238,6.2556,6.2704,6.3275,6.3675,6.375,6.3819,6.4202,6.4983,6.5087,6.5463,6.6055,6.6703,6.7083,6.7179,6.768,6.7815,6.7135,6.6865,6.6712,6.6096,6.6019,6.6019,6.5942,6.6134,6.6173,6.5974,6.6404,6.6865,6.7058,6.7096,6.7859,6.9436,6.9513,7.0014,7.0475,7.0552,7.0552,7.0744,7.086,7.0898,7.0898,7.0898,7.0898,7.0898,7.0898,7.0898,7.0898,7.0783,7.0514,6.9667,6.8821,6.8353,6.7853,6.7244,6.6942,6.675,6.6519,6.6173,6.5904,6.5904,6.5904,6.5904,6.5904,6.5904,6.5904,6.5904,6.5904,6.5904,6.5904,6.5904,7.4058,7.2734,7.1601,7.0586,6.9765,6.9219,6.8515,6.7734,6.7734,6.7422,6.6953,6.6914,6.6914,6.6875,6.6562,6.625,6.5976,6.5937,6.625,6.668,6.625,6.5976,6.5976,6.5937,6.5269,6.4313,6.4348,6.3974,6.3138,6.3054,6.3054,6.3052,6.2976,6.3143,6.3484,6.3905,6.4341,6.461,6.461,6.488,6.5255,6.4377,6.4012,6.4592,6.3826,6.3455,6.3416,6.3675,6.4033,6.4623,6.5048,6.5674,6.6485,6.6966,6.7294,6.7533,6.7808,6.7936,6.7898,6.7705,6.7436,6.7135,6.6635,6.6558,6.6635,6.6673,6.6673,6.6827,6.7782,6.7705,6.6288,6.6173,6.6551,6.6981,6.7135,6.7789,6.9206,6.9706,7.0014,7.0706,7.0898,7.0898,7.0898,7.0898,7.0898,7.0898,7.0898,7.0898,7.0898,7.0898,7.0898,7.0898,7.0898,7.0783,7.0591,6.9783,6.909,6.8359,6.7744,6.7289,6.7019,6.6442,6.5974,6.6013,6.6013,6.5904,6.5904,6.5904,6.5904,6.5904,6.5904,6.5904,6.5904,6.5904,6.5904,7.5039,7.3711,7.2773,7.1914,7.1055,7.0195,6.9336,6.8633,6.8594,6.8281,6.7734,6.7422,6.7305,6.7344,6.7305,6.7264,6.7221,6.7305,6.7578,6.8079,6.7766,6.7603,6.7549,6.7548,6.6898,6.5788,6.5546,6.4992,6.3968,6.4069,6.4069,6.3803,6.398,6.41,6.4209,6.466,6.5123,6.5588,6.5743,6.6161,6.6695,6.589,6.5812,6.6618,6.5851,6.5156,6.4978,6.5156,6.5549,6.6118,6.6592,6.7122,6.7691,6.8172,6.8391,6.843,6.866,6.8814,6.8814,6.8513,6.8244,6.7975,6.7475,6.7327,6.7552,6.7513,6.7513,6.7782,6.8436,6.8436,6.7167,6.6474,6.6442,6.675,6.6942,6.7667,6.9052,6.9513,7.0052,7.0706,7.0898,7.0898,7.0898,7.0898,7.0898,7.0898,7.0898,7.0898,7.0898,7.0898,7.0898,7.0898,7.0898,7.0898,7.0783,7.0321,7.0052,6.9436,6.8321,6.7782,6.7404,6.6667,6.6128,6.6167,6.609,6.5936,6.5904,6.5904,6.5904,6.5904,6.5904,6.5904,6.5904,6.5904,6.5904,7.543,7.4531,7.3672,7.2851,7.1953,7.1172,7.0273,6.9531,6.9492,6.9375,6.9023,6.8515,6.8203,6.8203,6.8164,6.8075,6.7958,6.8148,6.8223,6.8214,6.8796,6.9018,6.8867,6.8951,6.8855,6.8461,6.7097,6.5573,6.4334,6.4941,6.4945,6.4245,6.4817,6.5151,6.4919,6.5186,6.5723,6.6825,6.7191,6.7577,6.825,6.8155,6.8135,6.8418,6.8232,6.7892,6.7405,6.7892,6.8013,6.8187,6.8283,6.8398,6.8514,6.8629,6.8545,6.8737,6.9283,6.9667,6.9783,7.0206,7.0014,6.9513,6.9475,6.8898,6.8468,6.8391,6.8391,6.843,6.8584,6.8468,6.8237,6.7667,6.7013,6.6211,6.6782,6.7513,6.8475,6.9244,7.0014,7.0706,7.0898,7.0898,7.0898,7.0898,7.0898,7.0898,7.0898,7.0898,7.0898,7.0898,7.0898,7.0898,7.0898,7.0898,7.0898,7.086,7.086,7.0591,6.9321,6.8436,6.8282,6.7744,6.675,6.6558,6.6128,6.5981,6.5904,6.5904,6.5904,6.5904,6.5904,6.5904,6.5904,6.5904,6.5904,7.6289,7.5508,7.5195,7.4219,7.293,7.2578,7.168,7.0351,7.0312,7.0,6.9453,6.918,6.9019,6.8918,6.8873,6.8788,6.8636,6.9221,6.9528,6.9529,6.976,6.985,6.9915,7.0417,7.0316,6.9501,6.8346,6.7481,6.7067,6.7217,6.72,6.7062,6.7126,6.7266,6.7194,6.7827,6.8475,6.8821,6.8898,6.9283,6.9898,6.8968,6.893,6.9937,6.9584,6.9412,6.9752,6.8905,6.8436,6.8468,6.8968,6.9552,6.9975,7.0129,7.009,7.0167,7.036,7.0514,7.0475,7.0206,7.0052,6.9661,6.9199,6.9045,6.9237,6.9283,6.9314,6.936,6.9744,6.9744,6.8737,6.8783,6.8436,6.7699,6.7321,6.7744,6.9052,6.9975,7.0552,7.0821,7.0898,7.0898,7.0898,7.0898,7.0898,7.0898,7.0898,7.0898,7.0898,7.0898,7.0898,7.0898,7.0898,7.0898,7.0898,7.0898,7.0898,7.0744,6.9821,6.9237,6.909,6.8398,6.7481,6.675,6.6327,6.6058,6.5942,6.5904,6.5904,6.5904,6.5904,6.5904,6.5904,6.5904,6.5904,7.6875,7.6367,7.6015,7.5078,7.3789,7.3476,7.25,7.1289,7.1088,7.0733,7.0273,6.9883,6.9701,6.9566,6.9594,6.947,6.9379,7.0191,7.0538,7.0489,7.052,7.0542,7.0509,7.0966,7.0787,6.991,6.9194,6.8699,6.843,6.8699,6.8706,6.8475,6.8699,6.8667,6.8468,6.893,6.9321,6.9629,6.9667,7.009,7.0514,6.986,6.9814,7.0667,7.0398,7.0437,7.0783,6.9821,6.936,6.943,6.9898,7.0398,7.086,7.086,7.0898,7.0898,7.0898,7.0898,7.086,7.0437,7.0167,7.0014,6.9629,6.9545,7.0052,7.0167,7.0167,7.0244,7.0552,7.0475,6.9629,6.943,6.9552,6.9391,6.8282,6.8321,6.9513,7.0398,7.0821,7.0898,7.0898,7.0898,7.0898,7.0898,7.0898,7.0898,7.0898,7.0898,7.0898,7.0898,7.0898,7.0898,7.0898,7.0898,7.0898,7.0898,7.0898,7.0629,7.0167,7.0014,6.9937,6.8744,6.7667,6.7135,6.6673,6.6288,6.6134,6.5942,6.5904,6.5904,6.5904,6.5904,6.5904,6.5904,6.5904,7.7226,7.707,7.6328,7.543,7.4453,7.3711,7.2812,7.1953,7.1717,7.1565,7.1351,7.0648,7.0282,7.0258,7.0251,7.0136,7.0127,7.0682,7.0965,7.0931,7.0981,7.0965,7.0889,7.0908,7.0581,6.9983,6.9796,6.936,6.8891,6.9436,6.936,6.8891,6.943,6.9391,6.893,6.8622,6.9206,6.9783,6.986,7.0244,7.086,7.0821,7.0783,7.0898,7.086,7.0821,7.086,7.086,7.0898,7.0937,7.086,7.086,7.0975,7.0937,7.0898,7.0898,7.0898,7.0898,7.0898,7.0821,7.0783,7.0744,7.0706,7.0898,7.0783,7.0744,7.0744,7.0744,7.086,7.086,7.0591,7.0398,7.036,7.0744,6.9661,6.9206,6.9706,7.0475,7.0821,7.0898,7.0898,7.0898,7.0898,7.0898,7.0898,7.0898,7.0898,7.0898,7.0898,7.0898,7.0898,7.0898,7.0898,7.0898,7.0898,7.0898,7.0898,7.0783,7.0475,7.0475,7.0398,6.9283,6.8199,6.7628,6.725,6.6789,6.6404,6.6288,6.6058,6.5904,6.5904,6.5904,6.5904,6.5904,6.5904,7.7773,7.7187,7.6953,7.5893,7.4461,7.4106,7.3093,7.1729,7.1614,7.159,7.1455,7.1307,7.0988,7.0936,7.0922,7.0821,7.0726,7.0857,7.0973,7.0887,7.094,7.096,7.0912,7.0898,7.0783,7.0552,7.0514,7.0475,7.0283,7.0398,7.0391,7.0283,7.036,7.0475,7.0283,7.0167,7.0321,7.0552,7.0591,7.0706,7.086,7.0937,7.0898,7.0898,7.0898,7.0898,7.0975,7.1514,7.1867,7.1828,7.1206,7.1245,7.1752,7.1321,7.1014,7.0975,7.0937,7.0898,7.0898,7.0898,7.0898,7.0898,7.0898,7.0898,7.0898,7.0898,7.0898,7.0898,7.0898,7.0898,7.0975,7.1283,7.186,7.2437,7.1238,7.0353,7.0591,7.0744,7.0898,7.0898,7.0937,7.0898,7.0898,7.0898,7.0898,7.0898,7.0898,7.0898,7.0898,7.0898,7.0898,7.0898,7.0898,7.0898,7.0898,7.0898,7.0898,7.0898,7.0783,7.0744,7.0552,6.9937,6.9052,6.8321,6.8167,6.7782,6.725,6.6865,6.6519,6.6211,6.6058,6.6096,6.5942,6.5904,6.5904,7.8203,7.7695,7.7259,7.6221,7.4889,7.4765,7.3676,7.2214,7.1933,7.1702,7.1452,7.128,7.1195,7.1085,7.1074,7.1016,7.0912,7.0898,7.0898,7.0898,7.0905,7.0905,7.0898,7.0898,7.0898,7.0898,7.0898,7.086,7.086,7.0898,7.0898,7.0821,7.0898,7.0898,7.086,7.1321,7.1437,7.1514,7.1745,7.186,7.1475,7.1437,7.1206,7.1014,7.0898,7.1014,7.1444,7.1944,7.2213,7.2175,7.2052,7.2245,7.2629,7.2283,7.1822,7.1514,7.1437,7.1321,7.0975,7.0898,7.0898,7.0898,7.0898,7.0898,7.0898,7.0898,7.0898,7.0898,7.0898,7.1091,7.1514,7.2245,7.2899,7.3199,7.2584,7.2007,7.1975,7.1668,7.1475,7.136,7.1129,7.0898,7.0898,7.0898,7.0898,7.0898,7.0898,7.0898,7.0898,7.0898,7.0898,7.0898,7.0898,7.0898,7.0898,7.0898,7.0898,7.0898,7.0898,7.0898,7.0744,7.0398,6.986,6.9206,6.9045,6.8737,6.809,6.7552,6.7244,6.6936,6.659,6.6288,6.6173,6.6058,6.6058,7.8555,7.8397,7.7335,7.6353,7.5535,7.5297,7.4258,7.2957,7.2656,7.2214,7.1706,7.1307,7.1486,7.1168,7.1543,7.129,7.1283,7.1437,7.1321,7.136,7.1245,7.1168,7.1168,7.0975,7.0898,7.0898,7.0898,7.0898,7.0898,7.0898,7.0898,7.0898,7.0898,7.1014,7.1245,7.1783,7.2206,7.2437,7.2892,7.2892,7.2437,7.2322,7.2052,7.1591,7.1475,7.1745,7.2206,7.2514,7.2598,7.2482,7.3161,7.3392,7.3507,7.3546,7.3084,7.2514,7.2283,7.1975,7.1283,7.1283,7.1206,7.1206,7.1245,7.1168,7.136,7.1475,7.1475,7.1514,7.1206,7.1783,7.2476,7.3245,7.3699,7.393,7.3815,7.3776,7.3591,7.2937,7.2329,7.2213,7.1514,7.1245,7.0937,7.0975,7.1052,7.0898,7.0898,7.0898,7.0898,7.0898,7.0898,7.0898,7.0898,7.0898,7.0898,7.0898,7.0898,7.0898,7.0898,7.0898,7.0898,7.0667,7.0398,7.0129,6.9898,6.9436,6.8783,6.8359,6.809,6.7667,6.7321,6.6859,6.6513,6.6442,6.6365,7.8862,7.8154,7.7103,7.6054,7.5205,7.5052,7.4403,7.3362,7.3324,7.315,7.2995,7.292,7.286,7.2853,7.2776,7.293,7.2776,7.2776,7.293,7.286,7.2168,7.1944,7.1783,7.136,7.0975,7.0898,7.0898,7.0898,7.0898,7.0898,7.0898,7.0898,7.1014,7.1245,7.186,7.2168,7.2591,7.3129,7.3469,7.3507,7.3315,7.3199,7.3084,7.2815,7.2815,7.2969,7.3283,7.3815,7.413,7.4053,7.3815,7.393,7.4238,7.393,7.3507,7.3322,7.3206,7.2822,7.2245,7.2399,7.2591,7.2052,7.2399,7.2937,7.293,7.2815,7.2853,7.293,7.2969,7.3122,7.3853,7.4238,7.4668,7.5091,7.5284,7.5322,7.5207,7.4084,7.3053,7.2552,7.2629,7.243,7.1206,7.1706,7.1591,7.1091,7.0937,7.0898,7.0898,7.0898,7.0898,7.0898,7.0898,7.0898,7.0898,7.0898,7.0898,7.0898,7.0898,7.0898,7.0898,7.0898,7.0629,7.0629,7.0706,7.0129,6.9475,6.936,6.9129,6.8629,6.809,6.7821,6.7475,6.7167,6.6865,7.9372,7.8537,7.7493,7.6507,7.567,7.5487,7.4925,7.4189,7.4084,7.3853,7.3546,7.3507,7.3507,7.3507,7.3507,7.3469,7.3507,7.3507,7.3469,7.3353,7.2976,7.2822,7.2783,7.2283,7.1822,7.1129,7.0898,7.0898,7.0898,7.0937,7.0898,7.0975,7.129,7.1752,7.236,7.2937,7.363,7.4046,7.4469,7.4507,7.4123,7.4046,7.3776,7.3584,7.3507,7.3623,7.4084,7.443,7.4892,7.5091,7.4899,7.4815,7.5168,7.4899,7.4514,7.4123,7.4046,7.3661,7.3238,7.3161,7.3276,7.286,7.3276,7.3392,7.3507,7.3507,7.3507,7.3507,7.3507,7.3815,7.4584,7.5168,7.5553,7.5822,7.5976,7.5976,7.5784,7.4861,7.393,7.3437,7.343,7.3046,7.2668,7.2591,7.229,7.1822,7.1591,7.1514,7.0898,7.0898,7.0898,7.0898,7.0898,7.0898,7.0898,7.0898,7.0898,7.0898,7.0898,7.0898,7.0898,7.0898,7.086,7.086,7.086,7.0783,7.0283,7.0244,6.9975,6.9398,6.8936,6.8776,6.8468,6.7968,6.7744,7.9916,7.9165,7.8009,7.7111,7.6457,7.6086,7.5568,7.4976,7.4892,7.4584,7.4007,7.3853,7.4123,7.3969,7.4007,7.3892,7.393,7.3969,7.4161,7.413,7.3815,7.3699,7.3623,7.3276,7.2699,7.1398,7.1475,7.1437,7.1283,7.1206,7.136,7.1168,7.1975,7.2437,7.2783,7.3822,7.4661,7.493,7.5438,7.5515,7.5014,7.4892,7.4584,7.4238,7.4123,7.4392,7.4815,7.5046,7.5245,7.5938,7.5976,7.5976,7.5976,7.5938,7.5745,7.4938,7.4899,7.4476,7.393,7.3853,7.3969,7.3738,7.3892,7.393,7.4007,7.4084,7.4123,7.4084,7.4161,7.4361,7.4853,7.5438,7.5861,7.5976,7.5976,7.5976,7.5861,7.5322,7.4892,7.4546,7.4361,7.4053,7.3623,7.3399,7.2976,7.2598,7.2406,7.2059,7.1437,7.0937,7.0937,7.0898,7.0898,7.0898,7.0898,7.0898,7.0898,7.0898,7.0898,7.0898,7.0898,7.0898,7.0898,7.0898,7.086,7.0821,7.0821,7.0667,7.036,6.9975,6.986,6.9706,6.9276,6.8737,6.8622,8.0052,7.9792,7.8084,7.727,7.7032,7.6306,7.5899,7.5784,7.5745,7.5707,7.5553,7.5553,7.5438,7.5476,7.5553,7.5553,7.5361,7.5284,7.5361,7.5245,7.4853,7.4507,7.443,7.4046,7.343,7.3199,7.3007,7.2745,7.2322,7.2629,7.2168,7.1552,7.2514,7.3238,7.3507,7.4238,7.5123,7.5553,7.5861,7.5822,7.5707,7.563,7.5592,7.5322,7.5284,7.5438,7.563,7.5745,7.5861,7.5976,7.5976,7.5976,7.5976,7.5976,7.5861,7.5745,7.563,7.5284,7.47,7.5091,7.5084,7.4892,7.5014,7.5438,7.5476,7.5476,7.5284,7.5361,7.5399,7.5553,7.5745,7.5899,7.5976,7.5976,7.5976,7.5976,7.5938,7.5784,7.5399,7.4976,7.5053,7.513,7.463,7.4199,7.3937,7.3476,7.3014,7.2706,7.2168,7.1514,7.1052,7.0975,7.0898,7.0898,7.0898,7.0898,7.0898,7.0898,7.0898,7.0898,7.0898,7.0898,7.0898,7.0898,7.0898,7.086,7.086,7.0898,7.0783,7.0437,7.0514,7.0591,7.0129,6.9622,6.9507,8.0336,7.9814,7.8481,7.7907,7.7715,7.6515,7.6284,7.6599,7.6207,7.5976,7.5976,7.5976,7.5976,7.5976,7.5976,7.5976,7.5976,7.5976,7.5976,7.5861,7.5592,7.5353,7.5322,7.4899,7.4861,7.4784,7.4745,7.4046,7.3014,7.3238,7.3007,7.2822,7.3546,7.4123,7.4315,7.4976,7.5515,7.5976,7.5976,7.5976,7.5976,7.5976,7.5976,7.5976,7.5976,7.5976,7.5976,7.5976,7.5976,7.5976,7.5976,7.5976,7.6015,7.5976,7.5976,7.5976,7.5976,7.5861,7.5438,7.5784,7.5745,7.5515,7.5784,7.5976,7.5976,7.5938,7.5976,7.5976,7.5976,7.5976,7.5938,7.5976,7.5976,7.5976,7.5976,7.5976,7.5976,7.5976,7.5707,7.5361,7.5515,7.5515,7.5322,7.5014,7.4815,7.4361,7.3745,7.3322,7.2899,7.2129,7.1398,7.1168,7.1091,7.0898,7.0898,7.0898,7.0898,7.0898,7.0898,7.0898,7.0898,7.0898,7.0898,7.0898,7.0898,7.0898,7.0898,7.0898,7.0898,7.0898,7.0821,7.0744,7.0744,7.0629,7.0321,8.0708,7.9977,7.9131,7.8638,7.8253,7.6899,7.6553,7.683,7.6284,7.5976,7.5976,7.5976,7.5976,7.5976,7.5976,7.5976,7.5976,7.5976,7.5976,7.5976,7.5938,7.5938,7.5976,7.5976,7.5822,7.5668,7.5745,7.5207,7.4046,7.4084,7.3892,7.3699,7.4353,7.4815,7.4853,7.5438,7.5861,7.5976,7.5976,7.5976,7.5976,7.5976,7.5976,7.5976,7.5976,7.5976,7.5976,7.5976,7.6169,7.6207,7.6169,7.6092,7.6207,7.6092,7.6015,7.5976,7.5976,7.5976,7.5976,7.5938,7.5976,7.5861,7.5938,7.5976,7.5976,7.5976,7.5976,7.5976,7.5976,7.5976,7.5976,7.5976,7.5976,7.5976,7.5976,7.5976,7.5976,7.5976,7.5976,7.5861,7.5976,7.5861,7.563,7.563,7.5399,7.5084,7.4476,7.4123,7.363,7.2552,7.1867,7.1559,7.1283,7.0975,7.0898,7.0898,7.0898,7.0898,7.0898,7.0898,7.0898,7.0898,7.0898,7.0898,7.0898,7.0898,7.0898,7.0898,7.0898,7.0898,7.0898,7.0898,7.086,7.0821,7.0667,8.1054,8.0862,8.0008,7.9208,7.8484,7.7522,7.6753,7.6284,7.613,7.5976,7.6015,7.6053,7.6092,7.6053,7.6015,7.6015,7.5976,7.5976,7.5976,7.5976,7.5976,7.6053,7.6053,7.5976,7.6092,7.6092,7.6053,7.5476,7.4899,7.5207,7.4861,7.4238,7.4969,7.5507,7.5014,7.563,7.5976,7.5976,7.6015,7.6053,7.613,7.613,7.6092,7.6053,7.6092,7.613,7.6207,7.6284,7.6515,7.7015,7.6438,7.6476,7.6868,7.6361,7.6092,7.5976,7.5976,7.5976,7.6015,7.6092,7.6053,7.6053,7.5976,7.5976,7.6169,7.6245,7.6284,7.5976,7.6053,7.613,7.613,7.6015,7.6015,7.5976,7.5976,7.5976,7.5976,7.5976,7.5976,7.5976,7.5976,7.5976,7.5861,7.5938,7.5899,7.5592,7.5238,7.4853,7.4276,7.3245,7.2175,7.179,7.1321,7.0975,7.0898,7.0898,7.0898,7.0898,7.0898,7.0898,7.0898,7.0898,7.0898,7.0898,7.0898,7.0898,7.0898,7.0898,7.0898,7.0898,7.0898,7.0898,7.0898,7.0898,7.0898,8.1093,8.1016,8.0162,7.99,7.9708,7.8092,7.7369,7.7215,7.6399,7.5976,7.613,7.6553,7.6746,7.6553,7.6284,7.5976,7.5976,7.5976,7.5976,7.5976,7.6015,7.6245,7.6515,7.6322,7.6169,7.6515,7.6245,7.5899,7.563,7.5668,7.5476,7.5168,7.5553,7.5861,7.5361,7.5784,7.5938,7.613,7.6476,7.6984,7.7169,7.6976,7.6707,7.6707,7.6714,7.6707,7.6823,7.7246,7.7515,7.7907,7.7522,7.7553,7.783,7.7638,7.7445,7.7445,7.7445,7.7022,7.6245,7.6515,7.6476,7.613,7.6092,7.6207,7.663,7.7092,7.7361,7.7445,7.6984,7.6731,7.657,7.6245,7.6053,7.6015,7.6024,7.5976,7.5976,7.5976,7.5976,7.5976,7.5976,7.5976,7.5976,7.5976,7.5976,7.5861,7.5668,7.543,7.4853,7.3969,7.2899,7.1944,7.1398,7.0898,7.0898,7.0898,7.0898,7.0898,7.0898,7.0898,7.0898,7.0898,7.0898,7.0898,7.0898,7.0898,7.0898,7.0898,7.0898,7.0898,7.0898,7.0898,7.0898,7.0898,7.0898,8.1093,8.1016,8.04,8.0392,8.0592,7.8477,7.7792,7.7946,7.663,7.5976,7.6169,7.663,7.6899,7.6861,7.6284,7.5976,7.5976,7.5976,7.5976,7.5976,7.6092,7.6476,7.6707,7.6515,7.6438,7.7284,7.6361,7.5976,7.5938,7.5976,7.5976,7.5976,7.5899,7.5938,7.5976,7.6015,7.6092,7.6476,7.6945,7.7445,7.7792,7.7522,7.7323,7.7246,7.733,7.7369,7.7676,7.8061,7.8407,7.8784,7.8484,7.8407,7.8715,7.8484,7.8292,7.833,7.8446,7.8138,7.7407,7.7215,7.7169,7.6861,7.6608,7.7001,7.7261,7.8069,7.8204,7.7743,7.7831,7.7454,7.7136,7.6584,7.6379,7.6187,7.6041,7.6016,7.5969,7.5939,7.5947,7.5976,7.5976,7.5976,7.5976,7.5976,7.5976,7.5976,7.5976,7.5899,7.5277,7.443,7.3661,7.2629,7.1898,7.1437,7.1321,7.1206,7.1129,7.0898,7.0898,7.0898,7.0898,7.0898,7.0898,7.0898,7.0898,7.0898,7.0898,7.0898,7.0898,7.0898,7.0898,7.0898,7.0898,7.0898,7.0898,8.1093,8.1093,8.1016,8.0592,7.9931,7.8861,7.8061,7.7561,7.6515,7.6092,7.613,7.613,7.6245,7.6169,7.6169,7.5976,7.5976,7.5976,7.5976,7.5976,7.6092,7.6592,7.6861,7.6823,7.6515,7.7169,7.6746,7.6322,7.6053,7.6207,7.6092,7.5976,7.5976,7.5976,7.6053,7.6169,7.6746,7.7169,7.763,7.7676,7.783,7.7676,7.7553,7.7484,7.7438,7.763,7.8361,7.8661,7.886,7.9467,7.9014,7.8889,7.9185,7.8878,7.864,7.8717,7.91,7.8823,7.8341,7.8216,7.833,7.833,7.8231,7.8054,7.7994,7.8268,7.8067,7.7654,7.8169,7.7873,7.7406,7.6892,7.6467,7.6144,7.5782,7.5586,7.563,7.581,7.5833,7.5947,7.5976,7.5976,7.5976,7.5976,7.5976,7.5976,7.5976,7.5938,7.5399,7.47,7.4238,7.3476,7.2629,7.2168,7.1975,7.1745,7.1321,7.1014,7.0898,7.0898,7.0898,7.0898,7.0898,7.0898,7.0898,7.0898,7.0898,7.0898,7.0898,7.0898,7.0898,7.0898,7.0898,7.0898,7.0898,8.1093,8.1093,8.1093,8.09,8.0554,7.9669,7.8823,7.7984,7.7176,7.6784,7.6714,7.6284,7.6284,7.6515,7.6169,7.5976,7.5976,7.5976,7.5976,7.5976,7.6092,7.6823,7.7246,7.7361,7.7207,7.7753,7.7561,7.6823,7.6092,7.6476,7.6322,7.6207,7.6092,7.5976,7.6092,7.6553,7.7476,7.8477,7.8861,7.9015,7.9477,7.9054,7.8823,7.8823,7.8861,7.8743,7.8939,7.9713,7.9739,7.9533,7.9407,7.9466,7.9447,7.9056,7.8932,7.8894,7.9323,7.9198,7.9066,7.902,7.9085,7.8715,7.8892,7.9137,7.8841,7.9568,7.9851,7.9535,7.8834,7.8418,7.8256,7.6996,7.5946,7.5696,7.5568,7.5408,7.5261,7.5535,7.5468,7.5451,7.5779,7.5976,7.5976,7.5976,7.5976,7.5976,7.5976,7.5861,7.5438,7.5091,7.47,7.4276,7.3514,7.2706,7.2437,7.1975,7.1482,7.1168,7.0898,7.0898,7.0898,7.0898,7.0898,7.0898,7.0898,7.0898,7.0898,7.0898,7.0898,7.0898,7.0898,7.0898,7.0898,7.0898,7.0898,8.1093,8.1093,8.1093,8.1093,8.0977,8.0169,7.9323,7.8446,7.7638,7.7138,7.6907,7.6515,7.6515,7.6707,7.6676,7.6169,7.6092,7.5976,7.5976,7.5976,7.6169,7.6899,7.7407,7.7484,7.7092,7.7984,7.8061,7.733,7.6553,7.7053,7.6899,7.6592,7.6361,7.6322,7.6207,7.6938,7.813,7.94,7.9854,8.0054,8.0477,8.0054,7.97,7.9623,7.9459,7.9403,7.9361,7.9838,7.9788,7.9539,7.9405,7.9502,7.9343,7.9198,7.9198,7.9187,7.9187,7.9175,7.9247,7.9325,7.9412,7.9225,7.923,7.9598,7.9996,8.0336,7.9972,8.0115,7.9524,7.9152,7.9017,7.791,7.7014,7.6959,7.6394,7.6122,7.5441,7.5319,7.5084,7.4952,7.523,7.5459,7.581,7.581,7.5976,7.5976,7.5976,7.5976,7.5822,7.5515,7.5284,7.4899,7.4399,7.3553,7.2783,7.2245,7.1713,7.1091,7.0898,7.0898,7.0898,7.0898,7.0898,7.0898,7.0898,7.0898,7.0898,7.0898,7.0898,7.0898,7.0898,7.0898,7.0898,7.0898,7.0898,8.1093,8.1093,8.1093,8.1093,8.1016,8.02,7.9361,7.8561,7.7676,7.6861,7.6322,7.6714,7.6669,7.6399,7.6676,7.6515,7.6092,7.5976,7.5976,7.5976,7.6015,7.6592,7.6868,7.6907,7.7015,7.7253,7.7707,7.7815,7.7186,7.7485,7.7355,7.7024,7.6744,7.6794,7.6178,7.6892,7.8161,7.9585,7.9838,7.9843,7.996,7.9873,7.9722,7.9608,7.9358,7.9323,7.9481,7.9518,7.9358,7.8986,7.9069,7.9081,7.8926,7.8914,7.8938,7.8962,7.901,7.9058,7.9126,7.9146,7.9275,7.955,7.9467,7.9461,7.9794,7.9744,7.948,7.9685,7.9613,7.9543,7.9439,7.9151,7.8339,7.7635,7.6996,7.6279,7.5566,7.5076,7.4864,7.4756,7.4588,7.4599,7.5165,7.5584,7.591,7.5976,7.5976,7.5976,7.5976,7.5861,7.563,7.5322,7.4853,7.4053,7.3206,7.2559,7.1944,7.1283,7.0898,7.0898,7.0898,7.0898,7.0898,7.0898,7.0898,7.0898,7.0898,7.0898,7.0898,7.0898,7.0898,7.0898,7.0898,7.0898,7.0898,8.1093,8.1093,8.1093,8.1093,8.1054,8.0785,8.0169,7.9208,7.7938,7.6823,7.6169,7.6361,7.6322,7.6169,7.6284,7.6361,7.6092,7.5976,7.5976,7.5976,7.5976,7.6553,7.6899,7.6984,7.7176,7.8061,7.8469,7.8119,7.7473,7.7844,7.7522,7.7121,7.6817,7.7105,7.8001,7.8673,7.9144,8.0216,8.0006,7.9568,7.9856,7.9638,7.9422,7.9422,7.9176,7.9055,7.9069,7.8986,7.8741,7.8248,7.8328,7.842,7.8163,7.8053,7.8049,7.8007,7.7979,7.7937,7.7937,7.7984,7.8473,7.8998,7.929,7.9175,7.9436,7.9358,7.9221,7.9187,7.9347,7.9347,7.9247,7.8696,7.7972,7.7303,7.6618,7.5879,7.5248,7.496,7.4721,7.474,7.4677,7.4941,7.5417,7.5535,7.5779,7.5962,7.5976,7.5976,7.5976,7.5976,7.5861,7.5592,7.5161,7.4392,7.363,7.2899,7.1975,7.1129,7.0898,7.0898,7.0898,7.0975,7.0975,7.1052,7.0975,7.0898,7.0898,7.0898,7.0898,7.0898,7.0898,7.0898,7.0898,7.0898,7.0898,8.1362,8.1093,8.1093,8.1093,8.1093,8.1093,8.0592,7.9592,7.8054,7.6945,7.6553,7.6476,7.6284,7.6207,7.6322,7.6169,7.6053,7.5976,7.5976,7.5976,7.5976,7.6322,7.6669,7.6885,7.6861,7.7823,7.8434,7.8406,7.7626,7.8214,7.8007,7.7268,7.6636,7.7659,7.8608,7.8741,7.8711,7.9571,7.9566,7.9393,7.9524,7.9453,7.9229,7.9172,7.8972,7.8729,7.8484,7.8312,7.8218,7.7666,7.7599,7.7782,7.7426,7.7326,7.7326,7.7326,7.7289,7.7335,7.7381,7.7396,7.7866,7.8341,7.8538,7.8766,7.8901,7.8716,7.8901,7.895,7.8974,7.9069,7.9015,7.8386,7.8134,7.749,7.7064,7.637,7.5576,7.5314,7.4815,7.4846,7.4659,7.5098,7.554,7.5589,7.5654,7.5826,7.5976,7.5976,7.5976,7.5976,7.5976,7.5784,7.5438,7.4707,7.3976,7.3206,7.2206,7.1091,7.1014,7.1168,7.1168,7.1321,7.1245,7.1168,7.1052,7.0975,7.0898,7.0898,7.0898,7.0898,7.0898,7.0898,7.0898,7.0898,7.0898,8.1785,8.1131,8.1093,8.1093,8.1093,8.1093,8.0592,7.9631,7.8054,7.733,7.7176,7.7022,7.663,7.6245,7.6823,7.6669,7.6092,7.6015,7.5976,7.5939,7.5856,7.6025,7.5949,7.5987,7.6243,7.6517,7.712,7.7893,7.7625,7.7836,7.7835,7.7596,7.719,7.7808,7.798,7.7815,7.8006,7.8995,7.9058,7.895,7.9034,7.8998,7.8803,7.8666,7.8434,7.8231,7.803,7.7774,7.7555,7.732,7.7335,7.7335,7.7326,7.7326,7.7326,7.7326,7.7326,7.7326,7.7326,7.7326,7.732,7.7651,7.754,7.8067,7.8341,7.8122,7.819,7.8473,7.8602,7.8841,7.8887,7.8849,7.8787,7.8428,7.8126,7.733,7.6376,7.5801,7.5228,7.4849,7.4436,7.4661,7.5332,7.5513,7.5782,7.6141,7.6245,7.5976,7.5976,7.5976,7.5976,7.5938,7.5553,7.5053,7.4322,7.3553,7.293,7.193,7.1668,7.1745,7.1706,7.1706,7.1629,7.1475,7.1206,7.1014,7.0937,7.0898,7.0898,7.0898,7.0898,7.0898,7.0898,7.0898,7.0898,8.1285,8.1093,8.1093,8.1093,8.1093,8.1093,8.0246,7.8869,7.8253,7.7599,7.6361,7.6399,7.6245,7.6053,7.6284,7.6207,7.6092,7.5976,7.5976,7.5864,7.5592,7.5438,7.5245,7.515,7.5541,7.6192,7.6834,7.7179,7.7766,7.7757,7.7056,7.6684,7.681,7.6991,7.6889,7.6533,7.7662,7.8391,7.8328,7.8339,7.8325,7.8204,7.8067,7.788,7.7846,7.768,7.757,7.745,7.7326,7.7326,7.7326,7.7326,7.7326,7.7326,7.7326,7.7326,7.7326,7.7326,7.7326,7.7326,7.7326,7.7326,7.7326,7.7381,7.7636,7.768,7.7555,7.7875,7.8214,7.8405,7.8551,7.8602,7.8551,7.8339,7.8128,7.7647,7.6795,7.635,7.5763,7.5345,7.4926,7.5047,7.5603,7.5738,7.6002,7.6431,7.6522,7.6169,7.5976,7.5976,7.5976,7.5938,7.5668,7.5168,7.4623,7.3892,7.343,7.293,7.2622,7.2469,7.2706,7.2629,7.2206,7.1828,7.1482,7.1168,7.0898,7.0898,7.0898,7.0898,7.0898,7.0898,7.0898,7.0898,7.0898,8.1362,8.1093,8.1093,8.1093,8.1093,8.1093,8.0092,7.8715,7.8484,7.7869,7.6976,7.6322,7.5976,7.6015,7.6015,7.6015,7.6015,7.5962,7.5864,7.5471,7.5236,7.5008,7.474,7.455,7.514,7.5811,7.6146,7.6206,7.7044,7.709,7.6505,7.622,7.613,7.6093,7.6168,7.6317,7.6969,7.7612,7.786,7.7651,7.7585,7.7525,7.7381,7.7326,7.7326,7.7326,7.7326,7.7326,7.7326,7.7326,7.7326,7.7326,7.7326,7.7326,7.7326,7.7326,7.7326,7.7326,7.7326,7.7326,7.7326,7.7326,7.7326,7.732,7.7335,7.7396,7.735,7.748,7.771,7.7932,7.8049,7.8136,7.8035,7.7932,7.7826,7.7695,7.7289,7.6857,7.6454,7.6043,7.5891,7.5925,7.6059,7.6084,7.6113,7.6343,7.6371,7.613,7.5976,7.5976,7.5976,7.5976,7.5668,7.5284,7.4776,7.4353,7.3969,7.3584,7.3238,7.3199,7.3584,7.3399,7.2783,7.2283,7.179,7.1514,7.1283,7.0975,7.0898,7.0937,7.0975,7.0898,7.0898,7.0898,7.0898,8.1747,8.1093,8.1093,8.1093,8.1093,8.1093,8.0169,7.8669,7.8462,7.8277,7.7754,7.657,7.581,7.5638,7.5614,7.5638,7.5606,7.5551,7.5362,7.5027,7.477,7.4606,7.4482,7.4241,7.4556,7.4918,7.5134,7.5195,7.5693,7.6058,7.6276,7.6093,7.5946,7.6019,7.635,7.6166,7.6655,7.7348,7.7495,7.7396,7.735,7.7304,7.7326,7.7326,7.7326,7.7326,7.7326,7.7326,7.7326,7.7326,7.7326,7.7326,7.7326,7.7326,7.7326,7.7436,7.7472,7.7436,7.7472,7.7509,7.7436,7.7399,7.7326,7.7326,7.7326,7.7326,7.7326,7.7326,7.7525,7.7585,7.768,7.7724,7.7622,7.7614,7.754,7.7465,7.7316,7.7032,7.6864,7.6527,7.6346,7.6374,7.6331,7.6346,7.6258,7.6311,7.6227,7.6047,7.5976,7.5976,7.5976,7.5976,7.5784,7.5515,7.5284,7.4892,7.4584,7.4199,7.3969,7.4123,7.463,7.413,7.3322,7.286,7.2437,7.2014,7.1706,7.1514,7.1321,7.1206,7.1168,7.0975,7.0898,7.0898,7.0898,8.1285,8.1131,8.1093,8.1093,8.1093,8.1093,8.0469,7.9408,7.8322,7.7179,7.5994,7.5509,7.512,7.4885,7.4875,7.4875,7.4846,7.4952,7.4649,7.4352,7.4146,7.4171,7.4151,7.3524,7.3869,7.439,7.4531,7.4361,7.5019,7.5625,7.6056,7.5983,7.5689,7.5674,7.6702,7.6423,7.6497,7.7252,7.7326,7.7326,7.7326,7.7326,7.7326,7.7326,7.7326,7.7326,7.7326,7.7326,7.7326,7.7326,7.7326,7.7326,7.7326,7.7326,7.7326,7.7399,7.7913,7.7949,7.7839,7.7949,7.8023,7.7582,7.7436,7.7362,7.7326,7.7326,7.7326,7.7326,7.7326,7.7326,7.7326,7.7326,7.7326,7.7326,7.7326,7.7326,7.7326,7.7252,7.7179,7.6995,7.6738,7.6669,7.6614,7.6528,7.6441,7.6303,7.6136,7.6007,7.6015,7.5976,7.5976,7.5976,7.5976,7.5784,7.5592,7.5476,7.5168,7.5207,7.513,7.5361,7.5592,7.4938,7.4168,7.363,7.3129,7.2783,7.2476,7.2245,7.2059,7.1752,7.1398,7.1206,7.0937,7.0898,7.0898,8.1093,8.1093,8.1093,8.1093,8.1061,8.0775,8.0183,7.9224,7.7884,7.6362,7.4993,7.4788,7.4578,7.4293,7.4304,7.4228,7.4239,7.4315,7.4161,7.3853,7.3665,7.3537,7.3239,7.2967,7.3468,7.3942,7.3942,7.4045,7.4441,7.4698,7.4992,7.5432,7.5124,7.5454,7.6592,7.6387,7.6497,7.7252,7.7289,7.7326,7.7326,7.7326,7.7326,7.7326,7.7326,7.7326,7.7326,7.7326,7.7326,7.7326,7.7326,7.7326,7.7436,7.7729,7.7876,7.8148,7.8552,7.8919,7.8699,7.8699,7.8846,7.8442,7.8369,7.8589,7.8002,7.7965,7.7619,7.7582,7.7362,7.7326,7.7326,7.7326,7.7326,7.7326,7.7326,7.7326,7.7326,7.7289,7.7252,7.7179,7.6959,7.6734,7.6593,7.6172,7.607,7.5876,7.5735,7.5918,7.5917,7.5976,7.5976,7.5976,7.5976,7.5976,7.5861,7.5822,7.5784,7.5899,7.5976,7.5899,7.5745,7.5515,7.5053,7.443,7.3969,7.3699,7.3399,7.3091,7.2521,7.2098,7.1745,7.1437,7.1206,7.0975,7.0898,8.1093,8.1093,8.1093,8.1093,8.0991,8.0379,7.9686,7.8741,7.7263,7.5851,7.4636,7.4188,7.4087,7.4072,7.4072,7.4072,7.4056,7.4046,7.3802,7.3466,7.3424,7.3599,7.3295,7.2767,7.3083,7.3413,7.3611,7.3523,7.356,7.3891,7.4294,7.4698,7.4955,7.5212,7.5836,7.6203,7.6497,7.7105,7.7326,7.7326,7.7326,7.7326,7.7326,7.7326,7.7326,7.7326,7.7326,7.7326,7.7326,7.7326,7.7326,7.7326,7.7582,7.7949,7.8332,7.8626,7.9433,7.9669,7.9669,7.9727,7.9779,7.9706,7.9816,7.9522,7.8846,7.8552,7.8222,7.7766,7.7509,7.7326,7.7326,7.7326,7.7326,7.7326,7.7326,7.7326,7.7326,7.7326,7.7326,7.7326,7.7157,7.6916,7.6427,7.6018,7.5732,7.5502,7.5471,7.5641,7.5795,7.5924,7.5976,7.5976,7.5976,7.5976,7.5976,7.5976,7.5976,7.5976,7.5976,7.5976,7.5938,7.5745,7.5476,7.5161,7.4738,7.4591,7.4245,7.3937,7.3283,7.2668,7.2091,7.1745,7.1475,7.1245,7.0975,8.1093,8.1093,8.1093,8.1085,8.0975,8.0361,7.9657,7.8625,7.6858,7.5482,7.4467,7.336,7.2844,7.2871,7.2844,7.299,7.3416,7.3657,7.3295,7.2797,7.3527,7.3955,7.3861,7.312,7.2716,7.2899,7.323,7.3281,7.312,7.3413,7.3795,7.4074,7.4074,7.4698,7.5983,7.6276,7.6555,7.7105,7.7326,7.7326,7.7326,7.7326,7.7326,7.7326,7.7326,7.7326,7.7326,7.7326,7.7326,7.7326,7.7326,7.7326,7.7656,7.8185,7.8626,7.914,8.0,8.0367,8.044,8.0461,8.0424,8.0183,8.011,7.9853,7.9486,7.9412,7.8883,7.8148,7.7803,7.7399,7.7326,7.7326,7.7326,7.7326,7.7326,7.7326,7.7326,7.7326,7.7326,7.7326,7.7252,7.6827,7.6242,7.5893,7.5605,7.5388,7.5132,7.5354,7.5748,7.5848,7.6,7.5976,7.5976,7.5976,7.5976,7.5976,7.5976,7.5976,7.5976,7.5976,7.5976,7.5976,7.5745,7.5515,7.5553,7.5515,7.5168,7.4707,7.4238,7.363,7.2629,7.2091,7.1745,7.1398,7.1052]}]]